[[{"header":{"parameterUnit":"m.s-1","parameterCategory":1,"la1":30.6,"la2":29.2853,"lo1":-89.7004,"lo2":-87.6739,"dy":0.0162,"dx":0.0183,"nx":112,"ny":82,"refTime":"2026-05-04T00:00:00:Z","depth":0,"parameterNumber":2,"parameterNumberName":"U-component_of_WINDS"},"data":[0.0,0.0,0.0,0.0,0.0,0.0,0.0,0.0,0.0,0.0,0.0,0.0,0.0,0.0,0.0,0.0,0.0,0.0,0.0,0.0,0.0,0.0,0.0,0.0,0.0,0.0,0.0,0.0,0.0,0.0,0.0,0.0,0.0,0.0,0.0,0.0,0.0,0.0,0.0,0.0,0.0,0.0,0.0,0.0,0.0,0.0,0.0,0.0,0.0,0.0,0.0,0.0,0.0,0.0,0.0,0.0,0.0,0.0,0.0,0.0,0.0,0.0,0.0,0.0,0.0,0.0,0.0,0.0,0.0,0.0,0.0,0.0,0.0,0.0,0.0,0.0,0.0,0.0,0.0,0.0,0.0,0.0,0.0,0.0,0.0,0.0,0.0,0.0,0.0,0.0,0.0,-5.4059,-5.9235,-6.1772,-6.0216,-5.9877,-5.6697,-4.9458,0.0,0.0,0.0,0.0,0.0,0.0,0.0,0.0,0.0,0.0,0.0,0.0,0.0,0.0,0.0,0.0,0.0,0.0,0.0,0.0,0.0,0.0,0.0,0.0,0.0,0.0,0.0,0.0,0.0,0.0,0.0,0.0,0.0,0.0,0.0,0.0,0.0,0.0,0.0,0.0,0.0,0.0,0.0,0.0,0.0,0.0,0.0,0.0,0.0,0.0,0.0,0.0,0.0,0.0,0.0,0.0,0.0,0.0,0.0,0.0,0.0,0.0,0.0,0.0,0.0,0.0,0.0,0.0,0.0,0.0,0.0,0.0,0.0,0.0,0.0,0.0,0.0,0.0,0.0,0.0,0.0,0.0,0.0,0.0,0.0,0.0,0.0,0.0,0.0,0.0,0.0,0.0,0.0,0.0,0.0,0.0,0.0,0.0,0.0,0.0,0.0,0.0,0.0,0.0,-5.0777,-5.8287,-6.1061,-6.1772,-6.0216,-5.893,-5.5581,-4.939,0.0,0.0,0.0,0.0,0.0,0.0,0.0,0.0,0.0,0.0,0.0,0.0,0.0,0.0,0.0,0.0,0.0,0.0,0.0,0.0,0.0,0.0,0.0,0.0,0.0,0.0,0.0,0.0,0.0,0.0,0.0,0.0,0.0,0.0,0.0,0.0,0.0,0.0,0.0,0.0,0.0,0.0,0.0,0.0,0.0,0.0,0.0,0.0,0.0,0.0,0.0,0.0,0.0,0.0,0.0,0.0,0.0,0.0,0.0,0.0,0.0,0.0,0.0,0.0,0.0,0.0,0.0,0.0,0.0,0.0,0.0,0.0,0.0,0.0,0.0,0.0,0.0,0.0,0.0,0.0,0.0,0.0,0.0,0.0,0.0,0.0,0.0,0.0,0.0,0.0,0.0,0.0,0.0,0.0,0.0,0.0,0.0,0.0,0.0,0.0,0.0,0.0,0.0,-4.9458,-5.345,-6.0047,-6.1738,-6.1772,-6.0216,-5.8727,-5.5344,-4.939,-4.7192,0.0,0.0,0.0,0.0,0.0,0.0,0.0,0.0,0.0,0.0,0.0,0.0,0.0,0.0,0.0,0.0,0.0,0.0,0.0,0.0,0.0,0.0,0.0,0.0,0.0,0.0,0.0,0.0,0.0,0.0,0.0,0.0,0.0,0.0,0.0,0.0,0.0,0.0,0.0,0.0,0.0,0.0,0.0,0.0,0.0,0.0,0.0,0.0,0.0,0.0,0.0,0.0,0.0,0.0,0.0,0.0,0.0,0.0,0.0,0.0,0.0,0.0,0.0,0.0,0.0,0.0,0.0,0.0,0.0,0.0,0.0,0.0,0.0,0.0,0.0,0.0,0.0,0.0,0.0,0.0,0.0,0.0,0.0,0.0,0.0,0.0,0.0,0.0,0.0,0.0,0.0,0.0,0.0,0.0,0.0,0.0,0.0,0.0,0.0,0.0,0.0,0.0,-5.389,-5.6325,-6.1061,-6.2042,-6.1772,-6.0216,-5.8254,-5.4803,-4.9357,-4.5737,0.0,0.0,0.0,0.0,0.0,0.0,0.0,0.0,0.0,0.0,0.0,0.0,0.0,0.0,0.0,0.0,0.0,0.0,0.0,0.0,0.0,0.0,0.0,0.0,0.0,0.0,0.0,0.0,0.0,0.0,0.0,0.0,0.0,0.0,0.0,0.0,0.0,0.0,0.0,0.0,0.0,0.0,0.0,0.0,0.0,0.0,0.0,0.0,0.0,0.0,0.0,0.0,0.0,0.0,0.0,0.0,0.0,0.0,0.0,0.0,0.0,0.0,0.0,0.0,0.0,0.0,0.0,0.0,0.0,0.0,0.0,0.0,0.0,0.0,0.0,0.0,0.0,0.0,0.0,0.0,0.0,0.0,0.0,0.0,0.0,0.0,0.0,0.0,0.0,0.0,0.0,0.0,0.0,0.0,0.0,0.0,0.0,0.0,0.0,0.0,0.0,0.0,-5.5006,-5.8795,-6.1975,-6.2347,-6.1772,-6.0216,-5.6867,-5.3145,-4.9255,-4.4248,0.0,0.0,0.0,0.0,0.0,0.0,0.0,0.0,0.0,0.0,0.0,0.0,0.0,0.0,0.0,0.0,0.0,0.0,0.0,0.0,0.0,0.0,0.0,0.0,0.0,0.0,0.0,0.0,0.0,0.0,0.0,0.0,0.0,0.0,0.0,0.0,0.0,0.0,0.0,0.0,0.0,0.0,0.0,0.0,0.0,0.0,0.0,0.0,0.0,0.0,0.0,0.0,0.0,0.0,0.0,0.0,0.0,0.0,0.0,0.0,0.0,0.0,0.0,0.0,0.0,0.0,0.0,0.0,0.0,0.0,0.0,0.0,0.0,0.0,0.0,0.0,0.0,0.0,0.0,0.0,0.0,0.0,0.0,0.0,0.0,0.0,0.0,0.0,0.0,0.0,0.0,0.0,0.0,0.0,0.0,0.0,0.0,0.0,0.0,0.0,0.0,0.0,-5.4329,-5.8051,0.0,-6.1975,-6.1264,-6.0182,-5.7543,-5.3991,-4.9289,0.0,0.0,0.0,0.0,0.0,0.0,0.0,0.0,0.0,0.0,0.0,0.0,0.0,0.0,0.0,0.0,0.0,0.0,0.0,0.0,0.0,0.0,0.0,0.0,0.0,0.0,0.0,0.0,0.0,0.0,0.0,0.0,0.0,0.0,0.0,0.0,0.0,0.0,0.0,0.0,0.0,0.0,0.0,0.0,0.0,0.0,0.0,0.0,0.0,0.0,0.0,0.0,0.0,0.0,0.0,0.0,0.0,0.0,0.0,0.0,0.0,0.0,0.0,0.0,0.0,0.0,0.0,0.0,0.0,0.0,0.0,0.0,0.0,0.0,0.0,0.0,0.0,0.0,0.0,0.0,0.0,0.0,0.0,0.0,0.0,0.0,0.0,0.0,0.0,0.0,0.0,0.0,0.0,0.0,0.0,0.0,0.0,0.0,0.0,0.0,0.0,0.0,-5.034,-5.4262,-5.8118,0.0,-6.2448,-6.1772,-6.1231,-5.8693,-5.4803,-4.9357,0.0,0.0,0.0,0.0,0.0,0.0,0.0,0.0,0.0,0.0,0.0,0.0,0.0,0.0,0.0,0.0,0.0,0.0,0.0,0.0,0.0,0.0,0.0,0.0,0.0,0.0,0.0,0.0,0.0,0.0,0.0,0.0,0.0,0.0,0.0,0.0,0.0,0.0,0.0,0.0,0.0,0.0,0.0,0.0,0.0,0.0,0.0,0.0,0.0,0.0,0.0,0.0,0.0,0.0,0.0,0.0,0.0,0.0,0.0,0.0,0.0,0.0,0.0,0.0,0.0,0.0,0.0,0.0,0.0,0.0,0.0,0.0,0.0,0.0,0.0,0.0,0.0,0.0,0.0,0.0,0.0,0.0,0.0,0.0,0.0,0.0,0.0,0.0,0.0,0.0,0.0,0.0,0.0,0.0,0.0,0.0,0.0,0.0,0.0,0.0,0.0,0.0,-5.0441,-5.5175,-5.9674,-6.414,-6.3971,-6.3531,-6.3497,-6.0047,-5.5344,0.0,0.0,0.0,0.0,0.0,0.0,0.0,0.0,0.0,0.0,0.0,0.0,0.0,0.0,0.0,0.0,0.0,0.0,0.0,0.0,0.0,0.0,0.0,0.0,0.0,0.0,0.0,0.0,0.0,0.0,0.0,0.0,0.0,0.0,0.0,0.0,0.0,0.0,0.0,0.0,0.0,0.0,0.0,0.0,0.0,0.0,0.0,0.0,0.0,0.0,0.0,0.0,0.0,0.0,0.0,0.0,0.0,0.0,0.0,0.0,0.0,0.0,0.0,0.0,0.0,0.0,0.0,0.0,0.0,0.0,0.0,0.0,0.0,0.0,0.0,0.0,0.0,0.0,0.0,0.0,0.0,0.0,0.0,0.0,0.0,0.0,0.0,0.0,0.0,0.0,0.0,0.0,0.0,0.0,0.0,0.0,0.0,0.0,0.0,0.0,0.0,0.0,0.0,-5.2131,-5.8118,-6.2753,-6.5121,-6.4715,-6.3869,-6.2821,-5.9742,-5.5344,-4.939,0.0,0.0,0.0,0.0,0.0,0.0,0.0,0.0,0.0,0.0,0.0,0.0,0.0,0.0,0.0,0.0,0.0,0.0,0.0,0.0,0.0,0.0,0.0,0.0,0.0,0.0,0.0,0.0,0.0,0.0,0.0,0.0,0.0,0.0,0.0,0.0,0.0,0.0,0.0,0.0,0.0,0.0,0.0,0.0,0.0,0.0,0.0,0.0,0.0,0.0,0.0,0.0,0.0,0.0,0.0,0.0,0.0,0.0,0.0,0.0,0.0,0.0,0.0,0.0,0.0,0.0,0.0,0.0,0.0,0.0,0.0,0.0,0.0,0.0,0.0,0.0,0.0,0.0,0.0,0.0,0.0,0.0,0.0,0.0,0.0,0.0,0.0,0.0,0.0,0.0,0.0,0.0,0.0,0.0,0.0,0.0,0.0,0.0,0.0,0.0,0.0,0.0,-5.2367,-5.866,-6.3531,-6.5899,-6.5493,-6.4681,-6.3768,-6.1501,-5.7205,-5.0304,0.0,0.0,0.0,0.0,0.0,0.0,0.0,0.0,0.0,0.0,0.0,0.0,0.0,0.0,0.0,0.0,0.0,0.0,0.0,0.0,0.0,0.0,0.0,0.0,0.0,0.0,0.0,0.0,0.0,0.0,0.0,0.0,0.0,0.0,0.0,0.0,0.0,0.0,0.0,0.0,0.0,0.0,0.0,0.0,0.0,0.0,0.0,0.0,0.0,0.0,0.0,0.0,0.0,0.0,0.0,0.0,0.0,0.0,0.0,0.0,0.0,0.0,0.0,0.0,0.0,0.0,0.0,0.0,0.0,0.0,0.0,0.0,0.0,0.0,0.0,0.0,0.0,0.0,0.0,0.0,0.0,0.0,0.0,0.0,0.0,0.0,0.0,0.0,0.0,0.0,0.0,0.0,0.0,0.0,0.0,0.0,0.0,0.0,0.0,0.0,0.0,0.0,-5.186,-5.7915,-6.3057,-6.6542,-6.6305,-6.5797,-6.5595,-6.4174,-5.9911,-5.1928,0.0,0.0,0.0,0.0,0.0,0.0,0.0,0.0,0.0,0.0,0.0,0.0,0.0,0.0,0.0,0.0,0.0,0.0,0.0,0.0,0.0,0.0,0.0,0.0,0.0,0.0,0.0,0.0,0.0,0.0,0.0,0.0,0.0,0.0,0.0,0.0,0.0,0.0,0.0,0.0,0.0,0.0,0.0,0.0,0.0,0.0,0.0,0.0,0.0,0.0,0.0,0.0,0.0,0.0,0.0,0.0,0.0,0.0,0.0,0.0,-5.0101,0.0,0.0,0.0,0.0,0.0,0.0,0.0,0.0,0.0,0.0,0.0,0.0,0.0,0.0,0.0,0.0,0.0,0.0,0.0,0.0,0.0,0.0,0.0,0.0,0.0,0.0,0.0,0.0,0.0,0.0,0.0,0.0,0.0,0.0,0.0,0.0,0.0,0.0,0.0,0.0,0.0,-5.3416,-6.0317,-6.5493,-6.7455,-6.7523,-6.6711,-6.4986,-6.2956,-5.9268,-5.3382,-4.7868,0.0,0.0,0.0,0.0,0.0,0.0,0.0,0.0,0.0,0.0,0.0,0.0,0.0,0.0,0.0,0.0,0.0,0.0,0.0,0.0,0.0,0.0,0.0,0.0,0.0,0.0,0.0,0.0,0.0,0.0,0.0,0.0,0.0,0.0,0.0,0.0,0.0,0.0,0.0,0.0,0.0,0.0,0.0,0.0,0.0,0.0,0.0,0.0,0.0,0.0,0.0,0.0,0.0,0.0,0.0,0.0,0.0,0.0,0.0,0.0,-5.1928,0.0,0.0,0.0,0.0,0.0,0.0,0.0,0.0,0.0,0.0,0.0,0.0,0.0,0.0,0.0,0.0,0.0,0.0,0.0,0.0,0.0,0.0,0.0,0.0,0.0,0.0,0.0,0.0,0.0,0.0,0.0,0.0,0.0,0.0,0.0,0.0,0.0,0.0,0.0,0.0,-5.345,-6.0554,-6.573,-6.7218,-6.7049,-6.6237,-6.4715,-6.2888,-5.9911,-5.5378,-5.0135,0.0,0.0,0.0,0.0,0.0,0.0,0.0,0.0,0.0,0.0,0.0,0.0,0.0,0.0,0.0,0.0,0.0,0.0,0.0,0.0,0.0,0.0,0.0,0.0,0.0,0.0,0.0,0.0,0.0,0.0,0.0,0.0,0.0,0.0,0.0,0.0,0.0,0.0,0.0,0.0,0.0,0.0,0.0,0.0,0.0,0.0,0.0,0.0,0.0,0.0,0.0,0.0,0.0,-6.025,-6.1535,-6.3294,-6.4647,-6.4986,-6.4309,-6.0622,-5.822,-5.663,0.0,0.0,0.0,0.0,0.0,0.0,0.0,0.0,0.0,0.0,0.0,0.0,0.0,0.0,0.0,0.0,0.0,0.0,0.0,0.0,0.0,0.0,0.0,0.0,0.0,-5.531,-5.4769,0.0,0.0,0.0,0.0,0.0,0.0,0.0,0.0,0.0,0.0,0.0,0.0,-5.3484,-6.025,-6.5121,-6.6474,-6.6068,-6.5358,-6.4478,-6.3159,-6.0892,-5.7408,-5.3213,-4.8984,0.0,0.0,0.0,0.0,0.0,0.0,0.0,0.0,0.0,0.0,0.0,0.0,0.0,0.0,0.0,0.0,0.0,0.0,0.0,0.0,0.0,0.0,0.0,0.0,0.0,0.0,0.0,0.0,0.0,0.0,0.0,0.0,-4.2117,-4.1745,0.0,0.0,0.0,0.0,0.0,0.0,0.0,0.0,0.0,0.0,0.0,0.0,0.0,-6.6284,-6.4152,-6.4812,-6.5358,-6.5696,-6.9586,-7.1244,-7.0973,-7.1785,-7.2462,-7.2969,-7.2394,0.0,-6.1366,-5.9539,0.0,0.0,0.0,0.0,0.0,0.0,0.0,0.0,0.0,0.0,0.0,0.0,0.0,0.0,0.0,0.0,0.0,0.0,0.0,0.0,0.0,0.0,-6.0655,-6.0216,-6.0351,-5.9911,0.0,-5.1522,-4.5838,-4.3064,-4.0527,0.0,0.0,0.0,0.0,0.0,0.0,0.0,-5.5716,-6.1197,-6.4918,-6.5764,-6.5764,-6.5121,-6.3768,-6.2888,-6.1332,-5.8896,-5.575,-5.257,-4.9357,-4.4485,0.0,0.0,0.0,0.0,0.0,0.0,0.0,0.0,0.0,0.0,0.0,0.0,0.0,0.0,0.0,0.0,0.0,0.0,0.0,0.0,0.0,0.0,0.0,0.0,0.0,0.0,0.0,0.0,0.0,-4.0629,-4.3775,-4.2997,-4.3978,-4.3775,0.0,0.0,0.0,0.0,0.0,0.0,0.0,0.0,0.0,-7.0963,-7.1469,-7.0456,-6.8076,-6.9693,-7.077,-7.1244,-7.4052,-7.5439,-7.554,-7.5879,-7.6183,-7.6521,-7.6521,-7.3984,-6.9553,-6.5527,-6.1434,-5.7442,0.0,0.0,0.0,0.0,-5.4093,-5.4465,-5.7712,-5.8863,0.0,-5.7577,0.0,0.0,0.0,0.0,0.0,0.0,0.0,0.0,0.0,0.0,-6.211,-6.3463,-6.3768,-6.3599,-6.2922,-5.866,-5.3518,0.0,-4.6752,-4.435,-3.958,0.0,0.0,0.0,0.0,0.0,-5.6292,-6.0994,-6.4275,-6.4986,-6.4715,-6.4208,-6.3565,-6.2448,-6.1163,-5.9708,-5.7239,-5.4702,-5.2131,-4.8173,-4.4485,0.0,0.0,0.0,0.0,0.0,0.0,0.0,0.0,0.0,0.0,0.0,0.0,0.0,0.0,0.0,0.0,0.0,0.0,0.0,0.0,0.0,0.0,0.0,0.0,0.0,0.0,0.0,0.0,-4.2861,-4.5872,-4.4694,-4.6583,-4.6786,0.0,0.0,0.0,0.0,0.0,0.0,-4.6849,-5.894,-6.7838,-7.2306,-7.3461,-7.3257,-7.1582,-7.3443,-7.4728,-7.5506,-7.6826,-7.7739,-7.828,-7.8483,-7.8551,-7.8551,-7.8551,-7.7705,-7.5879,-7.0669,-6.6203,-6.2482,-6.0452,-5.8863,-5.7949,-5.9979,-6.0486,-6.0757,-6.485,-6.6136,-6.5628,-6.3632,0.0,-5.8964,-5.4126,0.0,0.0,0.0,0.0,-5.4532,-5.8998,-6.1298,-6.3024,-6.5392,-6.5831,-6.5696,-6.5696,-6.3362,-5.9742,0.0,-5.2875,-5.0576,-4.4993,0.0,0.0,0.0,0.0,-5.4329,-5.7543,-6.1197,-6.3734,-6.4275,-6.3835,-6.3362,-6.299,-6.1941,-6.0892,-5.9877,-5.8287,-5.6393,-5.416,-5.1555,-4.8409,-4.4626,0.0,0.0,0.0,0.0,0.0,0.0,0.0,0.0,0.0,0.0,0.0,0.0,0.0,0.0,0.0,0.0,0.0,0.0,0.0,0.0,0.0,0.0,0.0,0.0,0.0,0.0,0.0,0.0,0.0,-4.7906,-5.1522,0.0,0.0,0.0,0.0,-4.6642,-4.9124,-5.5036,-6.4926,-7.1525,-7.5153,-7.5499,-7.555,-7.5523,-7.5405,-7.6284,-7.7096,-7.7841,-7.8619,-7.9025,-7.9092,-7.9769,-8.0073,-8.0073,-8.0073,-7.9228,-7.7638,-7.4458,-7.1785,-6.9519,-6.7963,-6.688,-6.6136,-6.5561,-6.5797,-6.6508,-6.7455,-6.732,-6.7218,-6.9891,-6.688,-6.1907,-6.0114,-5.7103,0.0,0.0,-5.7983,-6.0216,-6.2651,-6.4377,-6.5696,-6.6542,-6.6203,-6.5696,-6.5696,-6.3362,-6.096,0.0,-5.7408,-5.4702,-5.2164,0.0,-5.1286,-5.2739,-5.4431,-5.69,-6.0622,-6.2516,-6.3531,-6.3565,-6.3531,-6.2956,-6.1535,-6.1332,-6.0655,-5.9167,-5.8964,-5.7915,-5.5647,-5.4126,-5.1522,-4.7736,-4.3267,0.0,0.0,0.0,0.0,0.0,0.0,0.0,0.0,0.0,0.0,0.0,0.0,0.0,0.0,0.0,0.0,0.0,0.0,0.0,0.0,0.0,0.0,0.0,0.0,0.0,0.0,0.0,0.0,-5.2266,-5.5716,0.0,0.0,-5.3948,-5.3009,-5.2579,-5.2649,-5.7642,-6.9083,-7.3509,-7.5731,-7.5696,-7.6313,-7.6564,-7.6454,-7.7705,-7.845,-7.872,-7.9464,-7.9803,-7.9837,-8.0073,-8.0209,-8.0175,-7.9701,-7.8653,-7.7164,-7.5574,-7.4153,-7.2902,-7.1379,-7.0635,-7.0432,-7.0635,-7.0872,-7.1142,-7.1413,-7.1312,-7.0973,-7.0161,-6.776,-6.4952,-6.3463,-6.1738,-6.0554,-6.1535,-6.1704,-6.211,-6.4343,-6.4952,-6.5053,-6.5324,-6.5189,-6.5121,-6.5595,-6.3734,-6.2076,-6.2245,-5.9505,-5.6258,-5.3551,-5.4059,-5.4668,-5.4262,-5.6292,-5.8693,-6.0994,-6.2178,-6.2787,-6.2787,-6.2381,-6.1873,-6.1332,-6.0385,-5.9404,-5.8355,-5.7848,-5.6799,-5.5074,-5.4025,-5.2198,-4.9357,-4.5872,-4.1696,0.0,0.0,0.0,0.0,0.0,0.0,0.0,0.0,0.0,0.0,0.0,0.0,0.0,0.0,0.0,0.0,0.0,0.0,0.0,0.0,0.0,0.0,0.0,0.0,0.0,0.0,-5.5547,-5.6021,-5.9573,-6.14,-5.9945,-5.8667,-5.8349,-5.94,-5.8538,-6.2333,-7.2259,-7.4648,-7.5714,-7.5696,-7.6617,-7.7179,-7.7266,-7.8483,-7.9228,-7.9498,-7.9972,-8.0209,-8.0209,-8.0209,-7.9938,-7.9431,-7.8957,-7.7739,-7.6082,-7.554,-7.5033,-7.4525,-7.351,-7.3138,-7.3206,-7.368,-7.3883,-7.3815,-7.3578,-7.3341,-7.2665,-6.9992,-6.8233,-6.6981,-6.6,-6.5358,-6.5087,-6.5595,-6.4816,-6.4174,-6.5358,-6.5155,-6.4613,-6.4613,-6.441,-6.4444,-6.5155,-6.3599,-6.2178,-6.2685,-6.052,-5.7949,-5.575,-5.6562,-5.7137,-5.5886,-5.7611,-5.9471,-6.0723,-6.1332,-6.1806,-6.2347,-6.1501,-6.0892,-6.0892,-5.9268,-5.8051,-5.7543,-5.6359,-5.5211,-5.4191,-5.3203,-5.1663,-4.9639,-4.644,-4.2712,-3.8525,0.0,0.0,0.0,0.0,0.0,0.0,0.0,0.0,0.0,0.0,0.0,0.0,0.0,0.0,0.0,0.0,0.0,0.0,0.0,0.0,0.0,0.0,0.0,-4.8984,-5.4905,-5.9133,-5.9201,-6.3091,-6.5256,-6.3863,-6.396,-6.4872,-6.679,-6.701,-6.9595,-7.5391,-7.5675,-7.573,-7.5709,-7.6487,-7.7266,-7.7976,-7.8754,-7.9498,-8.0209,-8.0209,-8.0175,-8.0175,-8.0141,-7.9329,-7.7942,-7.7908,-7.6623,-7.4627,-7.4559,-7.4559,-7.4593,-7.4593,-7.4593,-7.4627,-7.4593,-7.4593,-7.4458,-7.368,-7.2969,-7.1988,-6.9823,-6.8571,-6.7929,-6.7929,-6.7929,-6.7895,-6.7861,-6.732,-6.6576,-6.5797,-6.5087,-6.4546,-6.4546,-6.4005,-6.3666,-6.441,-6.2821,-6.1264,-6.1298,-6.0622,-5.981,-5.9099,-5.8998,-5.8761,-5.8017,-5.8558,0.0,-6.0013,-6.0114,-6.0655,-6.2144,-6.0926,-6.0047,-6.0047,-5.8017,-5.6765,-5.6767,-5.4702,-5.3442,-5.3314,-5.183,-5.0272,-4.868,-4.4974,-4.2065,-3.9948,0.0,0.0,0.0,0.0,0.0,0.0,0.0,0.0,0.0,0.0,0.0,0.0,0.0,0.0,0.0,0.0,0.0,0.0,0.0,0.0,0.0,0.0,-5.3213,-5.3078,-5.7442,-6.1467,-6.3599,-6.6406,-6.8427,-6.9107,-6.827,-6.835,-6.9908,-7.2035,-7.3992,-7.5588,-7.5737,-7.5689,-7.5709,-7.6995,-7.7773,-7.7976,-7.9261,-8.0006,-8.0209,-8.0209,-7.9938,-7.9397,-7.8855,-7.8077,-7.713,-7.6014,-7.5202,-7.4525,-7.3443,-7.3308,-7.3781,-7.3781,-7.4119,-7.4559,-7.3984,-7.3781,-7.3612,-7.236,-7.1785,-7.1345,-6.9654,-6.8944,-6.8774,-6.8774,-6.8368,-6.7793,-6.7252,-6.6203,-6.5053,-6.4309,-6.3565,-6.299,-6.299,-6.2854,-6.2888,-6.3666,-6.2042,-6.0588,-6.1197,-5.9776,-5.8423,-5.822,-5.866,-5.893,-5.8727,-5.8896,0.0,-6.0013,-6.0114,-6.0047,-5.9945,-5.9066,-5.849,-5.849,-5.6968,-5.5994,-5.5921,-5.4306,-5.3614,-5.4138,-5.213,-5.0523,-4.9558,-4.6956,-4.4898,0.0,0.0,0.0,0.0,0.0,0.0,0.0,0.0,0.0,0.0,0.0,0.0,0.0,0.0,0.0,0.0,0.0,0.0,0.0,0.0,0.0,0.0,-5.3788,-5.7848,-5.866,-6.1569,-6.4478,-6.6846,-6.8842,-7.0343,-7.1209,-7.1063,-7.106,-7.1259,-7.402,-7.5669,-7.5709,-7.5709,-7.5709,-7.5709,-7.6893,-7.7671,-7.7976,-7.916,-7.9735,-7.9735,-7.9735,-7.9194,-7.8179,-7.7739,-7.6758,0.0,-7.4525,-7.3781,-7.3206,-7.2631,-7.2665,0.0,0.0,0.0,0.0,0.0,-7.3037,-7.2868,-7.1718,-7.1109,-7.0601,-6.9079,-6.8402,-6.8199,-6.8504,-6.8267,-6.776,-6.7015,-6.5967,-6.4816,-6.3768,-6.2956,-6.2381,-6.2381,-6.2381,-6.2516,-6.2956,-6.1772,-6.0655,-6.0757,-5.9742,0.0,-5.7983,-5.8254,-5.8423,-5.8118,-5.8355,-5.8693,-5.9133,-5.9167,-5.9235,-5.9438,-5.8524,-5.8165,-5.8832,-5.6918,0.0,0.0,0.0,-5.2762,-5.2497,-5.1155,0.0,0.0,0.0,0.0,0.0,0.0,0.0,0.0,-4.4646,-4.4386,0.0,0.0,0.0,0.0,0.0,0.0,0.0,0.0,0.0,0.0,0.0,0.0,0.0,0.0,0.0,0.0,-5.7611,-6.1467,-6.4309,-6.6068,-6.759,-6.8944,-7.0398,-7.1289,-7.131,-7.2493,-7.2873,-7.1902,-7.4208,-7.5709,-7.5709,0.0,0.0,0.0,0.0,-7.7063,-7.7705,-7.8483,-7.8855,-7.8855,-7.8855,-7.8077,-7.6657,-7.6555,-7.5371,-7.3341,-7.3274,-7.2563,-7.1481,-7.2056,-7.2293,-7.2293,-7.236,-7.236,-7.2293,-7.2293,-7.2293,-7.2157,-7.1345,0.0,0.0,-6.8267,-6.7354,-6.6948,-6.759,-6.7793,-6.759,-6.6779,-6.6068,-6.5222,-6.3768,-6.2888,-6.2381,-6.2381,-6.2381,-6.2381,-6.2381,-6.1806,-6.1061,-6.025,-6.0047,-5.9539,-5.8118,-5.7949,-5.778,-5.7036,-5.7476,-5.7881,-5.7881,-5.7881,-5.8355,-5.9607,0.0,0.0,-5.9909,-5.7547,-5.6602,-5.8148,-5.4882,-5.2165,-5.0426,-5.0389,-5.0381,-5.0271,-5.1059,-5.2197,-5.3607,-5.4399,-5.5207,-5.5831,-4.8366,-4.7452,0.0,0.0,0.0,0.0,0.0,0.0,0.0,0.0,0.0,0.0,0.0,0.0,0.0,0.0,0.0,-5.5615,-5.9945,-6.3463,-6.5222,-6.732,-6.8774,-6.9079,-7.0398,-7.1312,-7.1295,-7.1564,-7.2565,-7.4674,-7.5391,-7.5709,-7.5709,-7.5709,0.0,-7.4566,-7.5473,-7.598,-7.6149,-7.6927,-7.7333,-7.7333,0.0,0.0,-7.5033,-7.4424,-7.3578,-7.2563,-7.1988,-7.1921,-7.2157,-7.1718,-7.1515,-7.1582,-7.2157,-7.2056,-7.1515,-7.1515,-7.1515,-7.1345,-6.9992,-6.9417,-6.9045,-6.7523,-6.6914,-6.6846,-6.6981,-6.7015,0.0,-6.5392,-6.4918,-6.4478,-6.299,-6.2516,-6.2381,-6.2381,-6.2381,-6.2381,-6.2381,-6.1806,-6.1061,-6.025,-5.9641,-5.893,-5.8051,-5.8389,-5.8558,-5.778,-5.7814,-5.7881,-5.7881,-5.7881,-5.778,-5.7476,-5.774,-5.8114,-5.8452,-5.8012,-5.8065,-5.8951,-5.7676,-5.6181,-5.4539,-5.5067,-5.5097,-5.4458,-5.5244,-5.5794,-5.6124,-5.6895,-5.7703,-5.8414,-5.5528,-5.4742,0.0,0.0,0.0,0.0,0.0,0.0,0.0,0.0,0.0,0.0,0.0,-4.5466,-4.8477,0.0,-5.6089,-5.9099,-6.2415,-6.4986,-6.6102,-6.7557,-6.8639,-6.9045,-7.0398,-7.1278,-7.132,-7.1283,-7.2498,-7.5466,-7.5716,-7.5703,-7.5709,-7.4999,-7.4559,-7.4445,-7.4559,-7.4762,-7.5168,-7.554,-7.5743,-7.5743,-7.5743,-7.4965,-7.351,-7.3105,-7.2563,-7.1853,-7.1481,-7.1515,-7.1819,-7.1447,-7.1312,-7.1345,-7.1718,-7.1616,-7.1312,-7.1312,-7.1075,-7.0601,-6.9485,-6.8842,-6.8301,-6.7184,-6.6812,-6.6812,-6.6812,-6.6812,-6.6508,-6.5019,-6.4613,-6.4275,-6.2787,-6.2381,-6.2381,-6.2381,-6.2381,-6.2381,-6.2381,-6.211,-6.1501,-6.0317,-5.981,-5.9201,-5.8084,-5.8186,-5.8321,-5.7949,-5.7881,-5.7881,-5.7881,-5.8246,-5.8216,-5.7446,-5.8457,-5.9207,-5.9207,-5.9616,-5.9697,-5.9219,-5.8835,-5.807,-5.6859,-5.7189,-5.7409,-5.7409,-5.7813,-5.8194,-5.8621,-5.9024,-5.9612,-6.0382,-5.9575,-5.9208,0.0,0.0,0.0,0.0,0.0,0.0,0.0,0.0,-4.2692,-4.6616,-4.824,-5.0067,-5.3687,-5.6664,-5.9438,-6.2178,-6.4343,-6.5967,-6.6711,-6.7455,-6.8166,-6.8842,-7.0341,-7.13,-7.1277,-7.1308,-7.2523,-7.5506,-7.5722,-7.5445,-7.4891,-7.4107,-7.3815,-7.4153,-7.3578,-7.3578,-7.4187,-7.4187,-7.4187,-7.4187,-7.4187,-7.3477,-7.2191,-7.2191,-7.1853,-7.1312,-7.1312,-7.1312,-7.1312,-7.1312,-7.1312,-7.1312,-7.1312,-7.1312,-7.1312,-7.1312,-7.0838,-7.0094,-6.935,-6.8571,-6.7793,-6.7049,-6.6812,-6.6812,-6.6812,-6.6812,-6.6508,-6.5019,-6.4613,-6.4275,-6.2787,-6.2381,-6.2381,-6.2381,-6.2381,-6.2381,-6.2381,-6.2381,-6.1941,-6.0385,-6.0114,-5.9641,-5.8152,-5.8029,-5.8065,-5.7918,-5.8029,-5.8137,-5.8137,-5.884,-5.9077,-5.8458,-5.9564,-6.0386,-6.0392,-6.1141,-6.1043,-5.9758,-5.9661,-5.9391,-5.8731,-5.8547,-5.8841,-5.9625,-5.9661,-6.0052,-6.086,-6.086,-6.119,-6.1851,-6.1998,-6.1998,-3.7506,-3.6941,-3.8261,-4.0798,-4.2049,-4.4079,0.0,0.0,-5.1352,-5.3213,-5.5209,-5.6799,-5.7306,-5.9336,-6.1467,-6.3125,-6.4681,-6.5967,-6.6711,-6.7455,-6.8039,-6.8353,-7.01,-7.131,-7.1322,-7.131,-7.2527,-7.5472,-7.5722,-7.4546,-7.1935,-7.3319,-7.3735,-7.2699,-7.2563,-7.2563,-7.2665,-7.2665,-7.2665,-7.2665,-7.2665,-7.2225,-7.1447,-7.1447,-7.1379,-7.1312,-7.1312,-7.1312,-7.1312,-7.1312,-7.1312,-7.1312,-7.1312,-7.1312,-7.1312,-7.1312,-7.0838,-7.0094,-6.935,-6.8571,-6.7793,-6.7049,-6.6812,-6.6812,-6.6812,-6.6812,-6.6508,-6.5019,-6.4613,-6.4275,-6.2787,-6.2381,-6.2381,-6.2381,-6.2381,-6.2381,-6.2381,-6.2381,-6.1941,-6.0385,-6.0114,-5.9641,-5.8152,-5.8494,-5.8703,-5.8027,-5.8494,-5.8977,-5.8977,-5.9736,-6.0211,-6.0117,-6.0302,-6.0413,-6.0382,-6.1153,-6.152,-6.1337,-6.1337,-6.13,-6.119,-6.0529,-6.0529,-6.13,-6.1337,-6.1741,-6.2523,-6.2523,-6.2585,-6.2695,-6.3466,-6.3392,-4.2354,-4.2523,0.0,0.0,-4.7767,-5.0033,-5.2976,-5.3991,-5.4837,-5.6765,-5.8254,-5.9302,-5.9776,-6.1704,-6.3429,0.0,-6.5392,-6.644,-6.6779,-6.6711,-6.7066,-6.8142,-6.854,-6.9369,-7.112,-7.13,-7.183,-7.3058,-7.4725,-7.4827,-7.2679,-7.3147,-7.3105,-7.2428,-7.1988,-7.1751,-7.1751,-7.1751,-7.1751,-7.1751,-7.1751,-7.1616,-7.1312,-7.1312,-7.1312,-7.1312,-7.1312,-7.1312,-7.1312,-7.1312,-7.1312,-7.1312,-7.1312,-7.1312,-7.1278,-7.0804,-7.0195,-6.9451,-6.8673,-6.7895,-6.7218,-6.6914,-6.6812,-6.6812,-6.6812,-6.6812,-6.6508,-6.5019,-6.4613,-6.4275,-6.2787,-6.2381,-6.2381,-6.2381,-6.2381,-6.2381,-6.2381,-6.2381,-6.1941,-6.0385,-6.0114,-5.9641,-5.8152,-5.8564,-5.9011,-5.8668,-5.9311,-5.9864,-5.9864,-6.058,-6.1293,-6.1778,-6.0973,-6.0574,-6.1068,-6.097,-6.0896,-6.0896,-6.1337,-6.1594,-6.1594,-6.1741,-6.1961,-6.2291,-6.2291,-6.2475,-6.278,-6.3319,-6.3576,-6.3576,-6.442,-6.4604,-4.5297,0.0,0.0,-4.983,-5.2503,-5.4905,-5.5649,-5.6562,-5.7712,-5.9302,-6.008,-6.0655,-6.1467,-6.2922,-6.414,-6.4546,-6.5662,-6.6576,-6.6779,-6.617,-6.6076,-6.715,-6.6659,-6.7193,-6.9795,-7.0836,-7.1312,-7.13,-7.3276,-7.4228,-7.3535,-7.2993,-7.2507,-7.2124,-7.1582,-7.1312,-7.1312,-7.1312,-7.1312,-7.1312,-7.1312,-7.1312,-7.1312,-7.1312,-7.1312,-7.1312,-7.1312,-7.1312,-7.1312,-7.1312,-7.1312,-7.1312,-7.1312,-7.1176,-7.0906,-7.0161,-6.9553,-6.8977,-6.8166,-6.7421,-6.6812,-6.6812,-6.6812,-6.6812,-6.6812,-6.6812,-6.6542,-6.5256,-6.4749,-6.4309,-6.3024,-6.255,-6.2381,-6.2381,-6.2381,-6.2381,-6.2381,-6.2381,-6.1941,-6.0385,-6.0114,-5.9682,-5.8447,-5.8909,-5.9541,-5.9765,-6.0514,-6.0967,-6.076,-6.1436,-6.2057,-6.2425,-6.1433,-6.0856,-6.1215,-6.075,-6.0419,-6.0419,-6.1153,-6.1594,-6.1594,-6.2365,-6.278,-6.278,-6.3062,-6.3172,-6.3172,-6.4016,-6.442,-6.4457,-6.5264,-6.5632,0.0,0.0,-5.0541,-5.2807,-5.5581,-5.7949,-5.8693,-6.0047,-6.1163,-6.1231,-6.1264,-6.1501,-6.2212,-6.2415,-6.2922,-6.4377,-6.5222,-6.5967,-6.6711,-6.617,-6.5452,-6.4814,-6.4701,-6.5256,0.0,-6.9591,-7.1287,-7.1312,-7.1367,-7.2032,-7.3402,-7.279,-7.209,-7.1379,-7.1312,-7.1312,-7.1312,-7.1312,-7.1312,-7.1312,-7.1312,-7.1312,-7.1312,-7.1312,-7.1312,-7.1312,-7.1312,-7.1312,-7.1312,-7.1312,-7.1312,-7.1312,-7.1312,-7.0872,-7.0128,-6.9417,-6.9113,-6.8977,-6.8166,-6.7421,-6.6812,-6.6812,-6.6812,-6.6812,-6.6812,-6.6812,-6.6643,-6.5865,-6.5155,-6.4444,-6.3666,-6.2956,-6.2381,-6.2381,-6.2381,-6.2381,-6.2381,-6.2381,-6.1941,-6.0385,-6.0114,-5.9871,-5.9184,-5.98,-6.061,-6.14,-6.2219,-6.2464,-6.1659,-6.2271,-6.2487,-6.1704,-6.1569,-6.1239,-6.0493,-6.0419,-6.0419,-6.0419,-6.1153,-6.1594,-6.1594,-6.2365,-6.278,-6.278,-6.3613,-6.4053,-6.4053,-6.4861,-6.5264,-6.5301,-6.6109,-6.6476,0.0,0.0,-5.3721,-5.6461,-5.866,-6.0351,-6.1095,-6.1264,-6.1298,-6.1298,-6.008,-5.9099,-5.937,-5.981,-6.0655,-6.2178,-6.3835,-6.5392,-6.6643,-6.617,-6.5425,-6.4701,-6.3761,0.0,0.0,0.0,0.0,-7.1151,-7.0411,-7.0456,-7.1932,-7.183,-7.1582,-7.1312,-7.1312,-7.1312,-7.1312,-7.1312,-7.1312,-7.1312,-7.1312,-7.1312,-7.1312,-7.1312,-7.1312,-7.1312,-7.1312,-7.1312,-7.1312,-7.1312,-7.1312,-7.1278,-7.077,-7.0398,-7.0026,-6.8774,-6.8301,-6.8199,-6.7455,-6.7015,-6.6812,-6.6812,-6.6812,-6.6812,-6.6812,-6.6812,-6.6643,-6.5899,-6.5155,-6.4444,-6.37,-6.2956,-6.2381,-6.2381,-6.2381,-6.2381,-6.2381,-6.2381,-6.2076,-6.1095,-6.0944,-6.0733,-6.0013,-6.0622,-6.1492,-6.2271,-6.2654,-6.2705,-6.2402,-6.2618,-6.267,-6.2438,-6.1924,-6.1484,-6.1227,-6.0713,-6.0419,-6.0419,-6.1153,-6.1594,-6.1594,-6.2365,-6.278,-6.278,-6.3649,-6.409,-6.409,-6.5448,-6.6109,-6.6109,-6.6916,-6.7283,-5.0845,-5.3687,-5.6427,-5.9133,-6.0757,-6.1738,-6.1941,-6.1637,-6.1129,-6.0588,-5.8457,-5.6799,-5.707,-5.6393,-5.6833,-5.9979,-6.167,-6.3497,-6.6068,-6.5764,-6.5331,-6.5352,-6.3613,0.0,0.0,0.0,0.0,-6.9538,-6.9316,-6.961,-7.0692,-7.0872,-7.1041,-7.1312,-7.1312,-7.1312,-7.1312,-7.1312,-7.1312,-7.1312,-7.1312,-7.1312,-7.1312,-7.1312,-7.1312,-7.1312,-7.1312,-7.1312,-7.1312,-7.1312,-7.1142,-7.0872,-7.0398,-6.9857,-6.9248,-6.8267,-6.7726,-6.7455,-6.6981,-6.6812,-6.6812,-6.6812,-6.6812,-6.6812,-6.6812,-6.6812,-6.6711,-6.6237,-6.5358,-6.4478,-6.4038,-6.3159,-6.2381,-6.2381,-6.2381,-6.2381,-6.2381,-6.2381,-6.2178,-6.1434,-6.1373,-6.1259,-6.0799,-6.1438,-6.2182,-6.273,-6.278,-6.278,-6.278,-6.278,-6.278,-6.278,-6.2365,-6.2034,-6.2034,-6.13,-6.0823,-6.0823,-6.13,-6.1594,-6.1594,-6.2365,-6.278,-6.278,-6.3649,-6.4237,-6.453,-6.5852,-6.6659,-6.6953,-6.7467,-6.7687,-5.4194,-5.6393,-5.8592,-6.0858,-6.1873,-6.2144,-6.14,-6.1197,-6.0689,-5.9099,-5.6427,-5.4566,0.0,0.0,-5.2029,-5.7848,-5.9032,-6.0723,-6.5053,-6.5121,-6.521,0.0,0.0,0.0,0.0,0.0,0.0,-6.666,0.0,-6.9184,-6.9701,-6.9982,-7.0466,-7.1244,-7.1312,-7.1312,-7.1312,-7.1312,-7.1312,-7.1312,-7.1312,-7.1312,-7.1312,-7.1312,-7.1312,-7.1312,-7.1312,-7.1312,-7.1312,-7.1278,-7.0838,-7.0195,-7.0094,-6.918,-6.7895,-6.7861,-6.7421,-6.6812,-6.6812,-6.6812,-6.6812,-6.6812,-6.6812,-6.6812,-6.6812,-6.6812,-6.6812,-6.6812,-6.573,-6.4613,-6.4613,-6.3497,-6.2381,-6.2381,-6.2381,-6.2381,-6.2381,-6.242,-6.2256,-6.1545,-6.1483,-6.1568,-6.1608,-6.2285,-6.278,-6.278,-6.278,-6.278,-6.278,-6.278,-6.278,-6.278,-6.278,-6.278,-6.278,-6.2108,-6.1667,-6.1667,-6.1667,-6.1667,-6.1667,-6.2401,-6.278,-6.278,-6.3649,-6.4494,-6.5301,-6.6109,-6.6916,-6.7687,-6.7687,-6.7687,-5.7137,-5.9133,-6.0858,-6.2516,-6.2245,-6.1366,-6.0588,-5.9573,-5.8186,-5.6122,-5.3348,-5.098,0.0,0.0,0.0,-5.5209,-5.8998,0.0,-6.529,-6.6,0.0,0.0,0.0,-6.3586,-6.2508,-6.3074,0.0,0.0,-6.6542,-6.7794,-6.8634,-6.9137,-6.9722,-7.0466,-7.1007,-7.1312,-7.1312,-7.1312,-7.1312,-7.1312,-7.1312,-7.1312,-7.1312,-7.1312,-7.1312,-7.1312,-7.1312,-7.1312,-7.1278,-7.0703,-7.0364,-7.0094,-6.8944,-6.8233,-6.7827,-6.7286,-6.6981,-6.6812,-6.6812,-6.6812,-6.6812,-6.6812,-6.6812,-6.6812,-6.6812,-6.6812,-6.6812,-6.6812,-6.573,-6.4613,-6.4613,-6.3497,-6.2381,-6.2381,-6.2381,-6.2381,-6.2381,-6.2931,-6.3319,-6.3147,-6.3193,-6.3316,-6.343,-6.309,-6.278,-6.278,-6.278,-6.278,-6.278,-6.278,-6.278,-6.278,-6.278,-6.278,-6.278,-6.2622,-6.2511,-6.2511,-6.2511,-6.2511,-6.2511,-6.2695,-6.278,-6.278,-6.3649,-6.4494,-6.5301,-6.6109,-6.6916,-6.7687,-6.7687,-6.7687,-5.9844,-6.1366,-6.2482,-6.3294,-6.2415,-6.0757,-5.866,-5.7273,-5.5344,-5.1488,-4.8815,0.0,0.0,0.0,0.0,0.0,0.0,0.0,-6.4275,-6.5662,-6.611,0.0,-6.4424,0.0,-6.4275,-6.4302,-6.466,0.0,-6.6362,-6.7184,-6.8079,-6.8393,-6.891,-6.9688,-7.0432,-7.0973,-7.1312,-7.1312,-7.1312,-7.1312,-7.1312,-7.1312,-7.1312,-7.1312,-7.1312,-7.1312,0.0,-7.1142,-7.0804,-7.0364,-6.9789,-6.9079,-6.8233,-6.7692,-6.7387,-6.6948,-6.6812,-6.6812,-6.6812,-6.6812,-6.6812,-6.6812,-6.6812,-6.6812,-6.6812,-6.6812,-6.6896,-6.7291,-6.632,-6.5192,-6.5231,-6.4102,-6.2893,-6.2498,-6.2697,-6.2973,-6.2973,-6.3683,-6.4287,-6.4309,-6.4367,-6.4359,-6.4134,-6.3686,-6.3246,-6.2853,-6.278,-6.278,-6.278,-6.278,-6.278,-6.278,-6.278,-6.278,-6.278,-6.278,-6.278,-6.278,-6.278,-6.278,-6.278,-6.278,-6.278,-6.278,-6.3282,-6.3943,-6.4787,-6.5595,-6.6402,-6.7173,-6.754,-6.7687,-6.2381,-6.3159,-6.3531,-6.3632,-6.2313,-6.0047,-5.6393,-5.4668,-5.2232,-4.6447,0.0,-4.2455,-4.1136,0.0,-4.4282,-4.939,0.0,-5.8626,-6.3057,-6.4816,-6.5921,-6.6698,-6.4573,-6.3978,-6.6559,-6.6779,-6.6821,-6.6792,-6.6792,-6.7082,-6.7726,-6.7861,-6.8301,-6.9214,-6.9857,-7.0534,-7.1312,-7.1312,-7.1312,-7.1312,-7.1312,-7.1312,-7.1312,-7.1312,-7.1278,-7.1176,0.0,0.0,-7.0026,-6.9925,-6.9113,-6.7895,-6.7793,-6.7354,-6.6812,-6.6812,-6.6812,-6.6812,-6.6812,-6.6812,-6.6812,-6.6812,-6.6812,-6.6812,-6.6946,-6.6988,-6.7202,-6.8146,-6.7374,-6.6259,-6.6195,-6.508,-6.3787,-6.2931,-6.3314,-6.3864,-6.3864,-6.4564,-6.5244,-6.5429,-6.5359,-6.5089,-6.4501,-6.4237,-6.3833,-6.3099,-6.2879,-6.278,-6.278,-6.278,-6.278,-6.278,-6.278,-6.278,-6.278,-6.278,-6.278,-6.278,-6.278,-6.278,-6.278,-6.278,-6.278,-6.278,-6.278,-6.3246,-6.409,-6.4897,-6.5705,-6.6512,-6.732,-6.7687,-6.4546,-6.4343,-6.3666,-6.4275,-6.1873,-5.8592,-5.548,-5.23,0.0,0.0,0.0,-3.9681,-3.9411,-4.2016,0.0,-5.027,0.0,0.0,0.0,0.0,-6.5711,0.0,0.0,0.0,0.0,0.0,0.0,0.0,0.0,0.0,-6.6981,-6.7557,-6.8538,-6.9958,-7.0128,-7.0534,-7.1312,-7.1312,-7.1312,-7.1312,-7.1312,-7.1312,-7.1312,-7.1312,-7.0973,-7.0398,-7.0398,0.0,-6.9248,-6.8571,-6.8132,-6.7827,-6.7252,-6.6914,-6.6812,-6.6812,-6.6812,-6.6812,-6.6812,-6.6812,-6.6812,-6.6812,-6.6812,-6.6946,-6.7708,-6.795,-6.8185,-6.9168,-6.8823,-6.7976,-6.7235,-6.6424,-6.5543,-6.4739,-6.4665,-6.4766,-6.4766,-6.549,-6.6361,-6.7103,-6.6692,-6.6233,-6.6082,-6.4971,-6.4053,-6.3906,-6.3282,-6.278,-6.278,-6.278,-6.278,-6.278,-6.278,-6.278,-6.278,-6.278,-6.278,-6.278,-6.278,-6.278,-6.278,-6.278,-6.278,-6.278,-6.278,-6.3246,-6.409,-6.4897,-6.5705,-6.6512,-6.732,-6.7687,-6.529,-6.4884,-6.4072,-6.4038,-6.1501,-5.7746,-5.2807,0.0,0.0,0.0,0.0,-3.64,-3.5644,0.0,0.0,0.0,0.0,0.0,0.0,0.0,0.0,0.0,0.0,0.0,0.0,0.0,0.0,0.0,0.0,0.0,-6.6812,-6.7151,-6.7861,-6.8977,-6.8977,-6.9383,-7.0161,-7.0161,-7.0161,-7.0161,-7.0161,-7.0161,-7.0161,-7.0161,-6.9958,-6.962,-6.962,0.0,-6.8436,-6.8064,-6.7658,-6.7286,-6.6948,-6.6812,-6.6812,-6.6812,-6.712,-6.7541,-6.7541,-6.7866,-6.8297,-6.8297,-6.7945,-6.7622,-6.8068,-6.8572,-6.9168,-7.016,-6.9862,-6.9215,-6.8786,-6.7819,-6.6689,-6.584,-6.5678,-6.5873,-6.6301,-6.6758,-6.7202,-6.7633,-6.7393,-6.699,-6.6549,-6.5852,-6.5191,-6.4787,-6.4016,-6.3466,-6.3466,-6.3099,-6.278,-6.278,-6.278,-6.278,-6.278,-6.278,-6.278,-6.278,-6.278,-6.278,-6.278,-6.3246,-6.3466,-6.3466,-6.3906,-6.431,-6.4714,-6.5521,-6.6329,-6.7136,-6.7944,-6.8531,-6.5392,-6.5155,-6.441,-6.37,-6.0994,-5.6867,-5.0473,-4.6786,0.0,0.0,-3.41,-3.3525,-3.2699,0.0,0.0,0.0,0.0,0.0,0.0,0.0,0.0,0.0,0.0,0.0,0.0,0.0,0.0,0.0,0.0,0.0,-6.6812,-6.6812,-6.7151,-6.7895,-6.7895,-6.8301,-6.9079,-6.9113,-6.9113,-6.9113,-6.9113,-6.9113,-6.9113,-6.9113,-6.9107,-6.9152,-6.8929,0.0,0.0,-6.7928,-6.7588,-6.712,-6.7366,-6.7414,-6.7414,-6.7414,-6.7866,-6.8534,-6.8534,-6.9021,-6.9708,-6.9708,-6.9168,-6.8572,-6.8726,-6.9386,-7.0196,-7.1127,-7.0946,-7.0439,-7.0325,-6.9201,-6.7861,-6.6777,-6.6618,-6.6881,-6.7542,-6.7687,-6.7687,-6.7687,-6.7687,-6.7504,-6.688,-6.6623,-6.6292,-6.5668,-6.4861,-6.4273,-6.4127,-6.3503,-6.3025,-6.2817,-6.278,-6.278,-6.278,-6.278,-6.278,-6.278,-6.278,-6.278,-6.278,-6.3466,-6.3796,-6.3796,-6.4457,-6.4861,-6.5044,-6.6035,-6.6916,-6.7724,-6.8715,-6.9486,-6.5121,-6.5155,-6.441,-6.37,-6.0216,-5.5615,-5.0236,0.0,0.0,-3.5487,-3.2882,-3.1867,-3.3085,-3.4721,0.0,0.0,0.0,0.0,0.0,0.0,0.0,0.0,0.0,0.0,0.0,0.0,0.0,0.0,0.0,0.0,0.0,-6.6812,-6.7151,-6.7895,-6.7895,-6.8301,-6.9079,-6.9113,-6.9113,-6.9113,-6.9113,-6.9113,-6.9113,-6.9113,-6.9194,-6.9302,-6.8387,0.0,0.0,-6.8172,-6.8102,-6.8185,-6.9058,-6.9457,-6.9457,-6.9457,-6.9493,-6.9565,-6.9565,-6.9637,-6.9708,-6.9708,-6.9637,-6.9708,-7.0566,-7.0898,-7.1159,-7.2101,-7.2307,-7.2087,-7.1354,-7.0511,-6.9485,-6.7927,-6.7552,-6.7606,-6.7687,-6.7687,-6.7687,-6.7687,-6.7687,-6.7677,-6.7577,-6.699,-6.6476,-6.6402,-6.5705,-6.4934,-6.42,-6.4016,-6.3686,-6.2853,-6.278,-6.278,-6.278,-6.278,-6.278,-6.278,-6.278,-6.278,-6.278,-6.2879,-6.289,-6.289,-6.2964,-6.3429,-6.42,-6.5742,-6.6916,-6.7751,-6.9265,-7.0027,-6.3632,-6.4174,-6.3666,-6.2482,-5.9471,-5.5279,-4.9411,0.0,-3.9982,-3.5584,-3.2799,-3.1458,-3.2329,-3.3348,-3.5074,-3.8207,-4.0065,-4.3814,0.0,0.0,0.0,0.0,0.0,0.0,0.0,0.0,0.0,0.0,0.0,0.0,0.0,-6.6812,-6.6948,-6.7252,-6.7252,-6.7387,-6.7726,-6.7726,-6.7726,-6.7726,-6.8295,-6.8554,-6.8554,-6.9194,-6.9488,-6.9549,-6.9136,0.0,0.0,-6.9095,-6.9095,-6.9131,-6.953,-6.9708,-6.9708,-6.9708,-7.0058,-7.0535,-7.0535,-7.0898,-7.1386,-7.1386,-7.1386,-7.1354,-7.1159,-7.1511,-7.2011,-7.2409,-7.2496,-7.2422,-7.2129,-7.1064,-6.9816,-6.8678,-6.8054,-6.7687,-6.7687,-6.7687,-6.7687,-6.7687,-6.7687,-6.7687,-6.7687,-6.743,-6.721,-6.721,-6.6549,-6.5925,-6.5595,-6.5118,-6.4677,-6.4347,-6.3404,-6.278,-6.278,-6.278,-6.278,-6.278,-6.278,-6.3062,-6.3576,-6.4053,-6.453,-6.5007,-6.5999,-6.6659,-6.699,-6.8128,-6.9082,-6.9889,-7.0513,-7.1064,-6.2014,-6.3024,-6.2821,-6.1332,-5.8332,-5.4258,0.0,0.0,-3.9317,-3.5272,-3.2706,-3.1346,-3.1786,-3.2519,-3.3505,-3.5033,-3.7025,-4.0654,-4.7194,0.0,0.0,0.0,0.0,0.0,0.0,0.0,0.0,0.0,0.0,0.0,0.0,-6.7243,-6.7078,-6.6812,-6.6812,-6.6812,-6.6812,-6.7112,-6.7243,-6.7243,-6.8185,-6.8648,-6.8685,-6.935,-6.9849,-7.0127,0.0,0.0,0.0,-7.0092,-7.0092,-7.0162,-7.0434,-7.0535,-7.0535,-7.0535,-7.0966,-7.1511,-7.1511,-7.1951,-7.2496,-7.2496,-7.2496,-7.238,-7.1732,-7.1981,-7.2496,-7.2496,-7.2496,-7.2459,-7.2202,-7.1138,-6.9889,-6.9082,-6.8274,-6.7687,-6.7687,-6.7687,-6.7687,-6.7687,-6.7687,-6.7687,-6.7687,-6.7687,-6.7687,-6.7687,-6.721,-6.6769,-6.6512,-6.5999,-6.5558,-6.5338,-6.4237,-6.3514,-6.3514,-6.3319,-6.3282,-6.3514,-6.3514,-6.3833,-6.442,-6.5007,-6.5705,-6.6476,-6.7614,-6.8421,-6.8898,-6.9706,-7.0513,-7.1293,-7.1541,-7.1982,-6.0472,-6.1839,-6.2042,-6.0486,-5.6645,-5.2019,0.0,-4.2393,-3.7763,-3.434,-3.2341,-3.1312,-3.1733,-3.2503,-3.341,-3.4376,-3.7958,-4.1913,-4.5529,0.0,0.0,0.0,0.0,0.0,0.0,0.0,0.0,0.0,0.0,0.0,0.0,-6.8189,-6.7747,-6.6812,-6.6812,-6.6812,-6.6812,-6.7708,-6.8189,-6.8189,-6.9205,-6.9708,-6.9708,-6.9708,-7.023,0.0,0.0,0.0,0.0,-7.1095,-7.1095,-7.1191,-7.2101,-7.2467,-7.2467,-7.2467,-7.2467,-7.2467,-7.2467,-7.2496,-7.2496,-7.2496,-7.2496,-7.2496,-7.2496,-7.2496,-7.2496,-7.2496,-7.2496,-7.2312,-7.1541,-7.0697,-6.9889,-6.9082,-6.8274,-6.7687,-6.7687,-6.7687,-6.7687,-6.7687,-6.7687,-6.7687,-6.7687,-6.7687,-6.7687,-6.7687,-6.7687,-6.7393,-6.6586,-6.6476,-6.6182,-6.5411,-6.5301,-6.5264,-6.5264,-6.453,-6.442,-6.5228,-6.5264,-6.5301,-6.5301,-6.5301,-6.5705,-6.6476,-6.6512,-6.732,-6.8898,-6.9706,-7.0513,-7.1293,-7.2129,-7.2496,-5.4144,-5.5462,-5.592,-5.4721,-5.2265,-4.9132,-4.5258,-4.1709,-3.8298,-3.5182,-3.298,-3.186,-3.2614,-3.2712,-3.404,-3.8143,-4.0131,0.0,0.0,0.0,0.0,0.0,0.0,0.0,0.0,0.0,0.0,0.0,0.0,0.0,0.0,-6.9205,-6.9058,-6.8795,-6.8795,-6.8795,-6.8795,-6.9093,-6.9205,-6.9241,-7.0194,-7.0668,-7.0668,-7.1323,0.0,0.0,0.0,0.0,0.0,-7.2041,-7.2041,-7.2071,-7.2409,-7.2496,-7.2496,-7.2496,-7.2496,-7.2496,-7.2496,-7.2496,-7.2496,-7.2496,-7.2496,-7.2496,-7.2496,-7.2496,-7.2496,-7.2496,-7.2496,-7.2459,-7.2202,-7.1541,-7.0734,-6.9926,-6.9119,-6.8385,-6.7797,-6.7687,-6.7687,-6.7687,-6.7687,-6.7687,-6.7687,-6.7687,-6.7687,-6.7687,-6.7687,-6.7614,-6.7357,-6.732,-6.721,-6.6953,-6.6439,-6.5888,-6.5375,-6.5081,-6.5044,-6.5301,-6.5301,-6.5558,-6.6109,-6.6109,-6.6769,-6.8128,-6.8678,-6.9486,-7.0522,-7.1358,-7.1872,-7.2129,-7.2386,-7.221,0.0,-5.1822,-5.2521,-5.1598,-4.9486,-4.6815,-4.375,-4.0649,-3.7685,-3.5082,-3.3243,-3.2298,-3.306,-3.3219,-3.4386,-3.796,-3.9912,0.0,0.0,0.0,0.0,0.0,0.0,0.0,0.0,0.0,0.0,0.0,0.0,0.0,0.0,0.0,-6.9509,-6.9839,-6.9738,-6.9708,-6.9708,-7.0058,-7.023,-7.0264,-7.1191,-7.1604,-7.1635,-7.2226,0.0,0.0,0.0,0.0,0.0,-7.2496,-7.2496,-7.2496,-7.2496,-7.2496,-7.2496,-7.2496,-7.2496,-7.2496,-7.2496,-7.2496,-7.2496,-7.2496,-7.2496,-7.2496,-7.2496,-7.2496,-7.2496,-7.2496,-7.2496,-7.2496,-7.2496,-7.1908,-7.1101,-7.0293,-6.9486,-6.8678,-6.7871,-6.7687,-6.7687,-6.7687,-6.7687,-6.7687,-6.7687,-6.7687,-6.7687,-6.7687,-6.7687,-6.7687,-6.7687,-6.7687,-6.7687,-6.7687,-6.7247,-6.6733,-6.6256,-6.5925,-6.5888,-6.6182,-6.6219,-6.6439,-6.6916,-6.6953,-6.7577,-6.8862,-6.9706,-7.0477,-7.1284,-7.2092,-7.221,-7.161,-7.1896,-7.161,0.0,-4.9723,-5.0743,-5.0083,-4.7595,-4.4734,-4.2418,-3.9212,0.0,-3.4215,-3.3136,-3.275,-3.3295,-3.3954,-3.4643,-3.5385,-3.8321,0.0,0.0,0.0,0.0,0.0,0.0,0.0,0.0,0.0,0.0,0.0,0.0,0.0,0.0,0.0,-6.9183,-7.0045,-6.9868,-6.9777,-6.9812,-7.0731,-7.1191,-7.1223,-7.2071,-7.2496,-7.2496,-7.2496,0.0,0.0,0.0,0.0,0.0,-7.2496,-7.2496,-7.2496,-7.2496,-7.2496,-7.2496,-7.2496,-7.2496,-7.2496,-7.2496,-7.2496,-7.2496,-7.2496,-7.2496,-7.2496,-7.2496,-7.2496,-7.2496,-7.2496,-7.2496,-7.2496,-7.2496,-7.1945,-7.1174,-7.0293,-6.9522,-6.8752,-6.7871,-6.7687,-6.7687,-6.7687,-6.7687,-6.7687,-6.7687,-6.7687,-6.7687,-6.7687,-6.7687,-6.7687,-6.7687,-6.7687,-6.7687,-6.7687,-6.7687,-6.7687,-6.7687,-6.7026,-6.688,-6.7677,-6.7687,-6.7687,-6.7687,-6.7687,-6.8091,-6.8972,-6.9779,-7.0587,-7.1414,-7.2018,-7.1574,-7.0193,-7.0893,-7.0783,-3.9923,0.0,-4.206,-4.2375,-4.1052,-3.9337,0.0,-3.704,-3.5908,-3.416,0.0,-3.3563,-3.5272,-3.4912,-3.6166,-4.1502,-4.2576,0.0,0.0,0.0,0.0,0.0,0.0,0.0,0.0,0.0,0.0,0.0,0.0,0.0,0.0,0.0,-6.984,-7.011,-7.0062,-7.0294,-7.095,-7.1749,-7.2197,-7.2197,-7.2409,-7.2496,-7.2496,-7.2496,0.0,0.0,0.0,0.0,-7.2496,-7.2496,-7.2496,-7.2496,-7.2496,-7.2496,-7.2496,-7.2496,-7.2496,-7.2496,-7.2496,-7.2496,-7.2496,-7.2496,-7.2496,-7.2496,-7.2496,-7.2496,-7.2496,-7.2496,-7.2496,-7.2496,-7.2496,-7.2349,-7.1872,-7.044,-6.9963,-6.9412,-6.7981,-6.7687,-6.7687,-6.7687,-6.7687,-6.7687,-6.7687,-6.7687,-6.7687,-6.7687,-6.7687,-6.7687,-6.7687,-6.7687,-6.7687,-6.7687,-6.7687,-6.7687,-6.7687,-6.7504,-6.7504,-6.7687,-6.7687,-6.7687,-6.7687,-6.7687,-6.8375,-6.9789,-7.0604,-7.1411,-7.2202,-7.1178,-7.0791,-7.1003,-7.0597,-6.9954,-3.634,-3.8136,-4.0047,-4.0386,-3.9597,-3.8518,-3.7601,-3.6523,0.0,0.0,0.0,-3.3937,-3.5416,-3.5484,0.0,-4.1702,0.0,0.0,0.0,0.0,0.0,0.0,0.0,0.0,0.0,0.0,0.0,0.0,0.0,0.0,0.0,-6.9009,-6.9009,-6.9009,-6.9376,-6.9926,-7.0734,-7.1174,-7.1394,-7.1394,-7.1394,-7.1394,-7.1394,-7.1798,-7.1945,0.0,0.0,0.0,-7.2496,-7.2496,-7.2496,-7.2496,-7.2496,-7.2496,-7.2496,-7.2496,-7.2496,-7.2496,-7.2496,-7.2496,-7.2496,-7.2496,-7.2496,-7.2496,-7.2496,-7.2496,-7.2496,-7.2496,-7.2496,-7.2496,-7.2496,-7.2496,-7.2202,-7.0954,-7.0367,-6.9743,-6.8531,-6.7944,-6.7687,-6.7687,-6.7687,-6.7687,-6.7687,-6.7687,-6.7687,-6.7687,-6.7687,-6.7687,-6.7687,-6.7687,-6.7687,-6.7687,-6.7687,-6.7687,-6.7687,-6.7687,-6.7687,-6.7687,-6.7687,-6.7687,-6.7687,-6.7687,-6.8448,-7.0055,-7.0174,-7.0567,-7.1398,-7.0543,-6.9921,-6.965,-6.9586,-6.9125,-3.5298,-3.8086,-4.0838,-4.0471,-3.9937,-3.9313,-3.8505,0.0,0.0,0.0,0.0,0.0,0.0,0.0,0.0,0.0,0.0,0.0,0.0,0.0,0.0,0.0,0.0,0.0,0.0,0.0,0.0,0.0,0.0,0.0,0.0,-6.7687,-6.7687,-6.7687,-6.8348,-6.9045,-6.9706,-6.9963,-7.011,-7.011,-7.011,-7.011,-7.011,-7.0807,-7.1138,0.0,0.0,0.0,-7.2129,-7.2275,-7.2312,-7.2349,-7.2459,-7.2496,-7.2496,-7.2496,-7.2496,-7.2496,-7.2496,-7.2496,-7.2496,-7.2496,-7.2496,-7.2496,-7.2496,-7.2496,-7.2496,-7.2496,-7.2496,-7.2496,-7.2496,-7.2496,-7.2312,-7.1505,-7.077,-7.0036,-6.9119,-6.8348,-6.7834,-6.7724,-6.7687,-6.7687,-6.7687,-6.7687,-6.7687,-6.7687,-6.7687,-6.7687,-6.7687,-6.7687,-6.7687,-6.7687,-6.7687,-6.7687,-6.7687,-6.7687,-6.7687,-6.7687,-6.7687,-6.7687,-6.7687,-6.7824,-6.8558,-7.0092,-6.932,-6.9348,-7.0271,-6.9921,-6.909,-6.7898,-6.8456,-6.8355,-3.6574,-3.8579,-3.957,-3.7551,-3.7456,-3.7676,-3.6853,-3.6376,0.0,0.0,0.0,0.0,0.0,0.0,0.0,0.0,0.0,0.0,0.0,0.0,0.0,0.0,0.0,0.0,0.0,0.0,0.0,0.0,0.0,0.0,0.0,0.0,-6.7687,-6.7687,-6.7797,-6.7944,-6.8054,-6.9412,-7.011,-7.011,-7.011,-7.011,-7.011,-7.022,-7.0293,0.0,0.0,-7.0477,-7.0513,-7.1211,-7.1505,-7.1578,-7.2239,-7.2496,-7.2496,-7.2496,-7.2496,-7.2496,-7.2496,-7.2496,-7.2496,-7.2496,-7.2496,-7.2496,-7.2496,-7.2496,-7.2496,-7.2496,-7.2496,-7.2496,-7.2496,-7.2496,-7.2312,-7.1505,-7.1211,-7.0734,-6.9229,-6.8788,-6.8495,-6.7834,-6.7687,-6.7687,-6.7687,-6.7687,-6.7687,-6.7687,-6.7687,-6.7687,-6.7687,-6.7687,-6.7687,-6.7687,-6.7687,-6.7687,-6.7687,-6.7687,-6.7687,-6.7687,-6.7687,-6.7687,-6.7687,-6.8355,-6.9135,-7.0099,-6.931,-6.9631,-7.1111,-6.9054,-6.8301,-6.8703,-6.8145,-6.7824,-3.5202,-3.7015,-3.8557,-3.83,-3.9166,-3.98,-3.8664,-3.799,0.0,0.0,0.0,0.0,0.0,0.0,0.0,0.0,0.0,0.0,0.0,0.0,0.0,0.0,0.0,0.0,0.0,0.0,0.0,0.0,0.0,0.0,0.0,0.0,-6.7687,-6.7687,-6.7687,-6.7687,-6.7687,-6.8421,-6.8788,-6.8788,-6.8788,-6.8788,-6.8825,-6.9265,-6.9449,-6.9486,0.0,-7.011,-7.011,-7.0513,-7.066,-7.0734,-7.1541,-7.1872,-7.1908,-7.2349,-7.2496,-7.2496,-7.2496,-7.2496,-7.2496,-7.2496,-7.2496,-7.2496,-7.2496,-7.2496,-7.2496,-7.2496,-7.2496,-7.2496,-7.2496,-7.2496,-7.2422,-7.2055,-7.1651,-7.1101,-7.0367,-6.9853,-6.933,-6.8502,-6.8355,-6.8208,-6.7787,-6.7687,-6.7687,-6.7687,-6.7687,-6.7687,-6.7687,-6.7687,-6.7687,-6.7687,-6.7687,-6.7687,-6.7687,-6.7687,-6.7687,-6.7687,-6.7687,-6.7687,-6.7687,-6.8071,-6.8603,-6.9446,-6.8685,-6.8832,-6.9979,-6.8456,-6.7898,-6.8245,-6.7861,-6.7687,-3.5092,-3.6486,-3.8196,-3.9845,-4.1139,-4.1965,-4.1851,-4.0917,-4.0267,0.0,0.0,0.0,0.0,0.0,0.0,0.0,0.0,0.0,0.0,0.0,0.0,0.0,0.0,0.0,0.0,0.0,0.0,0.0,0.0,0.0,0.0,0.0,-6.7687,-6.7687,-6.7687,-6.7687,-6.7687,-6.7687,-6.7687,-6.7687,-6.7687,-6.7687,-6.7724,-6.8348,-6.8605,-6.8641,-6.9265,-6.9522,-6.9559,-6.9743,-6.9816,-6.9889,-7.0697,-7.1138,-7.1431,-7.2202,-7.2496,-7.2496,-7.2496,-7.2496,-7.2496,-7.2496,-7.2496,-7.2496,-7.2496,-7.2496,-7.2496,-7.2496,-7.2496,-7.2496,-7.2496,-7.2496,-7.2496,-7.2496,-7.2055,-7.1513,-7.1329,-7.0844,-7.0138,-6.9348,-6.9154,-6.897,-6.8375,-6.8238,-6.8265,-6.8282,-6.8108,-6.7998,-6.7998,-6.7824,-6.7687,-6.7687,-6.7687,-6.7687,-6.7687,-6.7687,-6.7687,-6.7687,-6.7687,-6.7687,-6.7687,-6.7687,-6.8071,-6.8877,-6.81,-6.81,-6.8914,-6.8071,-6.7687,-6.7687,-6.7687,-6.7787,-3.8836,-3.9056,-3.9019,-4.0854,-4.1266,-4.2159,-4.5792,-4.5407,-4.4874,-4.7168,0.0,0.0,0.0,0.0,0.0,0.0,0.0,0.0,0.0,0.0,0.0,0.0,0.0,0.0,0.0,0.0,0.0,0.0,0.0,0.0,0.0,0.0,0.0,-6.7687,-6.7687,-6.7687,-6.7687,-6.7687,-6.7687,-6.7687,-6.7687,-6.7687,-6.7687,-6.7787,-6.7797,-6.7797,-6.7834,-6.7898,-6.7907,-6.8678,-6.9009,-6.9082,-6.9853,-7.066,-7.1431,-7.2202,-7.2496,-7.2496,-7.2496,-7.2496,-7.2496,-7.2496,-7.2496,-7.2496,-7.2496,-7.2496,-7.2496,-7.2496,-7.2496,-7.2496,-7.2496,-7.2496,-7.2496,-7.2496,-7.2459,-7.2202,-7.1468,-7.1219,-7.0962,-7.0164,-7.0027,-7.0009,-6.9954,-6.9926,-6.9908,-6.9915,-6.9272,-6.8813,-6.8813,-6.8145,-6.7687,-6.7687,-6.7687,-6.7687,-6.7687,-6.7687,-6.7687,-6.7687,-6.7687,-6.7687,-6.7687,-6.7687,-6.8071,-6.8877,-6.8118,-6.8081,-6.8914,-6.8071,-6.7687,-6.7687,-6.7687,-6.8108,-3.6729,-3.8138,-3.9852,-4.1552,-4.3394,-4.5279,-4.6984,-4.7945,-4.904,-5.0949,-5.1279,0.0,0.0,0.0,0.0,0.0,0.0,0.0,0.0,0.0,0.0,0.0,0.0,0.0,0.0,0.0,0.0,0.0,0.0,0.0,0.0,0.0,0.0,-6.6219,-6.6219,-6.6219,-6.6219,-6.6696,-6.6953,-6.6953,-6.7467,-6.7687,-6.7687,-6.7687,-6.7687,-6.7687,-6.7687,-6.7687,-6.7724,-6.8017,-6.8128,-6.8238,-6.9045,-7.0146,-7.1329,-7.1651,-7.2092,-7.2496,-7.2496,-7.2496,-7.2496,-7.2496,-7.2496,-7.2496,-7.2496,-7.2496,-7.2496,-7.2496,-7.2496,-7.2496,-7.2496,-7.2496,-7.2496,-7.2496,-7.2496,-7.2422,-7.2129,-7.2055,-7.1806,-7.0987,-7.0832,-7.0697,-7.0202,-7.0082,-7.0116,-7.0099,-6.9843,-6.9642,-6.9667,-6.9375,-6.8999,-6.8502,-6.7998,-6.7687,-6.7687,-6.7687,-6.7687,-6.7687,-6.7687,-6.7687,-6.7687,-6.7687,-6.7824,-6.8145,-6.7861,-6.7861,-6.8145,-6.7861,-6.7687,-6.7714,-6.8208,-6.8603,-3.6399,-3.7991,-4.0341,-4.2213,-4.4929,0.0,-4.9913,-5.1417,-5.3004,-5.5354,-5.5684,-5.5611,-5.5904,0.0,0.0,0.0,0.0,0.0,0.0,0.0,0.0,0.0,0.0,0.0,0.0,0.0,0.0,0.0,0.0,0.0,0.0,0.0,0.0,0.0,-6.5301,-6.5301,-6.5301,-6.5852,-6.6109,-6.6145,-6.6953,-6.743,-6.7687,-6.7687,-6.7687,-6.7687,-6.7687,-6.7687,-6.7687,-6.7687,-6.7687,-6.776,-6.8605,-6.9596,-7.0559,-7.0844,-7.1431,-7.2129,-7.2129,-7.2312,-7.2496,-7.2496,-7.2496,-7.2496,-7.2496,-7.2496,-7.2496,-7.2496,-7.2496,-7.2496,-7.2496,-7.2496,-7.2496,-7.2496,-7.2496,-7.2496,-7.2496,-7.2496,-7.232,-7.1786,-7.1684,-7.1513,-7.0938,-7.0852,-7.0865,-7.0865,-7.0653,-7.0482,-7.0478,-7.0257,-6.9788,-6.8997,-6.8419,-6.7998,-6.7714,-6.7687,-6.7687,-6.7687,-6.7687,-6.7687,-6.7687,-6.7687,-6.7687,-6.7687,-6.7687,-6.7687,-6.7687,-6.7687,-6.7824,-6.8071,-6.8666,-6.9154,-3.8909,-3.9276,-4.0487,0.0,0.0,0.0,-5.5354,-5.6235,-5.6785,-6.0823,-5.9722,-5.7813,-5.7005,0.0,0.0,0.0,0.0,0.0,0.0,0.0,0.0,0.0,0.0,0.0,0.0,0.0,0.0,0.0,0.0,0.0,0.0,0.0,0.0,0.0,-6.5301,-6.5301,-6.5301,-6.5301,-6.5301,-6.5301,-6.6109,-6.6916,-6.7687,-6.7687,-6.7687,-6.7687,-6.7687,-6.7687,-6.7687,-6.7687,-6.7687,-6.776,-6.8568,-6.8898,-6.9009,-6.9779,-7.0587,-7.1293,-7.1293,-7.1835,-7.2496,-7.2496,-7.2496,-7.2496,-7.2496,-7.2496,-7.2496,-7.2496,-7.2496,-7.2496,-7.2496,-7.2496,-7.2496,-7.2496,-7.2496,-7.2496,-7.2496,-7.2496,-7.2496,-7.2496,-7.2496,-7.2496,-7.2496,-7.2496,-7.2496,-7.2496,-7.1822,-7.1325,-7.1325,-7.0616,-6.9831,-6.9007,-6.8914,-6.8566,-6.7787,-6.7714,-6.7714,-6.7714,-6.7687,-6.7687,-6.7687,-6.7687,-6.7687,-6.7687,-6.7687,-6.7687,-6.7687,-6.7687,-6.8108,-6.8914,-6.8914,-6.9798,-3.7367,-3.9239,0.0,-4.4599,0.0,0.0,0.0,-5.9171,0.0,0.0,-6.3099,-6.108,-6.0063,0.0,0.0,0.0,0.0,0.0,0.0,0.0,0.0,0.0,0.0,0.0,0.0,0.0,0.0,0.0,0.0,0.0,0.0,0.0,0.0,0.0,-6.3514,-6.3514,-6.3514,-6.4163,-6.4457,-6.4457,-6.5264,-6.6072,-6.688,-6.743,-6.7687,-6.7687,-6.7687,-6.7687,-6.7687,-6.7687,-6.7687,-6.7724,-6.7944,-6.8385,-6.8935,-6.9192,-6.9779,-7.0477,-7.0477,-7.0624,-7.0807,-7.0807,-7.0807,-7.0807,-7.0807,-7.1211,-7.1688,-7.1688,-7.2055,-7.2496,-7.2496,-7.2496,-7.2496,-7.2496,-7.2496,-7.2496,-7.2496,-7.2496,-7.2496,-7.2496,-7.2496,-7.2496,-7.2496,-7.2496,-7.2496,-7.2496,-7.2283,-7.2144,-7.2144,-7.1435,-7.0849,-7.0604,-7.0101,-6.9657,-6.9409,-6.885,-6.8529,-6.8529,-6.7998,-6.7687,-6.7687,-6.7687,-6.7687,-6.7687,-6.7687,-6.7687,-6.7687,-6.7687,-6.8108,-6.8887,-6.9467,-7.0299,-3.9093,-4.1625,0.0,0.0,0.0,-5.6602,-6.13,0.0,0.0,0.0,0.0,0.0,0.0,0.0,0.0,0.0,0.0,0.0,0.0,0.0,0.0,0.0,0.0,0.0,0.0,0.0,0.0,0.0,0.0,0.0,0.0,0.0,0.0,0.0,-6.278,-6.278,-6.278,-6.3319,-6.3576,-6.3576,-6.442,-6.5081,-6.5595,-6.6696,-6.721,-6.7247,-6.754,-6.7687,-6.7687,-6.7687,-6.7687,-6.7687,-6.7687,-6.7981,-6.8421,-6.8421,-6.8935,-6.9633,-6.9633,-6.9816,-7.011,-7.011,-7.011,-7.011,-7.011,-7.044,-7.0844,-7.0816,-7.1403,-7.2018,-7.1998,-7.2247,-7.2496,-7.2496,-7.2496,-7.2496,-7.2496,-7.2496,-7.2496,-7.2496,-7.2496,-7.2496,-7.2496,-7.2496,-7.2496,-7.2496,-7.2496,-7.2496,-7.2496,-7.2071,-7.1647,-7.1325,-7.0872,-7.0441,-7.0128,-6.9633,-6.9394,-6.9382,-6.8914,-6.8666,-6.8666,-6.8035,-6.7687,-6.7687,-6.7687,-6.7687,-6.7687,-6.8035,-6.8566,-6.9382,-7.0209,-7.1003,-4.2433,0.0,0.0,0.0,0.0,0.0,0.0,0.0,0.0,0.0,0.0,0.0,0.0,0.0,0.0,0.0,0.0,0.0,0.0,0.0,0.0,0.0,0.0,0.0,0.0,0.0,0.0,0.0,0.0,0.0,0.0,0.0,0.0,-6.289,-6.2842,-6.278,-6.278,-6.278,-6.278,0.0,-6.3613,-6.398,-6.4016,-6.5632,-6.6402,-6.6439,-6.7247,-6.7577,-6.7577,-6.765,-6.7687,-6.7687,-6.7687,-6.7687,-6.7687,-6.7687,-6.8164,-6.8788,-6.8788,-6.9265,-6.9889,-6.9889,-6.9889,-6.9889,-6.9889,-6.9926,-7.0,-7.0017,-7.0596,-7.1211,-7.1178,-7.1786,-7.2393,-7.2393,-7.2459,-7.2496,-7.2496,-7.2496,-7.2496,-7.2496,-7.2496,-7.2496,-7.2496,-7.2496,-7.2496,-7.2496,-7.2496,-7.2496,-7.2496,-7.2496,-7.221,-7.15,-7.1398,-7.1113,-7.0368,-7.0229,-7.0218,-7.0182,-7.0136,-7.0099,-7.0099,-6.8713,-6.7898,-6.7898,-6.7898,-6.7898,-6.7898,-6.8666,-6.9419,-7.0246,-7.0962,-7.1749,0.0,-4.4764,0.0,0.0,0.0,0.0,0.0,0.0,0.0,0.0,0.0,0.0,0.0,0.0,0.0,0.0,0.0,0.0,0.0,0.0,0.0,0.0,0.0,0.0,0.0,0.0,0.0,0.0,0.0,0.0,0.0,0.0,0.0,-6.3796,-6.3172,-6.278,-6.278,-6.278,-6.278,0.0,-6.2989,-6.3099,-6.3135,-6.4824,-6.5558,-6.5595,-6.6402,-6.6769,-6.6806,-6.743,-6.7687,-6.7687,-6.7687,-6.7687,-6.7687,-6.7687,-6.7797,-6.7944,-6.7944,-6.8054,-6.8201,-6.8201,-6.8201,-6.8201,-6.8201,-6.8678,-6.9165,-6.9137,-6.9713,-7.036,-7.0368,-7.0938,-7.1574,-7.1574,-7.2034,-7.2496,-7.2496,-7.2496,-7.2496,-7.2496,-7.2496,-7.2496,-7.2496,-7.2496,-7.2496,-7.2496,-7.2496,-7.2496,-7.2496,-7.2496,-7.2459,-7.2247,-7.2247,-7.2173,-7.1998,-7.1398,-7.1032,-7.1044,-7.0474,-7.0088,-7.0088,-6.9752,-6.9556,-6.9556,-6.9556,-6.9556,-6.9556,-6.9767,-7.0275,-7.1044,-7.1207,-7.1749,0.0,0.0,0.0,0.0,0.0,0.0,0.0,0.0,0.0,0.0,0.0,0.0,0.0,0.0,0.0,0.0,0.0,0.0,0.0,0.0,0.0,0.0,0.0,0.0,0.0,0.0,0.0,0.0,0.0,0.0,0.0,-6.2842,-6.2842,-6.2879,-6.2842,-6.278,-6.278,-6.278,-6.278,-6.278,-6.278,-6.278,-6.2817,-6.4127,-6.4934,-6.5338,-6.5742,-6.6145,-6.6512,-6.6953,-6.7357,-6.7687,-6.7687,-6.7687,-6.7687,-6.7687,-6.7687,-6.7687,-6.7687,-6.7687,-6.7687,-6.7687,-6.7687,-6.7687,-6.7687,-6.7981,-6.8348,-6.8348,-6.888,-6.9513,-6.9513,-7.011,-7.0725,-7.071,-7.161,-7.2496,-7.2496,-7.2496,-7.2496,-7.2496,-7.2496,-7.2496,-7.2496,-7.2496,-7.2496,-7.2496,-7.2496,-7.2496,-7.2496,-7.2496,-7.2496,-7.2496,-7.2496,-7.2496,-7.2496,-7.2108,-7.1859,-7.1859,-7.15,-7.1252,-7.1252,-7.1267,-7.0882,-7.0138,-7.0101,-7.0101,-7.0101,-7.0496,-7.0881,-7.1325,-7.1712,-7.2108,0.0,0.0,0.0,0.0,0.0,0.0,0.0,0.0,0.0,0.0,0.0,0.0,0.0,0.0,0.0,0.0,0.0,0.0,0.0,0.0,0.0,0.0,0.0,0.0,0.0,0.0,0.0,0.0,0.0,0.0,-6.163,-6.2218,-6.2291,-6.163,-6.2254,-6.2548,-6.2377,-6.2401,-6.2475,-6.2585,-6.2732,-6.278,-6.2817,-6.3539,-6.4237,-6.4897,-6.5044,-6.5485,-6.6109,-6.6256,-6.6769,-6.7467,-6.7467,-6.7577,-6.7687,-6.7687,-6.7687,-6.7687,-6.7687,-6.7687,-6.7687,-6.7687,-6.7687,-6.7687,-6.7687,-6.7687,-6.7687,-6.7687,-6.8208,-6.8703,-6.8703,-6.9272,-6.9898,-6.9896,-7.1118,-7.2296,-7.2283,-7.2283,-7.232,-7.2459,-7.2496,-7.2496,-7.2496,-7.2496,-7.2496,-7.2496,-7.2496,-7.2496,-7.2496,-7.2496,-7.2496,-7.2496,-7.2496,-7.2496,-7.2496,-7.2496,-7.2496,-7.2496,-7.2496,-7.2496,-7.2496,-7.2496,-7.1859,-7.0543,-7.0506,-7.0506,-7.0543,-7.1186,-7.15,-7.1537,-7.221,-7.2496,0.0,0.0,0.0,0.0,0.0,0.0,0.0,0.0,0.0,0.0,0.0,0.0,0.0,0.0,0.0,0.0,0.0,0.0,0.0,0.0,0.0,0.0,0.0,0.0,0.0,0.0,0.0,0.0,0.0,0.0,-6.1594,-6.1704,-6.1704,-6.1594,-6.1704,-6.1447,-6.075,-6.0713,-6.108,-6.1777,-6.2475,-6.278,-6.278,-6.289,-6.3,-6.3209,-6.3943,-6.431,-6.4457,-6.5191,-6.5925,-6.6659,-6.6659,-6.71,-6.7687,-6.7687,-6.7687,-6.7687,-6.7687,-6.7687,-6.7687,-6.7687,-6.7687,-6.7687,-6.7687,-6.7687,-6.7687,-6.7687,-6.7787,-6.7861,-6.7861,-6.8456,-6.9061,-6.9044,-7.0283,-7.1453,-7.1448,-7.1464,-7.1647,-7.2357,-7.2496,-7.2496,-7.2496,-7.2496,-7.2496,-7.2496,-7.2496,-7.2496,-7.2496,-7.2496,-7.2496,-7.2496,-7.2496,-7.2496,-7.2496,-7.2496,-7.2496,-7.2496,-7.2496,-7.2496,-7.2496,-7.2496,-7.2393,-7.221,-7.221,-7.221,-7.221,-7.2283,-7.232,-7.232,-7.2459,-7.2496,-4.1609,-4.8122,0.0,0.0,0.0,0.0,0.0,0.0,0.0,0.0,0.0,0.0,0.0,0.0,0.0,0.0,0.0,0.0,0.0,0.0,0.0,0.0,0.0,0.0,0.0,0.0,0.0,0.0,0.0,-6.1594,-6.1594,-6.2034,-6.1851,-6.097,-6.1374,-6.119,-6.0419,-6.0419,-6.0786,-6.1594,-6.1961,-6.2365,-6.278,-6.278,-6.278,-6.2817,-6.3209,-6.3649,-6.4127,-6.4494,-6.5375,-6.6512,-6.6512,-6.699,-6.7687,-6.7687,-6.7687,-6.7687,-6.7687,-6.7687,-6.7687,-6.7687,-6.7687,-6.7687,-6.7687,-6.7687,-6.7687,-6.7687,-6.7687,-6.7687,-6.7687,-6.7961,-6.8245,-6.8245,-6.9125,-7.0082,-7.0556,-7.1325,-7.2071,-7.2459,-7.2496,-7.2496,-7.2496,-7.2496,-7.2496,-7.2496,-7.2496,-7.2496,-7.2496,-7.2496,-7.2496,-7.2496,-7.2496,-7.2496,-7.2496,-7.2496,-7.2496,-7.2496,-7.2496,-7.2496,-7.2496,-7.2496,-7.2496,-7.2496,-7.2496,-7.2496,-7.2496,-7.2496,-7.2496,-7.2496,-7.2496,-7.2496,-4.2359,-4.7058,-5.0839,0.0,0.0,0.0,0.0,0.0,0.0,0.0,0.0,0.0,0.0,0.0,0.0,0.0,0.0,0.0,0.0,0.0,0.0,0.0,0.0,0.0,0.0,0.0,0.0,0.0,0.0,-6.152,-6.13,-6.2071,-6.1851,-6.0456,-6.097,-6.0896,-6.0126,-6.0126,-6.0419,-6.1006,-6.119,-6.1704,-6.2511,-6.2511,-6.2622,-6.278,-6.278,-6.3172,-6.3759,-6.3759,-6.4604,-6.5925,-6.6109,-6.6696,-6.7393,-6.7614,-6.7687,-6.7687,-6.7687,-6.7687,-6.7687,-6.7687,-6.7687,-6.7687,-6.7687,-6.7687,-6.7687,-6.7687,-6.7687,-6.7687,-6.7687,-6.7861,-6.7998,-6.7998,-6.8777,-6.9659,-7.0307,-7.15,-7.2496,-7.2496,-7.2496,-7.2496,-7.2496,-7.2496,-7.2496,-7.2496,-7.2496,-7.2496,-7.2496,-7.2496,-7.2496,-7.2496,-7.2496,-7.2496,-7.2496,-7.2496,-7.2496,-7.2496,-7.2496,-7.2496,-7.2496,-7.2496,-7.2496,-7.2496,-7.2496,-7.2496,-7.2496,-7.2496,-7.2496,-7.2496,-7.2496,-7.2496,-3.6611,-4.0341,0.0,0.0,0.0,0.0,0.0,0.0,0.0,0.0,0.0,0.0,0.0,0.0,0.0,0.0,0.0,0.0,0.0,0.0,0.0,0.0,0.0,0.0,0.0,0.0,0.0,0.0,0.0,-6.1263,-6.0493,-6.1227,-6.1263,-6.0419,-6.0456,-6.0089,-5.9258,-5.9258,-5.9258,-5.9331,-6.0126,-6.0896,-6.1667,-6.1667,-6.2071,-6.278,-6.278,-6.2817,-6.2879,-6.2879,-6.3392,-6.431,-6.5081,-6.5852,-6.6659,-6.7393,-6.7687,-6.7687,-6.7687,-6.7687,-6.7687,-6.7687,-6.7687,-6.7687,-6.7687,-6.7687,-6.7687,-6.7687,-6.7687,-6.7687,-6.7687,-6.8282,-6.8813,-6.8813,-7.0015,-7.1185,-7.1228,-7.1896,-7.2496,-7.2496,-7.2496,-7.2496,-7.2496,-7.2496,-7.2496,-7.2496,-7.2496,-7.2496,-7.2496,-7.2496,-7.2496,-7.2496,-7.2496,-7.2496,-7.2496,-7.2496,-7.2496,-7.2496,-7.2496,-7.2496,-7.2496,-7.2496,-7.2496,-7.2496,-7.2496,-7.2496,-7.2496,-7.2496,-7.2496,-7.2496,-7.2496,-7.2496,-3.5693,-3.8689,0.0,0.0,0.0,0.0,0.0,0.0,0.0,0.0,0.0,0.0,0.0,0.0,0.0,0.0,0.0,0.0,0.0,0.0,0.0,0.0,0.0,0.0,0.0,0.0,0.0,0.0,0.0,0.0,-6.1924,-6.2218,-6.1998,-6.119,-6.1153,-6.0529,-5.9184,-5.8694,-5.8694,-5.9184,-5.9478,-6.0309,-6.1594,-6.1594,-6.2034,-6.278,-6.278,-6.278,-6.278,-6.278,-6.3319,-6.4163,-6.5007,-6.5778,-6.6586,-6.7393,-6.7687,-6.7687,-6.7687,-6.7687,-6.7687,-6.7687,-6.7687,-6.7687,-6.7687,-6.7687,-6.7687,-6.7687,-6.7687,-6.7824,-6.8319,-6.8703,-6.9154,-7.0183,-7.0881,-7.1423,-7.1953,-7.2283,-7.2496,-7.2496,-7.2496,-7.2496,-7.2496,-7.2496,-7.2496,-7.2496,-7.2496,-7.2496,-7.2496,-7.2496,-7.2496,-7.2496,-7.2496,-7.2496,-7.2496,-7.2496,-7.2496,-7.2496,-7.2496,-7.2496,-7.2496,-7.2496,-7.2496,-7.2496,-7.2496,-7.2496,-7.2496,-7.2496,-7.2496,-7.2496,-7.2496,-7.2496,-3.3587,0.0,0.0,0.0,0.0,0.0,0.0,0.0,0.0,0.0,0.0,0.0,0.0,0.0,0.0,0.0,0.0,0.0,0.0,0.0,0.0,0.0,0.0,0.0,0.0,0.0,0.0,0.0,0.0,0.0,-6.2743,-6.278,-6.2438,-6.163,-6.1594,-6.0823,-5.9221,-5.8694,-5.8547,-5.8804,-5.8804,-5.9648,-6.119,-6.119,-6.1777,-6.278,-6.278,-6.278,-6.278,-6.278,-6.3135,-6.3759,-6.4861,-6.5632,-6.6219,-6.7283,-6.7687,-6.7687,-6.7687,-6.7687,-6.7687,-6.7687,-6.7687,-6.7687,-6.7687,-6.7687,-6.7687,-6.7687,-6.7898,-6.8245,-6.8777,-6.9301,-7.0027,-7.1382,-7.1712,-7.1859,-7.2357,-7.2496,-7.2496,-7.2496,-7.2496,-7.2496,-7.2496,-7.2496,-7.2496,-7.2496,-7.2496,-7.2496,-7.2496,-7.2496,-7.2496,-7.2496,-7.2496,-7.2496,-7.2496,-7.2496,-7.2496,-7.2496,-7.2496,-7.2496,-7.2496,-7.2496,-7.2496,-7.2496,-7.2496,-7.2496,-7.2496,-7.2496,-7.2496,-7.2496,-7.2496,-7.2496,0.0,0.0,0.0,0.0,0.0,0.0,0.0,0.0,0.0,0.0,0.0,0.0,0.0,0.0,0.0,0.0,0.0,0.0,0.0,0.0,0.0,0.0,0.0,0.0,0.0,0.0,0.0,0.0,0.0,-6.278,-6.278,-6.278,-6.2438,-6.1667,-6.1594,-6.086,-5.9294,-5.9221,-5.8804,-5.8033,-5.7997,-5.8841,-6.0419,-6.0419,-6.13,-6.278,-6.278,-6.278,-6.278,-6.278,-6.278,-6.2964,-6.4677,-6.5301,-6.5485,-6.71,-6.7687,-6.7687,-6.7687,-6.7687,-6.7687,-6.7687,-6.7687,-6.7687,-6.7687,-6.7687,-6.7687,-6.7687,-6.8282,-6.8914,-6.8961,-7.0146,-7.1537,-7.232,-7.2496,-7.2496,-7.2496,-7.2496,-7.2496,-7.2496,-7.2496,-7.2496,-7.2496,-7.2496,-7.2496,-7.2496,-7.2496,-7.2496,-7.2496,-7.2496,-7.2496,-7.2496,-7.2496,-7.2496,-7.2496,-7.2496,-7.2496,-7.2496,-7.2496,-7.2496,-7.2496,-7.2496,-7.2496,-7.2496,-7.2496,-7.2496,-7.2496,-7.2496,-7.2496,-7.2496,-7.2496,-7.2496,-3.0136,0.0,0.0,0.0,0.0,0.0,0.0,0.0,0.0,0.0,0.0,0.0,0.0,0.0,0.0,0.0,0.0,0.0,0.0,0.0,0.0,0.0,0.0,0.0,0.0,0.0,0.0,0.0,-6.278,-6.278,-6.278,-6.278,-6.267,-6.2475,-6.1887,-6.1374,-6.0933,-5.9795,-5.9074,-5.8854,-5.829,-5.8841,-6.0419,-6.0419,-6.13,-6.278,-6.278,-6.278,-6.278,-6.278,-6.278,-6.2964,-6.4677,-6.5301,-6.5485,-6.71,-6.7687,-6.7687,-6.7687,-6.7687,-6.7687,-6.7687,-6.7687,-6.7687,-6.7687,-6.7687,-6.7687,-6.7687,-6.8282,-6.9154,-7.0339,-7.1411,-7.221,-7.2459,-7.2496,-7.2496,-7.2496,-7.2496,-7.2496,-7.2496,-7.2496,-7.2496,-7.2496,-7.2496,-7.2496,-7.2496,-7.2496,-7.2496,-7.2496,-7.2496,-7.2496,-7.2496,-7.2496,-7.2496,-7.2496,-7.2496,-7.2496,-7.2496,-7.2496,-7.2496,-7.2496,-7.2496,-7.2496,-7.2496,-7.2496,-7.2496,-7.2496,-7.2496,-7.2496,-7.2496,-7.2496,-7.2496,-3.1384,-3.2362,0.0,0.0,0.0,0.0,0.0,0.0,0.0,0.0,0.0,0.0,0.0,0.0,0.0,0.0,0.0,0.0,0.0,0.0,0.0,0.0,0.0,0.0,0.0,0.0,0.0,-6.2291,-6.2291,-6.2438,-6.278,-6.278,-6.278,-6.278,-6.2365,-6.1924,-6.1594,-6.0676,-5.9869,-5.9184,-5.8731,-5.9171,-6.0419,-6.0419,-6.13,-6.278,-6.278,-6.278,-6.278,-6.278,-6.278,-6.2964,-6.4677,-6.5301,-6.5485,-6.71,-6.7687,-6.7687,-6.7687,-6.7687,-6.7687,-6.7687,-6.7687,-6.7687,-6.7687,-6.7687,-6.7687,-6.7687,-6.8531,-6.9788,-7.1382,-7.2144,-7.2496,-7.2496,-7.2496,-7.2496,-7.2496,-7.2496,-7.2496,-7.2496,-7.2496,-7.2496,-7.2496,-7.2496,-7.2496,-7.2496,-7.2496,-7.2496,-7.2496,-7.2496,-7.2496,-7.2496,-7.2496,-7.2496,-7.2496,-7.2496,-7.2496,-7.2496,-7.2496,-7.2496,-7.2496,-7.2496,-7.2496,-7.2496,-7.2496,-7.2496,-7.2496,-7.2496,-7.2496,-7.2496,-7.2496,-7.2496,-3.3537,-3.4073,-3.5826,-3.9046,0.0,0.0,-4.7242,-4.468,0.0,0.0,0.0,0.0,0.0,0.0,0.0,0.0,0.0,0.0,0.0,0.0,0.0,0.0,0.0,0.0,0.0,-6.0346,-6.0713,-6.141,-6.1557,-6.1924,-6.2658,-6.2743,-6.278,-6.278,-6.278,-6.2475,-6.1741,-6.163,-6.0896,-5.9478,-5.9368,-5.9758,-6.0529,-6.0529,-6.1374,-6.278,-6.278,-6.278,-6.278,-6.278,-6.278,-6.2964,-6.4677,-6.5301,-6.5485,-6.71,-6.7687,-6.7687,-6.7687,-6.7687,-6.7687,-6.7687,-6.7687,-6.7687,-6.7687,-6.7687,-6.7751,-6.7898,-6.9008,-7.0441,-7.2071,-7.2496,-7.2496,-7.2496,-7.2496,-7.2496,-7.2496,-7.2496,-7.2496,-7.2496,-7.2496,-7.2496,-7.2496,-7.2496,-7.2496,-7.2496,-7.2496,-7.2496,-7.2496,-7.2496,-7.2496,-7.2496,-7.2496,-7.2496,-7.2496,-7.2496,-7.2496,-7.2496,-7.2496,-7.2496,-7.2496,-7.2496,-7.2496,-7.2496,-7.2496,-7.2496,-7.2496,-7.2496,-7.2496,-7.2496,-7.2496,-7.2496,-3.6831,-3.5996,-3.5659,-3.6793,0.0,0.0,0.0,-3.8302,0.0,0.0,0.0,0.0,0.0,0.0,0.0,0.0,0.0,0.0,0.0,0.0,0.0,0.0,0.0,0.0,0.0,-6.0015,-6.0456,-6.0639,-6.1227,-6.1667,-6.1814,-6.2438,-6.278,-6.278,-6.278,-6.2707,-6.2585,-6.1924,-6.1447,-6.1117,-6.0493,-6.0603,-6.1374,-6.1374,-6.1887,-6.278,-6.278,-6.278,-6.278,-6.278,-6.278,-6.2964,-6.4677,-6.5301,-6.5485,-6.71,-6.7687,-6.7687,-6.7687,-6.7687,-6.7687,-6.7687,-6.7687,-6.7687,-6.7687,-6.7687,-6.7961,-6.9272,-6.9889,-7.0441,-7.2071,-7.2496,-7.2496,-7.2496,-7.2496,-7.2496,-7.2496,-7.2496,-7.2496,-7.2496,-7.2496,-7.2496,-7.2496,-7.2496,-7.2496,-7.2496,-7.2496,-7.2496,-7.2496,-7.2496,-7.2496,-7.2496,-7.2496,-7.2496,-7.2496,-7.2496,-7.2496,-7.2496,-7.2496,-7.2496,-7.2496,-7.2496,-7.2496,-7.2496,-7.2496,-7.2496,-7.2496,-7.2496,-7.2496,-7.2496,-7.2496,-7.2496,-3.8753,-3.7995,-3.7838,-3.7571,0.0,0.0,0.0,0.0,0.0,0.0,0.0,0.0,0.0,0.0,0.0,0.0,0.0,0.0,0.0,0.0,0.0,0.0,0.0,0.0,0.0,-5.8364,-5.8951,-5.9758,-6.0566,-6.1006,-6.1006,-6.1777,-6.2218,-6.2218,-6.2585,-6.278,-6.278,-6.2401,-6.1998,-6.1594,-6.119,-6.119,-6.1594,-6.1594,-6.2034,-6.278,-6.278,-6.278,-6.278,-6.278,-6.278,-6.2964,-6.4677,-6.5301,-6.5474,-6.7126,-6.7687,-6.7687,-6.7687,-6.7687,-6.7687,-6.7687,-6.7687,-6.7687,-6.7687,-6.7687,-6.8035,-6.9657,-7.0101,-7.0441,-7.2071,-7.2496,-7.2496,-7.2496,-7.2496,-7.2496,-7.2496,-7.2496,-7.2496,-7.2496,-7.2496,-7.2496,-7.2496,-7.2496,-7.2496,-7.2496,-7.2496,-7.2496,-7.2496,-7.2496,-7.2496,-7.2496,-7.2496,-7.2496,-7.2496,-7.2496,-7.2496,-7.2496,-7.2496,-7.2496,-7.2496,-7.2496,-7.2496,-7.2496,-7.2496,-7.2496,-7.2496,-7.2496,-7.2496,-7.2496,-7.2496,-7.2496,0.0,0.0,0.0,0.0,0.0,-4.1604,0.0,0.0,0.0,-4.0963,0.0,0.0,0.0,0.0,0.0,0.0,0.0,0.0,0.0,0.0,0.0,0.0,0.0,0.0,0.0,-5.5978,-5.6675,-5.8597,-5.9061,-5.9538,-6.0162,-6.0933,-6.1447,-6.1594,-6.2218,-6.2658,-6.278,-6.278,-6.2475,-6.1814,-6.1814,-6.1814,-6.1851,-6.1998,-6.2438,-6.3062,-6.3062,-6.3062,-6.3062,-6.2879,-6.278,-6.2927,-6.4468,-6.5143,-6.5489,-6.6916,-6.7577,-6.7687,-6.7687,-6.7687,-6.7687,-6.7687,-6.7687,-6.7687,-6.7687,-6.7687,-6.8035,-6.9657,-7.0101,-7.0441,-7.2071,-7.2496,-7.2496,-7.2496,-7.2496,-7.2496,-7.2496,-7.2496,-7.2496,-7.2496,-7.2496,-7.2496,-7.2496,-7.2496,-7.2496,-7.2496,-7.2496,-7.2496,-7.2496,-7.2496,-7.2496,-7.2496,-7.2496,-7.2496,-7.2496,-7.2496,-7.2496,-7.2496,-7.2496,-7.2496,-7.2496,-7.2496,-7.2496,-7.2496,-7.2496,-7.2496,-7.2496,-7.2496,-7.2496,-7.2496,-7.2496,-7.2496,0.0,0.0,0.0,0.0,-4.5083,0.0,0.0,0.0,-3.7888,-3.9009,0.0,0.0,0.0,0.0,0.0,0.0,0.0,0.0,0.0,0.0,0.0,0.0,0.0,0.0,0.0,0.0,-5.3812,-5.6859,-5.5831,-5.6345,-5.9184,-6.0126,-6.086,-6.1557,-6.1704,-6.2071,-6.278,-6.278,-6.2743,-6.2658,-6.2658,-6.2658,-6.2695,-6.3466,-6.387,-6.3943,-6.3943,-6.3943,-6.387,-6.3135,-6.278,-6.289,-6.3855,-6.4677,-6.5415,-6.6313,-6.7083,-6.7687,-6.7687,-6.7687,-6.7687,-6.7687,-6.7687,-6.7687,-6.7687,-6.7687,-6.8035,-6.9657,-7.0101,-7.0441,-7.2071,-7.2496,-7.2496,-7.2496,-7.2496,-7.2496,-7.2496,-7.2496,-7.2496,-7.2496,-7.2496,-7.2496,-7.2496,-7.2496,-7.2496,-7.2496,-7.2496,-7.2496,-7.2496,-7.2496,-7.2496,-7.2496,-7.2496,-7.2496,-7.2496,-7.2496,-7.2496,-7.2496,-7.2496,-7.2496,-7.2496,-7.2496,-7.2496,-7.2496,-7.2496,-7.2496,-7.2496,-7.2496,-7.2496,-7.2496,-7.2496,-7.2496,0.0,0.0,0.0,0.0,0.0,0.0,-3.9302,0.0,-3.8456,0.0,0.0,0.0,0.0,0.0,0.0,0.0,0.0,0.0,0.0,0.0,0.0,0.0,0.0,0.0,0.0,0.0,0.0,0.0,0.0,-5.4693,-5.7005,-5.8767,-6.0089,-6.0896,-6.1374,-6.1998,-6.278,-6.278,-6.278,-6.278,-6.278,-6.3062,-6.3576,-6.3906,-6.4347,-6.4787,-6.4787,-6.453,-6.409,-6.4189,-6.3957,-6.3651,-6.4474,-6.4977,-6.5444,-6.6759,-6.7403,-6.7687,-6.7687,-6.7687,-6.7687,-6.7687,-6.7687,-6.7687,-6.7687,-6.7687,-6.8035,-6.9657,-7.0101,-7.0441,-7.2071,-7.2496,-7.2496,-7.2496,-7.2496,-7.2496,-7.2496,-7.2496,-7.2496,-7.2496,-7.2496,-7.2496,-7.2496,-7.2496,-7.2496,-7.2496,-7.2496,-7.2496,-7.2496,-7.2496,-7.2496,-7.2496,-7.2496,-7.2496,-7.2496,-7.2496,-7.2496,-7.2496,-7.2496,-7.2496,-7.2496,-7.2496,-7.2496,-7.2496,-7.2496,-7.2496,-7.2496,-7.2496,-7.2496,-7.2496,-7.2496,-7.2496,-4.7201,0.0,0.0,0.0,0.0,0.0,0.0,0.0,0.0,0.0,0.0,0.0,0.0,0.0,0.0,0.0,0.0,0.0,0.0,0.0,0.0,0.0,0.0,0.0,0.0,0.0,0.0,0.0,0.0,0.0,-5.5449,-5.7262,-5.8914,-6.0346,-6.097,-6.1777,-6.278,-6.278,-6.278,-6.278,-6.278,-6.3282,-6.409,-6.431,-6.4861,-6.5632,-6.5632,-6.5301,-6.4776,-6.5158,-6.4963,-6.4485,-6.5299,-6.5607,-6.5766,-6.6932,-6.7504,-6.7687,-6.7687,-6.7687,-6.7687,-6.7687,-6.7687,-6.7687,-6.7687,-6.7861,-6.8319,-6.9694,-7.0248,-7.0755,-7.2144,-7.2496,-7.2496,-7.2496,-7.2496,-7.2496,-7.2496,-7.2496,-7.2496,-7.2496,-7.2496,-7.2496,-7.2496,-7.2496,-7.2496,-7.2496,-7.2496,-7.2496,-7.2496,-7.2496,-7.2496,-7.2496,-7.2496,-7.2496,-7.2496,-7.2496,-7.2496,-7.2496,-7.2496,-7.2496,-7.2496,-7.2496,-7.2496,-7.2496,-7.2496,-7.2496,-7.2496,-7.2496,-7.2496,-7.2496,-7.2496,-7.2496,0.0,0.0,0.0,-5.6219,0.0,0.0,0.0,0.0,-5.0467,0.0,0.0,0.0,0.0,0.0,-3.9255,-3.7749,0.0,0.0,0.0,0.0,0.0,0.0,0.0,0.0,0.0,0.0,0.0,0.0,0.0,0.0,-5.5244,-5.5647,-5.7152,-6.0309,-6.0419,-6.119,-6.278,-6.278,-6.278,-6.278,-6.278,-6.3282,-6.4127,-6.4897,-6.5705,-6.6476,-6.6476,-6.6465,-6.6345,-6.5599,-6.5279,-6.5327,-6.616,-6.6482,-6.6468,-6.6512,-6.7046,-6.7687,-6.7687,-6.7687,-6.7687,-6.7687,-6.7687,-6.7687,-6.7687,-6.8245,-6.9024,-6.9868,-7.0671,-7.1464,-7.2283,-7.2496,-7.2496,-7.2496,-7.2496,-7.2496,-7.2496,-7.2496,-7.2496,-7.2496,-7.2496,-7.2496,-7.2496,-7.2496,-7.2496,-7.2496,-7.2496,-7.2496,-7.2496,-7.2496,-7.2496,-7.2496,-7.2496,-7.2496,-7.2496,-7.2496,-7.2496,-7.2496,-7.2496,-7.2496,-7.2496,-7.2496,-7.2496,-7.2496,-7.2496,-7.2496,-7.2496,-7.2496,-7.2496,-7.2496,-7.2496,-7.2496,0.0,0.0,-5.1566,-5.1558,0.0,0.0,0.0,0.0,0.0,0.0,0.0,0.0,0.0,0.0,-3.9533,-3.8469,-3.7404,0.0,0.0,0.0,0.0,0.0,0.0,0.0,0.0,0.0,0.0,0.0,0.0,0.0,0.0,-5.4436,-5.6822,-5.9538,-6.0126,-6.119,-6.278,-6.278,-6.278,-6.278,-6.278,-6.3539,-6.4897,-6.5191,-6.6035,-6.7283,-6.7283,-6.6979,-6.6492,-6.6786,-6.657,-6.622,-6.7557,-6.8073,-6.801,-6.7494,-6.744,-6.7687,-6.7687,-6.7687,-6.7687,-6.7687,-6.7687,-6.7687,-6.7687,-6.8245,-6.9044,-6.987,-7.0694,-7.15,-7.2283,-7.2496,-7.2496,-7.2496,-7.2496,-7.2496,-7.2496,-7.2496,-7.2496,-7.2496,-7.2496,-7.2496,-7.2496,-7.2496,-7.2496,-7.2496,-7.2496,-7.2496,-7.2496,-7.2496,-7.2496,-7.2496,-7.2496,-7.2496,-7.2496,-7.2496,-7.2496,-7.2496,-7.2496,-7.2496,-7.2496,-7.2496,-7.2496,-7.2496,-7.2496,-7.2496,-7.2496,-7.2496,-7.2496,-7.2496,-7.2496,-7.2496,-5.264,-5.4132,0.0,-5.2548,-4.6904,0.0,-4.212,0.0,0.0,0.0,0.0,0.0,0.0,0.0,-4.0561,-4.0047,-3.8138,-3.5642,0.0,0.0,0.0,0.0,0.0,0.0,0.0,0.0,-4.023,-4.2543,0.0,0.0,0.0,0.0,-5.5684,-5.8694,-5.9832,-6.119,-6.278,-6.278,-6.278,-6.278,-6.278,-6.3661,-6.5301,-6.5301,-6.6182,-6.7687,-6.7687,-6.742,-6.6969,-6.7494,-6.739,-6.7067,-6.8389,-6.8907,-6.8871,-6.8649,-6.8355,-6.8071,-6.7787,-6.7687,-6.7687,-6.7687,-6.7687,-6.7751,-6.8035,-6.8703,-6.9475,-7.0299,-7.1113,-7.1859,-7.2357,-7.2496,-7.2496,-7.2496,-7.2496,-7.2496,-7.2496,-7.2496,-7.2496,-7.2496,-7.2496,-7.2496,-7.2496,-7.2496,-7.2496,-7.2496,-7.2496,-7.2496,-7.2496,-7.2496,-7.2496,-7.2496,-7.2708,-7.2818,-7.2818,-7.2818,-7.2745,-7.2496,-7.2496,-7.2496,-7.2496,-7.2496,-7.2496,-7.2496,-7.2714,-7.2816,-7.2816,-7.305,-7.3119,-7.3119,-7.3119,-7.3119]},{"header":{"parameterUnit":"m.s-1","parameterCategory":1,"la1":30.6,"la2":29.2853,"lo1":-89.7004,"lo2":-87.6739,"dy":0.0162,"dx":0.0183,"nx":112,"ny":82,"refTime":"2026-05-04T00:00:00:Z","depth":0,"parameterNumber":3,"parameterNumberName":"V-component_of_WINDS"},"data":[0.0,0.0,0.0,0.0,0.0,0.0,0.0,0.0,0.0,0.0,0.0,0.0,0.0,0.0,0.0,0.0,0.0,0.0,0.0,0.0,0.0,0.0,0.0,0.0,0.0,0.0,0.0,0.0,0.0,0.0,0.0,0.0,0.0,0.0,0.0,0.0,0.0,0.0,0.0,0.0,0.0,0.0,0.0,0.0,0.0,0.0,0.0,0.0,0.0,0.0,0.0,0.0,0.0,0.0,0.0,0.0,0.0,0.0,0.0,0.0,0.0,0.0,0.0,0.0,0.0,0.0,0.0,0.0,0.0,0.0,0.0,0.0,0.0,0.0,0.0,0.0,0.0,0.0,0.0,0.0,0.0,0.0,0.0,0.0,0.0,0.0,0.0,0.0,0.0,0.0,0.0,-3.1211,-3.4199,-3.5664,-3.4766,-3.457,-3.2734,-2.8555,0.0,0.0,0.0,0.0,0.0,0.0,0.0,0.0,0.0,0.0,0.0,0.0,0.0,0.0,0.0,0.0,0.0,0.0,0.0,0.0,0.0,0.0,0.0,0.0,0.0,0.0,0.0,0.0,0.0,0.0,0.0,0.0,0.0,0.0,0.0,0.0,0.0,0.0,0.0,0.0,0.0,0.0,0.0,0.0,0.0,0.0,0.0,0.0,0.0,0.0,0.0,0.0,0.0,0.0,0.0,0.0,0.0,0.0,0.0,0.0,0.0,0.0,0.0,0.0,0.0,0.0,0.0,0.0,0.0,0.0,0.0,0.0,0.0,0.0,0.0,0.0,0.0,0.0,0.0,0.0,0.0,0.0,0.0,0.0,0.0,0.0,0.0,0.0,0.0,0.0,0.0,0.0,0.0,0.0,0.0,0.0,0.0,0.0,0.0,0.0,0.0,0.0,0.0,0.0,-2.9316,-3.3652,-3.5254,-3.5664,-3.4766,-3.4023,-3.209,-2.8516,0.0,0.0,0.0,0.0,0.0,0.0,0.0,0.0,0.0,0.0,0.0,0.0,0.0,0.0,0.0,0.0,0.0,0.0,0.0,0.0,0.0,0.0,0.0,0.0,0.0,0.0,0.0,0.0,0.0,0.0,0.0,0.0,0.0,0.0,0.0,0.0,0.0,0.0,0.0,0.0,0.0,0.0,0.0,0.0,0.0,0.0,0.0,0.0,0.0,0.0,0.0,0.0,0.0,0.0,0.0,0.0,0.0,0.0,0.0,0.0,0.0,0.0,0.0,0.0,0.0,0.0,0.0,0.0,0.0,0.0,0.0,0.0,0.0,0.0,0.0,0.0,0.0,0.0,0.0,0.0,0.0,0.0,0.0,0.0,0.0,0.0,0.0,0.0,0.0,0.0,0.0,0.0,0.0,0.0,0.0,0.0,0.0,0.0,0.0,0.0,0.0,0.0,0.0,-2.8555,-3.0859,-3.4668,-3.5644,-3.5664,-3.4766,-3.3906,-3.1953,-2.8516,-2.7246,0.0,0.0,0.0,0.0,0.0,0.0,0.0,0.0,0.0,0.0,0.0,0.0,0.0,0.0,0.0,0.0,0.0,0.0,0.0,0.0,0.0,0.0,0.0,0.0,0.0,0.0,0.0,0.0,0.0,0.0,0.0,0.0,0.0,0.0,0.0,0.0,0.0,0.0,0.0,0.0,0.0,0.0,0.0,0.0,0.0,0.0,0.0,0.0,0.0,0.0,0.0,0.0,0.0,0.0,0.0,0.0,0.0,0.0,0.0,0.0,0.0,0.0,0.0,0.0,0.0,0.0,0.0,0.0,0.0,0.0,0.0,0.0,0.0,0.0,0.0,0.0,0.0,0.0,0.0,0.0,0.0,0.0,0.0,0.0,0.0,0.0,0.0,0.0,0.0,0.0,0.0,0.0,0.0,0.0,0.0,0.0,0.0,0.0,0.0,0.0,0.0,0.0,-3.1113,-3.2519,-3.5254,-3.582,-3.5664,-3.4766,-3.3633,-3.1641,-2.8496,-2.6406,0.0,0.0,0.0,0.0,0.0,0.0,0.0,0.0,0.0,0.0,0.0,0.0,0.0,0.0,0.0,0.0,0.0,0.0,0.0,0.0,0.0,0.0,0.0,0.0,0.0,0.0,0.0,0.0,0.0,0.0,0.0,0.0,0.0,0.0,0.0,0.0,0.0,0.0,0.0,0.0,0.0,0.0,0.0,0.0,0.0,0.0,0.0,0.0,0.0,0.0,0.0,0.0,0.0,0.0,0.0,0.0,0.0,0.0,0.0,0.0,0.0,0.0,0.0,0.0,0.0,0.0,0.0,0.0,0.0,0.0,0.0,0.0,0.0,0.0,0.0,0.0,0.0,0.0,0.0,0.0,0.0,0.0,0.0,0.0,0.0,0.0,0.0,0.0,0.0,0.0,0.0,0.0,0.0,0.0,0.0,0.0,0.0,0.0,0.0,0.0,0.0,0.0,-3.1758,-3.3945,-3.5781,-3.5996,-3.5664,-3.4766,-3.2832,-3.0684,-2.8437,-2.5547,0.0,0.0,0.0,0.0,0.0,0.0,0.0,0.0,0.0,0.0,0.0,0.0,0.0,0.0,0.0,0.0,0.0,0.0,0.0,0.0,0.0,0.0,0.0,0.0,0.0,0.0,0.0,0.0,0.0,0.0,0.0,0.0,0.0,0.0,0.0,0.0,0.0,0.0,0.0,0.0,0.0,0.0,0.0,0.0,0.0,0.0,0.0,0.0,0.0,0.0,0.0,0.0,0.0,0.0,0.0,0.0,0.0,0.0,0.0,0.0,0.0,0.0,0.0,0.0,0.0,0.0,0.0,0.0,0.0,0.0,0.0,0.0,0.0,0.0,0.0,0.0,0.0,0.0,0.0,0.0,0.0,0.0,0.0,0.0,0.0,0.0,0.0,0.0,0.0,0.0,0.0,0.0,0.0,0.0,0.0,0.0,0.0,0.0,0.0,0.0,0.0,0.0,-3.1367,-3.3516,0.0,-3.5781,-3.5371,-3.4746,-3.3223,-3.1172,-2.8457,0.0,0.0,0.0,0.0,0.0,0.0,0.0,0.0,0.0,0.0,0.0,0.0,0.0,0.0,0.0,0.0,0.0,0.0,0.0,0.0,0.0,0.0,0.0,0.0,0.0,0.0,0.0,0.0,0.0,0.0,0.0,0.0,0.0,0.0,0.0,0.0,0.0,0.0,0.0,0.0,0.0,0.0,0.0,0.0,0.0,0.0,0.0,0.0,0.0,0.0,0.0,0.0,0.0,0.0,0.0,0.0,0.0,0.0,0.0,0.0,0.0,0.0,0.0,0.0,0.0,0.0,0.0,0.0,0.0,0.0,0.0,0.0,0.0,0.0,0.0,0.0,0.0,0.0,0.0,0.0,0.0,0.0,0.0,0.0,0.0,0.0,0.0,0.0,0.0,0.0,0.0,0.0,0.0,0.0,0.0,0.0,0.0,0.0,0.0,0.0,0.0,0.0,-2.9137,-3.1328,-3.3555,0.0,-3.6055,-3.5664,-3.5351,-3.3887,-3.1641,-2.8496,0.0,0.0,0.0,0.0,0.0,0.0,0.0,0.0,0.0,0.0,0.0,0.0,0.0,0.0,0.0,0.0,0.0,0.0,0.0,0.0,0.0,0.0,0.0,0.0,0.0,0.0,0.0,0.0,0.0,0.0,0.0,0.0,0.0,0.0,0.0,0.0,0.0,0.0,0.0,0.0,0.0,0.0,0.0,0.0,0.0,0.0,0.0,0.0,0.0,0.0,0.0,0.0,0.0,0.0,0.0,0.0,0.0,0.0,0.0,0.0,0.0,0.0,0.0,0.0,0.0,0.0,0.0,0.0,0.0,0.0,0.0,0.0,0.0,0.0,0.0,0.0,0.0,0.0,0.0,0.0,0.0,0.0,0.0,0.0,0.0,0.0,0.0,0.0,0.0,0.0,0.0,0.0,0.0,0.0,0.0,0.0,0.0,0.0,0.0,0.0,0.0,0.0,-2.9196,-3.1855,-3.4453,-3.7031,-3.6934,-3.668,-3.666,-3.4668,-3.1953,0.0,0.0,0.0,0.0,0.0,0.0,0.0,0.0,0.0,0.0,0.0,0.0,0.0,0.0,0.0,0.0,0.0,0.0,0.0,0.0,0.0,0.0,0.0,0.0,0.0,0.0,0.0,0.0,0.0,0.0,0.0,0.0,0.0,0.0,0.0,0.0,0.0,0.0,0.0,0.0,0.0,0.0,0.0,0.0,0.0,0.0,0.0,0.0,0.0,0.0,0.0,0.0,0.0,0.0,0.0,0.0,0.0,0.0,0.0,0.0,0.0,0.0,0.0,0.0,0.0,0.0,0.0,0.0,0.0,0.0,0.0,0.0,0.0,0.0,0.0,0.0,0.0,0.0,0.0,0.0,0.0,0.0,0.0,0.0,0.0,0.0,0.0,0.0,0.0,0.0,0.0,0.0,0.0,0.0,0.0,0.0,0.0,0.0,0.0,0.0,0.0,0.0,0.0,-3.0098,-3.3555,-3.623,-3.7598,-3.7363,-3.6875,-3.6269,-3.4492,-3.1953,-2.8516,0.0,0.0,0.0,0.0,0.0,0.0,0.0,0.0,0.0,0.0,0.0,0.0,0.0,0.0,0.0,0.0,0.0,0.0,0.0,0.0,0.0,0.0,0.0,0.0,0.0,0.0,0.0,0.0,0.0,0.0,0.0,0.0,0.0,0.0,0.0,0.0,0.0,0.0,0.0,0.0,0.0,0.0,0.0,0.0,0.0,0.0,0.0,0.0,0.0,0.0,0.0,0.0,0.0,0.0,0.0,0.0,0.0,0.0,0.0,0.0,0.0,0.0,0.0,0.0,0.0,0.0,0.0,0.0,0.0,0.0,0.0,0.0,0.0,0.0,0.0,0.0,0.0,0.0,0.0,0.0,0.0,0.0,0.0,0.0,0.0,0.0,0.0,0.0,0.0,0.0,0.0,0.0,0.0,0.0,0.0,0.0,0.0,0.0,0.0,0.0,0.0,0.0,-3.0234,-3.3867,-3.668,-3.8047,-3.7812,-3.7344,-3.6816,-3.5508,-3.3027,-2.9043,0.0,0.0,0.0,0.0,0.0,0.0,0.0,0.0,0.0,0.0,0.0,0.0,0.0,0.0,0.0,0.0,0.0,0.0,0.0,0.0,0.0,0.0,0.0,0.0,0.0,0.0,0.0,0.0,0.0,0.0,0.0,0.0,0.0,0.0,0.0,0.0,0.0,0.0,0.0,0.0,0.0,0.0,0.0,0.0,0.0,0.0,0.0,0.0,0.0,0.0,0.0,0.0,0.0,0.0,0.0,0.0,0.0,0.0,0.0,0.0,0.0,0.0,0.0,0.0,0.0,0.0,0.0,0.0,0.0,0.0,0.0,0.0,0.0,0.0,0.0,0.0,0.0,0.0,0.0,0.0,0.0,0.0,0.0,0.0,0.0,0.0,0.0,0.0,0.0,0.0,0.0,0.0,0.0,0.0,0.0,0.0,0.0,0.0,0.0,0.0,0.0,0.0,-2.9941,-3.3437,-3.6406,-3.8418,-3.8281,-3.7988,-3.7871,-3.7051,-3.459,-2.998,0.0,0.0,0.0,0.0,0.0,0.0,0.0,0.0,0.0,0.0,0.0,0.0,0.0,0.0,0.0,0.0,0.0,0.0,0.0,0.0,0.0,0.0,0.0,0.0,0.0,0.0,0.0,0.0,0.0,0.0,0.0,0.0,0.0,0.0,0.0,0.0,0.0,0.0,0.0,0.0,0.0,0.0,0.0,0.0,0.0,0.0,0.0,0.0,0.0,0.0,0.0,0.0,0.0,0.0,0.0,0.0,0.0,0.0,0.0,0.0,-2.8926,0.0,0.0,0.0,0.0,0.0,0.0,0.0,0.0,0.0,0.0,0.0,0.0,0.0,0.0,0.0,0.0,0.0,0.0,0.0,0.0,0.0,0.0,0.0,0.0,0.0,0.0,0.0,0.0,0.0,0.0,0.0,0.0,0.0,0.0,0.0,0.0,0.0,0.0,0.0,0.0,0.0,-3.084,-3.4824,-3.7812,-3.8945,-3.8984,-3.8516,-3.7519,-3.6348,-3.4219,-3.082,-2.7637,0.0,0.0,0.0,0.0,0.0,0.0,0.0,0.0,0.0,0.0,0.0,0.0,0.0,0.0,0.0,0.0,0.0,0.0,0.0,0.0,0.0,0.0,0.0,0.0,0.0,0.0,0.0,0.0,0.0,0.0,0.0,0.0,0.0,0.0,0.0,0.0,0.0,0.0,0.0,0.0,0.0,0.0,0.0,0.0,0.0,0.0,0.0,0.0,0.0,0.0,0.0,0.0,0.0,0.0,0.0,0.0,0.0,0.0,0.0,0.0,-2.998,0.0,0.0,0.0,0.0,0.0,0.0,0.0,0.0,0.0,0.0,0.0,0.0,0.0,0.0,0.0,0.0,0.0,0.0,0.0,0.0,0.0,0.0,0.0,0.0,0.0,0.0,0.0,0.0,0.0,0.0,0.0,0.0,0.0,0.0,0.0,0.0,0.0,0.0,0.0,0.0,-3.0859,-3.4961,-3.7949,-3.8809,-3.8711,-3.8242,-3.7363,-3.6309,-3.459,-3.1973,-2.8945,0.0,0.0,0.0,0.0,0.0,0.0,0.0,0.0,0.0,0.0,0.0,0.0,0.0,0.0,0.0,0.0,0.0,0.0,0.0,0.0,0.0,0.0,0.0,0.0,0.0,0.0,0.0,0.0,0.0,0.0,0.0,0.0,0.0,0.0,0.0,0.0,0.0,0.0,0.0,0.0,0.0,0.0,0.0,0.0,0.0,0.0,0.0,0.0,0.0,0.0,0.0,0.0,0.0,-3.4785,-3.5527,-3.6543,-3.7324,-3.7519,-3.7129,-3.5,-3.3613,-3.2695,0.0,0.0,0.0,0.0,0.0,0.0,0.0,0.0,0.0,0.0,0.0,0.0,0.0,0.0,0.0,0.0,0.0,0.0,0.0,0.0,0.0,0.0,0.0,0.0,0.0,-3.1934,-3.1621,0.0,0.0,0.0,0.0,0.0,0.0,0.0,0.0,0.0,0.0,0.0,0.0,-3.0879,-3.4785,-3.7598,-3.8379,-3.8144,-3.7734,-3.7226,-3.6465,-3.5156,-3.3144,-3.0723,-2.8281,0.0,0.0,0.0,0.0,0.0,0.0,0.0,0.0,0.0,0.0,0.0,0.0,0.0,0.0,0.0,0.0,0.0,0.0,0.0,0.0,0.0,0.0,0.0,0.0,0.0,0.0,0.0,0.0,0.0,0.0,0.0,0.0,-2.4316,-2.4102,0.0,0.0,0.0,0.0,0.0,0.0,0.0,0.0,0.0,0.0,0.0,0.0,0.0,-3.2777,-3.411,-3.6483,-3.7734,-3.793,-4.0176,-4.1133,-4.0976,-4.1445,-4.1836,-4.2129,-4.1797,0.0,-3.543,-3.4375,0.0,0.0,0.0,0.0,0.0,0.0,0.0,0.0,0.0,0.0,0.0,0.0,0.0,0.0,0.0,0.0,0.0,0.0,0.0,0.0,0.0,0.0,-3.5019,-3.4766,-3.4844,-3.459,0.0,-2.9746,-2.6465,-2.4863,-2.3398,0.0,0.0,0.0,0.0,0.0,0.0,0.0,-3.2168,-3.5332,-3.748,-3.7969,-3.7969,-3.7598,-3.6816,-3.6309,-3.541,-3.4004,-3.2187,-3.0351,-2.8496,-2.5684,0.0,0.0,0.0,0.0,0.0,0.0,0.0,0.0,0.0,0.0,0.0,0.0,0.0,0.0,0.0,0.0,0.0,0.0,0.0,0.0,0.0,0.0,0.0,0.0,0.0,0.0,0.0,0.0,0.0,-2.3457,-2.5273,-2.4824,-2.5391,-2.5273,0.0,0.0,0.0,0.0,0.0,0.0,0.0,0.0,0.0,-3.4324,-3.5245,-3.6385,-3.793,-3.9833,-4.0859,-4.1133,-4.2754,-4.3555,-4.3613,-4.3808,-4.3984,-4.418,-4.418,-4.2715,-4.0156,-3.7832,-3.5469,-3.3164,0.0,0.0,0.0,0.0,-3.123,-3.1445,-3.332,-3.3984,0.0,-3.3242,0.0,0.0,0.0,0.0,0.0,0.0,0.0,0.0,0.0,0.0,-3.5859,-3.6641,-3.6816,-3.6719,-3.6328,-3.3867,-3.0898,0.0,-2.6992,-2.5605,-2.2852,0.0,0.0,0.0,0.0,0.0,-3.25,-3.5215,-3.7109,-3.7519,-3.7363,-3.707,-3.6699,-3.6055,-3.5312,-3.4473,-3.3047,-3.1582,-3.0098,-2.7812,-2.5684,0.0,0.0,0.0,0.0,0.0,0.0,0.0,0.0,0.0,0.0,0.0,0.0,0.0,0.0,0.0,0.0,0.0,0.0,0.0,0.0,0.0,0.0,0.0,0.0,0.0,0.0,0.0,0.0,-2.4746,-2.6484,-2.5869,-2.6894,-2.7012,0.0,0.0,0.0,0.0,0.0,0.0,-3.2728,-3.3772,-3.5409,-3.774,-3.865,-3.9776,-4.1328,-4.2402,-4.3144,-4.3594,-4.4355,-4.4883,-4.5195,-4.5312,-4.5351,-4.5351,-4.5351,-4.4863,-4.3808,-4.0801,-3.8223,-3.6074,-3.4902,-3.3984,-3.3457,-3.4629,-3.4922,-3.5078,-3.7441,-3.8184,-3.7891,-3.6738,0.0,-3.4043,-3.125,0.0,0.0,0.0,0.0,-3.1484,-3.4062,-3.5391,-3.6387,-3.7754,-3.8008,-3.793,-3.793,-3.6582,-3.4492,0.0,-3.0527,-2.9274,-2.5977,0.0,0.0,0.0,0.0,-3.1367,-3.3223,-3.5332,-3.6797,-3.7109,-3.6855,-3.6582,-3.6367,-3.5762,-3.5156,-3.457,-3.3652,-3.2559,-3.1269,-2.9766,-2.7949,-2.583,0.0,0.0,0.0,0.0,0.0,0.0,0.0,0.0,0.0,0.0,0.0,0.0,0.0,0.0,0.0,0.0,0.0,0.0,0.0,0.0,0.0,0.0,0.0,0.0,0.0,0.0,0.0,0.0,0.0,-2.7728,-2.9746,0.0,0.0,0.0,0.0,-3.1091,-3.2437,-3.4141,-3.636,-3.7631,-3.9122,-4.0886,-4.177,-4.262,-4.3535,-4.4043,-4.4512,-4.4941,-4.5391,-4.5625,-4.5664,-4.6055,-4.623,-4.623,-4.623,-4.5742,-4.4824,-4.2988,-4.1445,-4.0137,-3.9238,-3.8613,-3.8184,-3.7851,-3.7988,-3.8398,-3.8945,-3.8867,-3.8809,-4.0351,-3.8613,-3.5742,-3.4707,-3.2969,0.0,0.0,-3.3476,-3.4766,-3.6172,-3.7168,-3.793,-3.8418,-3.8223,-3.793,-3.793,-3.6582,-3.5195,0.0,-3.3144,-3.1582,-3.0117,0.0,-2.9685,-3.0449,-3.1426,-3.2851,-3.5,-3.6094,-3.668,-3.6699,-3.668,-3.6348,-3.5527,-3.541,-3.5019,-3.416,-3.4043,-3.3437,-3.2209,-3.125,-2.9746,-2.763,-2.498,0.0,0.0,0.0,0.0,0.0,0.0,0.0,0.0,0.0,0.0,0.0,0.0,0.0,0.0,0.0,0.0,0.0,0.0,0.0,0.0,0.0,0.0,0.0,0.0,0.0,0.0,0.0,0.0,-3.0176,-3.2168,0.0,0.0,-3.2096,-3.2963,-3.4719,-3.6016,-3.7612,-3.9484,-4.0537,-4.144,-4.2392,-4.3286,-4.3871,-4.4141,-4.4863,-4.5293,-4.5449,-4.5879,-4.6074,-4.6094,-4.623,-4.6308,-4.6289,-4.6016,-4.541,-4.4551,-4.3633,-4.2812,-4.209,-4.1211,-4.0781,-4.0664,-4.0781,-4.0918,-4.1074,-4.123,-4.1172,-4.0976,-4.0508,-3.9121,-3.75,-3.6641,-3.5644,-3.4961,-3.5527,-3.5625,-3.5859,-3.7148,-3.75,-3.7559,-3.7715,-3.7637,-3.7598,-3.7871,-3.6797,-3.584,-3.5937,-3.4355,-3.248,-3.0918,-3.1211,-3.1562,-3.1328,-3.25,-3.3887,-3.5215,-3.5898,-3.625,-3.625,-3.6016,-3.5723,-3.541,-3.4863,-3.4297,-3.3691,-3.3398,-3.2793,-3.1797,-3.1191,-3.0137,-2.8496,-2.6484,-2.3952,0.0,0.0,0.0,0.0,0.0,0.0,0.0,0.0,0.0,0.0,0.0,0.0,0.0,0.0,0.0,0.0,0.0,0.0,0.0,0.0,0.0,0.0,0.0,0.0,0.0,0.0,-3.207,-3.2344,-3.4394,-3.5449,-3.4609,-3.5164,-3.6284,-3.7842,-3.9021,-4.0286,-4.1719,-4.2341,-4.2837,-4.3264,-4.4013,-4.4447,-4.4609,-4.5312,-4.5742,-4.5898,-4.6172,-4.6308,-4.6308,-4.6308,-4.6152,-4.5859,-4.5586,-4.4883,-4.3926,-4.3613,-4.332,-4.3027,-4.2441,-4.2226,-4.2266,-4.2539,-4.2656,-4.2617,-4.248,-4.2344,-4.1953,-4.041,-3.9394,-3.8672,-3.8105,-3.7734,-3.7578,-3.7871,-3.7422,-3.7051,-3.7734,-3.7617,-3.7305,-3.7305,-3.7187,-3.7207,-3.7617,-3.6719,-3.5898,-3.6191,-3.4941,-3.3457,-3.2187,-3.2656,-3.2988,-3.2266,-3.3262,-3.4336,-3.5059,-3.541,-3.5684,-3.5996,-3.5508,-3.5156,-3.5156,-3.4219,-3.3516,-3.3223,-3.2539,-3.1636,-3.0426,-2.9872,-2.8785,-2.6952,-2.5149,-2.301,-2.0484,0.0,0.0,0.0,0.0,0.0,0.0,0.0,0.0,0.0,0.0,0.0,0.0,0.0,0.0,0.0,0.0,0.0,0.0,0.0,0.0,0.0,0.0,0.0,-2.8281,-3.1699,-3.4141,-3.418,-3.6426,-3.7676,-3.6964,-3.7958,-3.9172,-4.0529,-4.1366,-4.2231,-4.3089,-4.3142,-4.3283,-4.3711,-4.416,-4.4609,-4.5019,-4.5469,-4.5898,-4.6308,-4.6308,-4.6289,-4.6289,-4.6269,-4.5801,-4.5,-4.498,-4.4238,-4.3086,-4.3047,-4.3047,-4.3066,-4.3066,-4.3066,-4.3086,-4.3066,-4.3066,-4.2988,-4.2539,-4.2129,-4.1562,-4.0312,-3.959,-3.9219,-3.9219,-3.9219,-3.9199,-3.918,-3.8867,-3.8437,-3.7988,-3.7578,-3.7266,-3.7266,-3.6953,-3.6758,-3.7187,-3.6269,-3.5371,-3.5391,-3.5,-3.4531,-3.4121,-3.4062,-3.3926,-3.3496,-3.3809,0.0,-3.4648,-3.4707,-3.5019,-3.5879,-3.5176,-3.4668,-3.4668,-3.3496,-3.2773,-3.2692,-3.1503,-3.0005,-2.8199,-2.7413,-2.5753,-2.3154,-2.1031,-1.9225,-1.7838,0.0,0.0,0.0,0.0,0.0,0.0,0.0,0.0,0.0,0.0,0.0,0.0,0.0,0.0,0.0,0.0,0.0,0.0,0.0,0.0,0.0,0.0,-3.0723,-3.0644,-3.3164,-3.5488,-3.6719,-3.834,-3.9606,-4.0302,-4.0415,-4.0967,-4.2317,-4.2644,-4.2935,-4.3531,-4.3507,-4.3589,-4.3711,-4.4453,-4.4902,-4.5019,-4.5762,-4.6191,-4.6308,-4.6308,-4.6152,-4.584,-4.5527,-4.5078,-4.4531,-4.3887,-4.3418,-4.3027,-4.2402,-4.2324,-4.2598,-4.2598,-4.2793,-4.3047,-4.2715,-4.2598,-4.25,-4.1777,-4.1445,-4.1191,-4.0215,-3.9805,-3.9707,-3.9707,-3.9473,-3.9141,-3.8828,-3.8223,-3.7559,-3.7129,-3.6699,-3.6367,-3.6367,-3.6289,-3.6309,-3.6758,-3.582,-3.498,-3.5332,-3.4512,-3.373,-3.3613,-3.3867,-3.4023,-3.3906,-3.4004,0.0,-3.4648,-3.4707,-3.4668,-3.4609,-3.4101,-3.3769,-3.3769,-3.2891,-3.1761,-3.0363,-2.9409,-2.8133,-2.6405,-2.5355,-2.437,-2.3307,-2.1771,-2.0166,0.0,0.0,0.0,0.0,0.0,0.0,0.0,0.0,0.0,0.0,0.0,0.0,0.0,0.0,0.0,0.0,0.0,0.0,0.0,0.0,0.0,0.0,-3.1055,-3.3398,-3.3867,-3.5547,-3.7226,-3.8594,-3.9746,-4.0818,-4.1736,-4.1755,-4.2067,-4.3028,-4.3275,-4.3468,-4.3711,-4.3711,-4.3711,-4.3711,-4.4394,-4.4844,-4.5019,-4.5703,-4.6035,-4.6035,-4.6035,-4.5723,-4.5137,-4.4883,-4.4316,0.0,-4.3027,-4.2598,-4.2266,-4.1933,-4.1953,0.0,0.0,0.0,0.0,0.0,-4.2168,-4.207,-4.1406,-4.1055,-4.0762,-3.9883,-3.9492,-3.9375,-3.9551,-3.9414,-3.9121,-3.8691,-3.8086,-3.7422,-3.6816,-3.6348,-3.6016,-3.6016,-3.6016,-3.6094,-3.6348,-3.5664,-3.5019,-3.5078,-3.4492,0.0,-3.3476,-3.3633,-3.373,-3.3555,-3.3691,-3.3887,-3.4141,-3.416,-3.4199,-3.4316,-3.3789,-3.316,-3.2611,-3.155,0.0,0.0,0.0,-2.5662,-2.3648,-2.2243,0.0,0.0,0.0,0.0,0.0,0.0,0.0,0.0,-1.8379,-1.8898,0.0,0.0,0.0,0.0,0.0,0.0,0.0,0.0,0.0,0.0,0.0,0.0,0.0,0.0,0.0,0.0,-3.3262,-3.5488,-3.7129,-3.8144,-3.9023,-3.9805,-4.0644,-4.1366,-4.1796,-4.2171,-4.2605,-4.3096,-4.3494,-4.3711,-4.3711,0.0,0.0,0.0,0.0,-4.4492,-4.4863,-4.5312,-4.5527,-4.5527,-4.5527,-4.5078,-4.4258,-4.4199,-4.3516,-4.2344,-4.2305,-4.1894,-4.1269,-4.1601,-4.1738,-4.1738,-4.1777,-4.1777,-4.1738,-4.1738,-4.1738,-4.166,-4.1191,0.0,0.0,-3.9414,-3.8887,-3.8652,-3.9023,-3.9141,-3.9023,-3.8555,-3.8144,-3.7656,-3.6816,-3.6309,-3.6016,-3.6016,-3.6016,-3.6016,-3.6016,-3.5684,-3.5254,-3.4785,-3.4668,-3.4375,-3.3555,-3.3457,-3.3359,-3.293,-3.3184,-3.3418,-3.3418,-3.3418,-3.3691,-3.4414,0.0,0.0,-3.1353,-2.9798,-2.8298,-2.6884,-2.5011,-2.2953,-2.0758,-1.9153,-1.8275,-1.8235,-1.8584,-1.8998,-1.9578,-1.98,-2.0094,-2.0321,-1.9603,-2.0571,0.0,0.0,0.0,0.0,0.0,0.0,0.0,0.0,0.0,0.0,0.0,0.0,0.0,0.0,0.0,-3.2109,-3.4609,-3.6641,-3.7656,-3.8867,-3.9707,-3.9883,-4.0644,-4.1483,-4.2206,-4.2365,-4.2744,-4.3549,-4.3637,-4.3711,-4.3711,-4.3711,0.0,-4.3268,-4.3574,-4.3867,-4.3965,-4.4414,-4.4648,-4.4648,0.0,0.0,-4.332,-4.2969,-4.248,-4.1894,-4.1562,-4.1523,-4.166,-4.1406,-4.1289,-4.1328,-4.166,-4.1601,-4.1289,-4.1289,-4.1289,-4.1191,-4.041,-4.0078,-3.9863,-3.8984,-3.8633,-3.8594,-3.8672,-3.8691,0.0,-3.7754,-3.748,-3.7226,-3.6367,-3.6094,-3.6016,-3.6016,-3.6016,-3.6016,-3.6016,-3.5684,-3.5254,-3.4785,-3.4434,-3.4023,-3.3516,-3.3711,-3.3809,-3.3359,-3.3379,-3.3418,-3.3418,-3.3418,-3.3359,-3.3184,-3.1759,-3.0737,-3.0428,-2.853,-2.6692,-2.5175,-2.2938,-2.1285,-2.0324,-2.0247,-2.0054,-1.9754,-2.0107,-2.0307,-2.0428,-2.0708,-2.1002,-2.1333,-2.0692,-2.0672,0.0,0.0,0.0,0.0,0.0,0.0,0.0,0.0,0.0,0.0,0.0,-2.625,-2.7988,0.0,-3.2383,-3.4121,-3.6035,-3.7519,-3.8164,-3.9004,-3.9629,-3.9863,-4.0644,-4.1464,-4.2011,-4.2304,-4.2704,-4.3351,-4.3385,-4.3487,-4.3711,-4.3301,-4.3047,-4.3089,-4.3047,-4.3164,-4.3398,-4.3613,-4.373,-4.373,-4.373,-4.3281,-4.2441,-4.2207,-4.1894,-4.1484,-4.1269,-4.1289,-4.1465,-4.125,-4.1172,-4.1191,-4.1406,-4.1348,-4.1172,-4.1172,-4.1035,-4.0762,-4.0117,-3.9746,-3.9434,-3.8789,-3.8574,-3.8574,-3.8574,-3.8574,-3.8398,-3.7539,-3.7305,-3.7109,-3.625,-3.6016,-3.6016,-3.6016,-3.6016,-3.6016,-3.6016,-3.5859,-3.5508,-3.4824,-3.4531,-3.418,-3.3535,-3.3594,-3.3672,-3.3457,-3.3418,-3.3418,-3.3418,-3.2619,-3.2353,-3.3,-3.0756,-2.9198,-2.9198,-2.6387,-2.4195,-2.3178,-2.1997,-2.1136,-2.0695,-2.0815,-2.0895,-2.0895,-2.1042,-2.1253,-2.1336,-2.1483,-2.1697,-2.1977,-2.1683,-2.155,0.0,0.0,0.0,0.0,0.0,0.0,0.0,0.0,-2.4648,-2.6914,-2.7851,-2.8906,-3.0996,-3.2715,-3.4316,-3.5898,-3.7148,-3.8086,-3.8516,-3.8945,-3.9355,-3.9746,-4.0509,-4.1269,-4.1776,-4.2108,-4.2507,-4.3046,-4.306,-4.323,-4.3566,-4.2893,-4.2617,-4.2812,-4.248,-4.248,-4.2832,-4.2832,-4.2832,-4.2832,-4.2832,-4.2422,-4.168,-4.168,-4.1484,-4.1172,-4.1172,-4.1172,-4.1172,-4.1172,-4.1172,-4.1172,-4.1172,-4.1172,-4.1172,-4.1172,-4.0898,-4.0469,-4.0039,-3.959,-3.9141,-3.8711,-3.8574,-3.8574,-3.8574,-3.8574,-3.8398,-3.7539,-3.7305,-3.7109,-3.625,-3.6016,-3.6016,-3.6016,-3.6016,-3.6016,-3.6016,-3.6016,-3.5762,-3.4863,-3.4707,-3.4434,-3.3574,-3.3082,-3.3019,-3.3355,-3.3082,-3.2892,-3.2892,-3.1368,-3.0836,-3.2237,-2.9535,-2.744,-2.7046,-2.4161,-2.2218,-2.175,-2.1789,-2.1617,-2.1376,-2.1309,-2.1416,-2.1775,-2.1789,-2.1857,-2.2151,-2.2151,-2.2271,-2.2512,-2.2565,-2.2565,-2.16,-2.1328,-2.209,-2.3555,-2.4277,-2.5449,0.0,0.0,-2.9648,-3.0723,-3.1875,-3.2793,-3.3086,-3.4258,-3.5488,-3.6445,-3.7344,-3.8086,-3.8516,-3.8945,-3.9184,-3.9265,-4.0066,-4.0861,-4.1698,-4.1796,-4.2191,-4.3026,-4.306,-4.3148,-4.3116,-4.3081,-4.2678,-4.1973,-4.1894,-4.1894,-4.1953,-4.1953,-4.1953,-4.1953,-4.1953,-4.1699,-4.125,-4.125,-4.1211,-4.1172,-4.1172,-4.1172,-4.1172,-4.1172,-4.1172,-4.1172,-4.1172,-4.1172,-4.1172,-4.1172,-4.0898,-4.0469,-4.0039,-3.959,-3.9141,-3.8711,-3.8574,-3.8574,-3.8574,-3.8574,-3.8398,-3.7539,-3.7305,-3.7109,-3.625,-3.6016,-3.6016,-3.6016,-3.6016,-3.6016,-3.6016,-3.6016,-3.5762,-3.4863,-3.4707,-3.4434,-3.3574,-3.2091,-3.1625,-3.3165,-3.2091,-3.1111,-3.1111,-2.954,-2.8558,-2.8755,-2.6769,-2.4716,-2.2877,-2.2485,-2.2392,-2.2325,-2.2325,-2.2311,-2.2271,-2.2031,-2.2031,-2.2311,-2.2325,-2.2472,-2.2834,-2.2834,-2.2779,-2.2819,-2.31,-2.3073,-2.4453,-2.4551,0.0,0.0,-2.7578,-2.8887,-3.0586,-3.1172,-3.166,-3.2773,-3.3633,-3.4238,-3.4512,-3.5625,-3.6621,0.0,-3.7754,-3.8359,-3.8555,-3.8516,-3.8526,-3.8848,-3.9174,-3.9849,-4.0958,-4.1269,-4.168,-4.2287,-4.2601,-4.2659,-4.2705,-4.2445,-4.2207,-4.1816,-4.1562,-4.1426,-4.1426,-4.1426,-4.1426,-4.1426,-4.1426,-4.1348,-4.1172,-4.1172,-4.1172,-4.1172,-4.1172,-4.1172,-4.1172,-4.1172,-4.1172,-4.1172,-4.1172,-4.1172,-4.1152,-4.0879,-4.0527,-4.0098,-3.9648,-3.9199,-3.8809,-3.8633,-3.8574,-3.8574,-3.8574,-3.8574,-3.8398,-3.7539,-3.7305,-3.7109,-3.625,-3.6016,-3.6016,-3.6016,-3.6016,-3.6016,-3.6016,-3.6016,-3.5762,-3.4863,-3.4707,-3.4434,-3.3574,-3.1963,-3.1047,-3.1771,-3.0384,-2.9279,-2.9279,-2.7768,-2.6254,-2.5196,-2.51,-2.432,-2.2378,-2.2191,-2.2164,-2.2164,-2.2325,-2.2418,-2.2418,-2.2472,-2.2552,-2.2672,-2.2672,-2.2739,-2.2928,-2.3046,-2.314,-2.314,-2.3447,-2.3514,-2.6152,0.0,0.0,-2.8769,-3.0312,-3.1699,-3.2129,-3.2656,-3.332,-3.4238,-3.4687,-3.5019,-3.5488,-3.6328,-3.7031,-3.7266,-3.791,-3.8437,-3.8555,-3.8203,-3.8053,-3.8379,-3.8292,-3.8696,-3.9891,-4.0589,-4.1172,-4.1581,-4.1987,-4.221,-4.2242,-4.1931,-4.1757,-4.1641,-4.1328,-4.1172,-4.1172,-4.1172,-4.1172,-4.1172,-4.1172,-4.1172,-4.1172,-4.1172,-4.1172,-4.1172,-4.1172,-4.1172,-4.1172,-4.1172,-4.1172,-4.1172,-4.1172,-4.1094,-4.0937,-4.0508,-4.0156,-3.9824,-3.9355,-3.8926,-3.8574,-3.8574,-3.8574,-3.8574,-3.8574,-3.8574,-3.8418,-3.7676,-3.7383,-3.7129,-3.6387,-3.6113,-3.6016,-3.6016,-3.6016,-3.6016,-3.6016,-3.6016,-3.5762,-3.4863,-3.4707,-3.4284,-3.2899,-3.124,-2.993,-2.9392,-2.7817,-2.6906,-2.737,-2.592,-2.4288,-2.2875,-2.3736,-2.3819,-2.2432,-2.2111,-2.1991,-2.1991,-2.2258,-2.2418,-2.2418,-2.2699,-2.2928,-2.2928,-2.2953,-2.2993,-2.2993,-2.33,-2.3447,-2.346,-2.3754,-2.3888,0.0,0.0,-2.918,-3.0488,-3.209,-3.3457,-3.3887,-3.4668,-3.5312,-3.5351,-3.5371,-3.5508,-3.5918,-3.6035,-3.6328,-3.7168,-3.7656,-3.8086,-3.8516,-3.8203,-3.7884,-3.7893,-3.7543,-3.7676,0.0,-3.9775,-4.0744,-4.1172,-4.162,-4.1798,-4.1846,-4.1814,-4.1621,-4.1211,-4.1172,-4.1172,-4.1172,-4.1172,-4.1172,-4.1172,-4.1172,-4.1172,-4.1172,-4.1172,-4.1172,-4.1172,-4.1172,-4.1172,-4.1172,-4.1172,-4.1172,-4.1172,-4.1172,-4.0918,-4.0488,-4.0078,-3.9902,-3.9824,-3.9355,-3.8926,-3.8574,-3.8574,-3.8574,-3.8574,-3.8574,-3.8574,-3.8476,-3.8027,-3.7617,-3.7207,-3.6758,-3.6348,-3.6016,-3.6016,-3.6016,-3.6016,-3.6016,-3.6016,-3.5762,-3.4863,-3.4707,-3.3873,-3.1303,-2.9409,-2.7701,-2.5905,-2.4196,-2.3665,-2.5383,-2.406,-2.282,-2.2458,-2.2485,-2.2365,-2.2017,-2.1991,-2.1991,-2.1991,-2.2258,-2.2418,-2.2418,-2.2699,-2.2928,-2.2928,-2.3153,-2.3313,-2.3313,-2.3607,-2.3754,-2.3768,-2.4062,-2.4195,0.0,0.0,-3.1016,-3.2598,-3.3867,-3.4844,-3.5273,-3.5371,-3.5391,-3.5391,-3.4687,-3.4121,-3.4277,-3.4531,-3.5019,-3.5898,-3.6855,-3.7754,-3.8476,-3.8203,-3.7773,-3.7543,-3.7371,0.0,0.0,0.0,0.0,-4.0666,-4.0857,-4.1089,-4.1425,-4.1367,-4.1328,-4.1172,-4.1172,-4.1172,-4.1172,-4.1172,-4.1172,-4.1172,-4.1172,-4.1172,-4.1172,-4.1172,-4.1172,-4.1172,-4.1172,-4.1172,-4.1172,-4.1172,-4.1172,-4.1152,-4.0859,-4.0644,-4.043,-3.9707,-3.9434,-3.9375,-3.8945,-3.8691,-3.8574,-3.8574,-3.8574,-3.8574,-3.8574,-3.8574,-3.8476,-3.8047,-3.7617,-3.7207,-3.6777,-3.6348,-3.6016,-3.6016,-3.6016,-3.6016,-3.6016,-3.6016,-3.584,-3.5273,-3.3956,-3.2633,-3.1407,-2.8511,-2.5786,-2.406,-2.327,-2.3133,-2.372,-2.3256,-2.2887,-2.2726,-2.2539,-2.2378,-2.2285,-2.2098,-2.1991,-2.1991,-2.2258,-2.2418,-2.2418,-2.2699,-2.2928,-2.2928,-2.3166,-2.3327,-2.3327,-2.3821,-2.4062,-2.4062,-2.4356,-2.4489,-2.9355,-3.0996,-3.2578,-3.4141,-3.5078,-3.5644,-3.5762,-3.5586,-3.5293,-3.498,-3.375,-3.2793,-3.2949,-3.2559,-3.2812,-3.4629,-3.5605,-3.666,-3.8144,-3.7969,-3.7624,-3.7352,-3.7005,0.0,0.0,0.0,0.0,-3.9946,-4.0019,-4.0291,-4.0917,-4.0918,-4.1016,-4.1172,-4.1172,-4.1172,-4.1172,-4.1172,-4.1172,-4.1172,-4.1172,-4.1172,-4.1172,-4.1172,-4.1172,-4.1172,-4.1172,-4.1172,-4.1172,-4.1172,-4.1074,-4.0918,-4.0644,-4.0332,-3.998,-3.9414,-3.9101,-3.8945,-3.8672,-3.8574,-3.8574,-3.8574,-3.8574,-3.8574,-3.8574,-3.8574,-3.8516,-3.8242,-3.7734,-3.7226,-3.6973,-3.6465,-3.6016,-3.6016,-3.6016,-3.6016,-3.6016,-3.6016,-3.5898,-3.5469,-3.3583,-3.172,-3.0645,-2.7194,-2.4181,-2.3065,-2.2928,-2.2928,-2.2928,-2.2928,-2.2928,-2.2928,-2.2699,-2.2579,-2.2579,-2.2311,-2.2138,-2.2138,-2.2311,-2.2418,-2.2418,-2.2699,-2.2928,-2.2928,-2.3166,-2.338,-2.3487,-2.3968,-2.4262,-2.4369,-2.4556,-2.4636,-3.1289,-3.2559,-3.3828,-3.5137,-3.5723,-3.5879,-3.5449,-3.5332,-3.5039,-3.4121,-3.2578,-3.1504,0.0,0.0,-3.0039,-3.3398,-3.4082,-3.5059,-3.7559,-3.7598,-3.7365,0.0,0.0,0.0,0.0,0.0,0.0,-3.907,0.0,-3.9542,-4.0445,-4.0506,-4.0684,-4.1133,-4.1172,-4.1172,-4.1172,-4.1172,-4.1172,-4.1172,-4.1172,-4.1172,-4.1172,-4.1172,-4.1172,-4.1172,-4.1172,-4.1172,-4.1172,-4.1152,-4.0898,-4.0527,-4.0469,-3.9941,-3.9199,-3.918,-3.8926,-3.8574,-3.8574,-3.8574,-3.8574,-3.8574,-3.8574,-3.8574,-3.8574,-3.8574,-3.8574,-3.8574,-3.7949,-3.7305,-3.7305,-3.666,-3.6016,-3.6016,-3.6016,-3.6016,-3.6016,-3.5947,-3.5763,-3.5354,-3.3382,-3.1117,-2.8892,-2.5402,-2.2928,-2.2928,-2.2928,-2.2928,-2.2928,-2.2928,-2.2928,-2.2928,-2.2928,-2.2928,-2.2928,-2.2605,-2.2445,-2.2445,-2.2445,-2.2445,-2.2445,-2.2712,-2.2928,-2.2928,-2.3166,-2.3474,-2.3768,-2.4062,-2.4356,-2.4636,-2.4636,-2.4636,-3.2988,-3.4141,-3.5137,-3.6094,-3.5937,-3.543,-3.498,-3.4394,-3.3594,-3.2402,-3.0801,-2.9434,0.0,0.0,0.0,-3.1875,-3.4062,0.0,-3.7695,-3.8105,0.0,0.0,0.0,-3.7362,-3.7188,-3.7153,0.0,0.0,-3.8418,-3.8747,-4.0026,-4.0017,-4.0254,-4.0684,-4.0996,-4.1172,-4.1172,-4.1172,-4.1172,-4.1172,-4.1172,-4.1172,-4.1172,-4.1172,-4.1172,-4.1172,-4.1172,-4.1172,-4.1152,-4.082,-4.0625,-4.0469,-3.9805,-3.9394,-3.916,-3.8848,-3.8672,-3.8574,-3.8574,-3.8574,-3.8574,-3.8574,-3.8574,-3.8574,-3.8574,-3.8574,-3.8574,-3.8574,-3.7949,-3.7305,-3.7305,-3.666,-3.6016,-3.6016,-3.6016,-3.6016,-3.6016,-3.4883,-3.3845,-3.3753,-3.0651,-2.7285,-2.5066,-2.3667,-2.2928,-2.2928,-2.2928,-2.2928,-2.2928,-2.2928,-2.2928,-2.2928,-2.2928,-2.2928,-2.2928,-2.2792,-2.2752,-2.2752,-2.2752,-2.2752,-2.2752,-2.2819,-2.2928,-2.2928,-2.3166,-2.3474,-2.3768,-2.4062,-2.4356,-2.4636,-2.4636,-2.4636,-3.4551,-3.543,-3.6074,-3.6543,-3.6035,-3.5078,-3.3867,-3.3066,-3.1953,-2.9726,-2.8184,0.0,0.0,0.0,0.0,0.0,0.0,0.0,-3.7109,-3.791,-3.8072,0.0,-3.7477,0.0,-3.7109,-3.7219,-3.7614,0.0,-3.8025,-3.8399,-3.9504,-3.9586,-3.9785,-4.0234,-4.0664,-4.0976,-4.1172,-4.1172,-4.1172,-4.1172,-4.1172,-4.1172,-4.1172,-4.1172,-4.1172,-4.1172,0.0,-4.1074,-4.0879,-4.0625,-4.0293,-3.9883,-3.9394,-3.9082,-3.8906,-3.8652,-3.8574,-3.8574,-3.8574,-3.8574,-3.8574,-3.8574,-3.8574,-3.8574,-3.8574,-3.8574,-3.8428,-3.7492,-3.6667,-3.6043,-3.5972,-3.535,-3.4952,-3.5811,-3.5382,-3.4727,-3.4727,-3.324,-3.1616,-3.0674,-2.849,-2.6003,-2.366,-2.318,-2.302,-2.2954,-2.2928,-2.2928,-2.2928,-2.2928,-2.2928,-2.2928,-2.2928,-2.2928,-2.2928,-2.2928,-2.2928,-2.2928,-2.2928,-2.2928,-2.2928,-2.2928,-2.2928,-2.2928,-2.3033,-2.3273,-2.3581,-2.3875,-2.4168,-2.4449,-2.4583,-2.4636,-3.6016,-3.6465,-3.668,-3.6738,-3.5976,-3.4668,-3.2559,-3.1562,-3.0156,-2.6816,0.0,-2.4512,-2.375,0.0,-2.5566,-2.8516,0.0,-3.3848,-3.6406,-3.7422,-3.7773,-3.7353,-3.7375,-3.7311,-3.6799,-3.7207,-3.7613,-3.7982,-3.7982,-3.834,-3.9101,-3.918,-3.9434,-3.9961,-4.0332,-4.0723,-4.1172,-4.1172,-4.1172,-4.1172,-4.1172,-4.1172,-4.1172,-4.1172,-4.1152,-4.1094,0.0,0.0,-4.043,-4.0371,-3.9902,-3.9199,-3.9141,-3.8887,-3.8574,-3.8574,-3.8574,-3.8574,-3.8574,-3.8574,-3.8574,-3.8574,-3.8574,-3.8574,-3.8263,-3.819,-3.7731,-3.5664,-3.4607,-3.4126,-3.391,-3.3429,-3.3294,-3.4883,-3.402,-3.2804,-3.2804,-3.1316,-2.9305,-2.7102,-2.6656,-2.5968,-2.3795,-2.338,-2.3233,-2.2966,-2.2886,-2.2928,-2.2928,-2.2928,-2.2928,-2.2928,-2.2928,-2.2928,-2.2928,-2.2928,-2.2928,-2.2928,-2.2928,-2.2928,-2.2928,-2.2928,-2.2928,-2.2928,-2.2928,-2.302,-2.3327,-2.3621,-2.3915,-2.4209,-2.4502,-2.4636,-3.7266,-3.7148,-3.6758,-3.7109,-3.5723,-3.3828,-3.2031,-3.0195,0.0,0.0,0.0,-2.291,-2.2754,-2.4258,0.0,-2.9023,0.0,0.0,0.0,0.0,-3.7747,0.0,0.0,0.0,0.0,0.0,0.0,0.0,0.0,0.0,-3.8672,-3.9004,-3.957,-4.0391,-4.0488,-4.0723,-4.1172,-4.1172,-4.1172,-4.1172,-4.1172,-4.1172,-4.1172,-4.1172,-4.0976,-4.0644,-4.0644,0.0,-3.998,-3.959,-3.9336,-3.916,-3.8828,-3.8633,-3.8574,-3.8574,-3.8574,-3.8574,-3.8574,-3.8574,-3.8574,-3.8574,-3.8574,-3.8263,-3.6571,-3.6035,-3.5589,-3.3549,-3.2643,-3.2241,-3.1979,-3.1594,-3.1262,-3.1313,-3.1017,-3.0805,-3.0805,-2.9329,-2.7403,-2.5423,-2.4852,-2.4517,-2.4134,-2.3647,-2.3313,-2.326,-2.3033,-2.2928,-2.2928,-2.2928,-2.2928,-2.2928,-2.2928,-2.2928,-2.2928,-2.2928,-2.2928,-2.2928,-2.2928,-2.2928,-2.2928,-2.2928,-2.2928,-2.2928,-2.2928,-2.302,-2.3327,-2.3621,-2.3915,-2.4209,-2.4502,-2.4636,-3.7695,-3.7461,-3.6992,-3.6973,-3.5508,-3.334,-3.0488,0.0,0.0,0.0,0.0,-2.1016,-2.0527,0.0,0.0,0.0,0.0,0.0,0.0,0.0,0.0,0.0,0.0,0.0,0.0,0.0,0.0,0.0,0.0,0.0,-3.8574,-3.8769,-3.918,-3.9824,-3.9824,-4.0059,-4.0508,-4.0508,-4.0508,-4.0508,-4.0508,-4.0508,-4.0508,-4.0508,-4.0391,-4.0195,-4.0195,0.0,-3.9512,-3.9297,-3.9062,-3.8848,-3.8652,-3.8574,-3.8574,-3.8574,-3.7878,-3.6959,-3.6959,-3.6275,-3.5458,-3.5458,-3.6127,-3.6811,-3.5812,-3.4751,-3.3549,-3.1421,-3.0649,-3.0275,-3.0087,-2.9665,-2.9518,-3.0353,-2.9672,-2.8557,-2.7548,-2.6634,-2.5712,-2.4784,-2.4529,-2.4382,-2.4222,-2.3968,-2.3728,-2.3581,-2.33,-2.31,-2.31,-2.2966,-2.2928,-2.2928,-2.2928,-2.2928,-2.2928,-2.2928,-2.2928,-2.2928,-2.2928,-2.2928,-2.2928,-2.302,-2.31,-2.31,-2.326,-2.3407,-2.3554,-2.3848,-2.4142,-2.4436,-2.473,-2.4943,-3.7754,-3.7617,-3.7187,-3.6777,-3.5215,-3.2832,-2.9141,-2.7012,0.0,0.0,-1.9687,-1.9355,-1.8831,0.0,0.0,0.0,0.0,0.0,0.0,0.0,0.0,0.0,0.0,0.0,0.0,0.0,0.0,0.0,0.0,0.0,-3.8574,-3.8574,-3.8769,-3.9199,-3.9199,-3.9434,-3.9883,-3.9902,-3.9902,-3.9902,-3.9902,-3.9902,-3.9902,-3.9902,-3.9598,-3.9125,-3.9596,0.0,0.0,-3.8432,-3.824,-3.7878,-3.7438,-3.7272,-3.7272,-3.7272,-3.6275,-3.4826,-3.4826,-3.385,-3.2505,-3.2505,-3.3549,-3.4751,-3.4359,-3.3095,-3.1437,-2.9371,-2.8574,-2.837,-2.8235,-2.7784,-2.7763,-2.9122,-2.8106,-2.643,-2.4918,-2.4636,-2.4636,-2.4636,-2.4636,-2.4569,-2.4342,-2.4249,-2.4128,-2.3901,-2.3607,-2.3394,-2.334,-2.3113,-2.2939,-2.2941,-2.2928,-2.2928,-2.2928,-2.2928,-2.2928,-2.2928,-2.2928,-2.2928,-2.2928,-2.31,-2.322,-2.322,-2.346,-2.3607,-2.3674,-2.4035,-2.4356,-2.4649,-2.501,-2.5291,-3.7598,-3.7617,-3.7187,-3.6777,-3.4766,-3.2109,-2.9004,0.0,0.0,-2.0488,-1.8984,-1.8398,-1.9102,-2.0096,0.0,0.0,0.0,0.0,0.0,0.0,0.0,0.0,0.0,0.0,0.0,0.0,0.0,0.0,0.0,0.0,0.0,-3.8574,-3.8769,-3.9199,-3.9199,-3.9434,-3.9883,-3.9902,-3.9902,-3.9902,-3.9902,-3.9902,-3.9902,-3.9902,-3.8652,-3.6655,-3.8495,0.0,0.0,-3.5867,-3.583,-3.5589,-3.3775,-3.3037,-3.3037,-3.3037,-3.2961,-3.2809,-3.2809,-3.2657,-3.2505,-3.2505,-3.2657,-3.2413,-3.05,-2.9821,-2.9293,-2.7227,-2.6675,-2.6594,-2.6324,-2.6013,-2.5634,-2.5228,-2.5005,-2.4857,-2.4636,-2.4636,-2.4636,-2.4636,-2.4636,-2.4549,-2.4596,-2.4382,-2.4195,-2.4168,-2.3915,-2.3634,-2.3367,-2.33,-2.318,-2.2954,-2.2928,-2.2928,-2.2928,-2.2928,-2.2928,-2.2928,-2.2928,-2.2928,-2.2928,-2.2886,-2.2968,-2.2968,-2.2995,-2.3086,-2.3367,-2.3928,-2.4356,-2.4576,-2.5211,-2.5401,-3.6738,-3.7051,-3.6758,-3.6074,-3.4336,-3.1675,-2.753,0.0,-2.2621,-1.8524,-1.7855,-1.7934,-1.7736,-1.8153,-1.9392,-2.1948,-2.2553,-2.4412,0.0,0.0,0.0,0.0,0.0,0.0,0.0,0.0,0.0,0.0,0.0,0.0,0.0,-3.8574,-3.8652,-3.8828,-3.8828,-3.8906,-3.9101,-3.9101,-3.9101,-3.9101,-3.7857,-3.7222,-3.7222,-3.602,-3.493,-3.4015,-3.4847,0.0,0.0,-3.37,-3.37,-3.3624,-3.2792,-3.2505,-3.2505,-3.2505,-3.1743,-3.0669,-3.0669,-2.9821,-2.8842,-2.8842,-2.8842,-2.892,-2.9293,-2.853,-2.7462,-2.6623,-2.6386,-2.636,-2.6253,-2.5865,-2.5411,-2.4997,-2.477,-2.4636,-2.4636,-2.4636,-2.4636,-2.4636,-2.4636,-2.4636,-2.4636,-2.4543,-2.4462,-2.4462,-2.4222,-2.3995,-2.3875,-2.3701,-2.3541,-2.342,-2.3155,-2.2928,-2.2928,-2.2928,-2.2928,-2.2928,-2.2928,-2.2953,-2.314,-2.3313,-2.3487,-2.3661,-2.4022,-2.4262,-2.4382,-2.4796,-2.5144,-2.5438,-2.5665,-2.5865,-3.5714,-3.6387,-3.6269,-3.541,-3.3339,-3.0386,0.0,0.0,-2.1403,-1.6966,-1.7116,-1.7735,-1.6768,-1.6883,-1.7862,-2.0023,-1.9894,-2.1389,-2.6769,0.0,0.0,0.0,0.0,0.0,0.0,0.0,0.0,0.0,0.0,0.0,0.0,-3.7658,-3.7951,-3.8574,-3.8574,-3.8574,-3.8574,-3.797,-3.7658,-3.7658,-3.5589,-3.4601,-3.4526,-3.3171,-3.2201,-3.159,0.0,0.0,0.0,-3.1574,-3.1574,-3.1513,-3.09,-3.0669,-3.0669,-3.0669,-2.9759,-2.853,-2.853,-2.7619,-2.6386,-2.6386,-2.6386,-2.6702,-2.8076,-2.7541,-2.6386,-2.6386,-2.6386,-2.6373,-2.6279,-2.5892,-2.5438,-2.5144,-2.485,-2.4636,-2.4636,-2.4636,-2.4636,-2.4636,-2.4636,-2.4636,-2.4636,-2.4636,-2.4636,-2.4636,-2.4462,-2.4302,-2.4209,-2.4022,-2.3861,-2.3781,-2.338,-2.3196,-2.3196,-2.3046,-2.3033,-2.3196,-2.3196,-2.3233,-2.3447,-2.3661,-2.3915,-2.4195,-2.4609,-2.4903,-2.5077,-2.5371,-2.5665,-2.6037,-2.6039,-2.6199,-3.4475,-3.5703,-3.582,-3.4922,-3.156,-2.7805,0.0,-2.2363,-1.9241,-1.638,-1.6971,-1.7716,-1.6784,-1.683,-1.7624,-1.9598,-1.9289,-2.0726,-2.622,0.0,0.0,0.0,0.0,0.0,0.0,0.0,0.0,0.0,0.0,0.0,0.0,-3.5497,-3.6497,-3.8574,-3.8574,-3.8574,-3.8574,-3.6571,-3.5497,-3.5497,-3.3473,-3.2505,-3.2505,-3.2505,-3.136,0.0,0.0,0.0,0.0,-2.9449,-2.9449,-2.9216,-2.7227,-2.6465,-2.6465,-2.6465,-2.6465,-2.6465,-2.6465,-2.6386,-2.6386,-2.6386,-2.6386,-2.6386,-2.6386,-2.6386,-2.6386,-2.6386,-2.6386,-2.6319,-2.6039,-2.5732,-2.5438,-2.5144,-2.485,-2.4636,-2.4636,-2.4636,-2.4636,-2.4636,-2.4636,-2.4636,-2.4636,-2.4636,-2.4636,-2.4636,-2.4636,-2.4529,-2.4235,-2.4195,-2.4088,-2.3808,-2.3768,-2.3754,-2.3754,-2.3487,-2.3447,-2.3741,-2.3754,-2.3768,-2.3768,-2.3768,-2.3915,-2.4195,-2.4209,-2.4502,-2.5077,-2.5371,-2.5665,-2.6037,-2.6253,-2.6386,-2.7961,-2.9567,-3.0283,-2.8714,-2.7425,-2.5576,-2.1708,-1.9894,-1.8062,-1.4483,-1.551,-1.6541,-1.4906,-1.5254,-1.6465,-1.8655,-1.8289,0.0,0.0,0.0,0.0,0.0,0.0,0.0,0.0,0.0,0.0,0.0,0.0,0.0,0.0,-3.3473,-3.3775,-3.4394,-3.4394,-3.4394,-3.4394,-3.3792,-3.3473,-3.3398,-3.1344,-3.0361,-3.0361,-2.8997,0.0,0.0,0.0,0.0,0.0,-2.7384,-2.7384,-2.7305,-2.6623,-2.6386,-2.6386,-2.6386,-2.6386,-2.6386,-2.6386,-2.6386,-2.6386,-2.6386,-2.6386,-2.6386,-2.6386,-2.6386,-2.6386,-2.6386,-2.6386,-2.6373,-2.6279,-2.6039,-2.5745,-2.5451,-2.5157,-2.489,-2.4676,-2.4636,-2.4636,-2.4636,-2.4636,-2.4636,-2.4636,-2.4636,-2.4636,-2.4636,-2.4636,-2.4609,-2.4516,-2.4502,-2.4462,-2.4369,-2.4182,-2.3981,-2.3794,-2.3688,-2.3674,-2.3768,-2.3768,-2.3861,-2.4062,-2.4062,-2.4302,-2.4796,-2.4997,-2.5291,-2.5755,-2.5972,-2.6159,-2.6253,-2.6346,-2.6372,0.0,-2.5979,-2.6761,-2.5375,-2.427,-2.2707,-1.9479,-1.7992,-1.6386,-1.3248,-1.4455,-1.5579,-1.3991,-1.4315,-1.5445,-1.7399,-1.6942,0.0,0.0,0.0,0.0,0.0,0.0,0.0,0.0,0.0,0.0,0.0,0.0,0.0,0.0,0.0,-3.0675,-2.9915,-3.1598,-3.2505,-3.2505,-3.1743,-3.136,-3.1284,-2.9216,-2.8296,-2.8218,-2.7004,0.0,0.0,0.0,0.0,0.0,-2.6386,-2.6386,-2.6386,-2.6386,-2.6386,-2.6386,-2.6386,-2.6386,-2.6386,-2.6386,-2.6386,-2.6386,-2.6386,-2.6386,-2.6386,-2.6386,-2.6386,-2.6386,-2.6386,-2.6386,-2.6386,-2.6386,-2.6172,-2.5879,-2.5585,-2.5291,-2.4997,-2.4703,-2.4636,-2.4636,-2.4636,-2.4636,-2.4636,-2.4636,-2.4636,-2.4636,-2.4636,-2.4636,-2.4636,-2.4636,-2.4636,-2.4636,-2.4636,-2.4476,-2.4289,-2.4115,-2.3995,-2.3981,-2.4088,-2.4102,-2.4182,-2.4356,-2.4369,-2.4596,-2.5064,-2.5371,-2.5651,-2.5945,-2.6239,-2.6372,-2.6418,-2.6435,-2.6418,0.0,-2.4051,-2.4544,-2.4023,-2.169,-1.9277,-1.8334,-1.6493,0.0,-1.2665,-1.381,-1.4796,-1.3834,-1.3978,-1.466,-1.5986,-1.558,0.0,0.0,0.0,0.0,0.0,0.0,0.0,0.0,0.0,0.0,0.0,0.0,0.0,0.0,0.0,-2.7514,-2.5581,-2.9747,-3.1983,-3.1999,-3.0115,-2.9216,-2.9138,-2.7305,-2.6386,-2.6386,-2.6386,0.0,0.0,0.0,0.0,0.0,-2.6386,-2.6386,-2.6386,-2.6386,-2.6386,-2.6386,-2.6386,-2.6386,-2.6386,-2.6386,-2.6386,-2.6386,-2.6386,-2.6386,-2.6386,-2.6386,-2.6386,-2.6386,-2.6386,-2.6386,-2.6386,-2.6386,-2.6186,-2.5905,-2.5585,-2.5304,-2.5024,-2.4703,-2.4636,-2.4636,-2.4636,-2.4636,-2.4636,-2.4636,-2.4636,-2.4636,-2.4636,-2.4636,-2.4636,-2.4636,-2.4636,-2.4636,-2.4636,-2.4636,-2.4636,-2.4636,-2.4396,-2.4342,-2.4549,-2.4636,-2.4636,-2.4636,-2.4636,-2.4783,-2.5104,-2.5398,-2.5692,-2.5816,-2.6213,-2.6405,-2.6419,-2.633,-2.6289,-1.5676,0.0,-1.8179,-1.7121,-1.6847,-1.6395,0.0,-1.4033,-1.3381,-1.2476,0.0,-1.3902,-1.3407,-1.3796,-1.4658,-1.6035,-1.629,0.0,0.0,0.0,0.0,0.0,0.0,0.0,0.0,0.0,0.0,0.0,0.0,0.0,0.0,0.0,-2.6025,-2.5518,-2.6544,-2.7248,-2.7502,-2.7273,-2.7083,-2.7083,-2.6623,-2.6386,-2.6386,-2.6386,0.0,0.0,0.0,0.0,-2.6386,-2.6386,-2.6386,-2.6386,-2.6386,-2.6386,-2.6386,-2.6386,-2.6386,-2.6386,-2.6386,-2.6386,-2.6386,-2.6386,-2.6386,-2.6386,-2.6386,-2.6386,-2.6386,-2.6386,-2.6386,-2.6386,-2.6386,-2.6333,-2.6159,-2.5638,-2.5464,-2.5264,-2.4743,-2.4636,-2.4636,-2.4636,-2.4636,-2.4636,-2.4636,-2.4636,-2.4636,-2.4636,-2.4636,-2.4636,-2.4636,-2.4636,-2.4636,-2.4636,-2.4636,-2.4636,-2.4636,-2.4569,-2.4569,-2.4636,-2.4636,-2.4636,-2.4636,-2.4636,-2.4802,-2.5143,-2.5872,-2.6168,-2.6279,-2.6347,-2.638,-2.6371,-2.5434,-2.503,-1.3227,-1.4448,-1.5573,-1.4899,-1.5002,-1.4979,-1.3872,-1.3293,0.0,0.0,0.0,-1.307,-1.3022,-1.3399,0.0,-1.5281,0.0,0.0,0.0,0.0,0.0,0.0,0.0,0.0,0.0,0.0,0.0,0.0,0.0,0.0,0.0,-2.5117,-2.5117,-2.5117,-2.5251,-2.5451,-2.5745,-2.5905,-2.5985,-2.5985,-2.5985,-2.5985,-2.5985,-2.6132,-2.6186,0.0,0.0,0.0,-2.6386,-2.6386,-2.6386,-2.6386,-2.6386,-2.6386,-2.6386,-2.6386,-2.6386,-2.6386,-2.6386,-2.6386,-2.6386,-2.6386,-2.6386,-2.6386,-2.6386,-2.6386,-2.6386,-2.6386,-2.6386,-2.6386,-2.6386,-2.6386,-2.6279,-2.5825,-2.5611,-2.5384,-2.4943,-2.473,-2.4636,-2.4636,-2.4636,-2.4636,-2.4636,-2.4636,-2.4636,-2.4636,-2.4636,-2.4636,-2.4636,-2.4636,-2.4636,-2.4636,-2.4636,-2.4636,-2.4636,-2.4636,-2.4636,-2.4636,-2.4636,-2.4636,-2.4636,-2.4636,-2.4829,-2.5325,-2.5455,-2.5859,-2.6429,-2.6375,-2.6142,-2.5523,-2.4898,-2.4563,-1.2891,-1.3909,-1.4914,-1.478,-1.4536,-1.4309,-1.4015,0.0,0.0,0.0,0.0,0.0,0.0,0.0,0.0,0.0,0.0,0.0,0.0,0.0,0.0,0.0,0.0,0.0,0.0,0.0,0.0,0.0,0.0,0.0,0.0,-2.4636,-2.4636,-2.4636,-2.4877,-2.513,-2.5371,-2.5464,-2.5518,-2.5518,-2.5518,-2.5518,-2.5518,-2.5772,-2.5892,0.0,0.0,0.0,-2.6253,-2.6306,-2.6319,-2.6333,-2.6373,-2.6386,-2.6386,-2.6386,-2.6386,-2.6386,-2.6386,-2.6386,-2.6386,-2.6386,-2.6386,-2.6386,-2.6386,-2.6386,-2.6386,-2.6386,-2.6386,-2.6386,-2.6386,-2.6386,-2.6319,-2.6026,-2.5758,-2.5491,-2.5157,-2.4877,-2.469,-2.4649,-2.4636,-2.4636,-2.4636,-2.4636,-2.4636,-2.4636,-2.4636,-2.4636,-2.4636,-2.4636,-2.4636,-2.4636,-2.4636,-2.4636,-2.4636,-2.4636,-2.4636,-2.4636,-2.4636,-2.4636,-2.4636,-2.4602,-2.4869,-2.5338,-2.5059,-2.5326,-2.6099,-2.6142,-2.5574,-2.4629,-2.4578,-2.4626,-1.3267,-1.4041,-1.4402,-1.3667,-1.3586,-1.3666,-1.3414,-1.324,0.0,0.0,0.0,0.0,0.0,0.0,0.0,0.0,0.0,0.0,0.0,0.0,0.0,0.0,0.0,0.0,0.0,0.0,0.0,0.0,0.0,0.0,0.0,0.0,-2.4636,-2.4636,-2.4676,-2.473,-2.477,-2.5264,-2.5518,-2.5518,-2.5518,-2.5518,-2.5518,-2.5558,-2.5585,0.0,0.0,-2.5651,-2.5665,-2.5919,-2.6026,-2.6052,-2.6293,-2.6386,-2.6386,-2.6386,-2.6386,-2.6386,-2.6386,-2.6386,-2.6386,-2.6386,-2.6386,-2.6386,-2.6386,-2.6386,-2.6386,-2.6386,-2.6386,-2.6386,-2.6386,-2.6386,-2.6319,-2.6026,-2.5919,-2.5745,-2.5197,-2.5037,-2.493,-2.469,-2.4636,-2.4636,-2.4636,-2.4636,-2.4636,-2.4636,-2.4636,-2.4636,-2.4636,-2.4636,-2.4636,-2.4636,-2.4636,-2.4636,-2.4636,-2.4636,-2.4636,-2.4636,-2.4636,-2.4636,-2.4636,-2.4626,-2.4652,-2.4737,-2.5656,-2.5688,-2.492,-2.4878,-2.4775,-2.4582,-2.4634,-2.4602,-1.2812,-1.3427,-1.3986,-1.3893,-1.4255,-1.4683,-1.5035,-1.4393,0.0,0.0,0.0,0.0,0.0,0.0,0.0,0.0,0.0,0.0,0.0,0.0,0.0,0.0,0.0,0.0,0.0,0.0,0.0,0.0,0.0,0.0,0.0,0.0,-2.4636,-2.4636,-2.4636,-2.4636,-2.4636,-2.4903,-2.5037,-2.5037,-2.5037,-2.5037,-2.505,-2.5211,-2.5277,-2.5291,0.0,-2.5518,-2.5518,-2.5665,-2.5718,-2.5745,-2.6039,-2.6159,-2.6172,-2.6333,-2.6386,-2.6386,-2.6386,-2.6386,-2.6386,-2.6386,-2.6386,-2.6386,-2.6386,-2.6386,-2.6386,-2.6386,-2.6386,-2.6386,-2.6386,-2.6386,-2.636,-2.6226,-2.6079,-2.5879,-2.5611,-2.5424,-2.5148,-2.4679,-2.4626,-2.4573,-2.4589,-2.4636,-2.4636,-2.4636,-2.4636,-2.4636,-2.4636,-2.4636,-2.4636,-2.4636,-2.4636,-2.4636,-2.4636,-2.4636,-2.4636,-2.4636,-2.4636,-2.4636,-2.4636,-2.4608,-2.4631,-2.4592,-2.5766,-2.5821,-2.4609,-2.4578,-2.4629,-2.4587,-2.4616,-2.4636,-1.2772,-1.328,-1.395,-1.4897,-1.5228,-1.5586,-1.6644,-1.5707,-1.4656,0.0,0.0,0.0,0.0,0.0,0.0,0.0,0.0,0.0,0.0,0.0,0.0,0.0,0.0,0.0,0.0,0.0,0.0,0.0,0.0,0.0,0.0,0.0,-2.4636,-2.4636,-2.4636,-2.4636,-2.4636,-2.4636,-2.4636,-2.4636,-2.4636,-2.4636,-2.4649,-2.4877,-2.497,-2.4983,-2.5211,-2.5304,-2.5317,-2.5384,-2.5411,-2.5438,-2.5732,-2.5892,-2.5999,-2.6279,-2.6386,-2.6386,-2.6386,-2.6386,-2.6386,-2.6386,-2.6386,-2.6386,-2.6386,-2.6386,-2.6386,-2.6386,-2.6386,-2.6386,-2.6386,-2.6386,-2.6386,-2.6386,-2.6226,-2.6117,-2.605,-2.5785,-2.5441,-2.4984,-2.4829,-2.4763,-2.4802,-2.4836,-2.4762,-2.46,-2.4621,-2.4581,-2.4581,-2.4602,-2.4636,-2.4636,-2.4636,-2.4636,-2.4636,-2.4636,-2.4636,-2.4636,-2.4636,-2.4636,-2.4636,-2.4636,-2.4608,-2.456,-2.5546,-2.5546,-2.4573,-2.4608,-2.4636,-2.4636,-2.4636,-2.4589,-1.4135,-1.4215,-1.454,-1.6506,-1.5996,-1.5397,-1.6837,-1.6639,-1.6388,-1.7168,0.0,0.0,0.0,0.0,0.0,0.0,0.0,0.0,0.0,0.0,0.0,0.0,0.0,0.0,0.0,0.0,0.0,0.0,0.0,0.0,0.0,0.0,0.0,-2.4636,-2.4636,-2.4636,-2.4636,-2.4636,-2.4636,-2.4636,-2.4636,-2.4636,-2.4636,-2.4589,-2.4676,-2.4676,-2.469,-2.4629,-2.4716,-2.4997,-2.5117,-2.5144,-2.5424,-2.5718,-2.5999,-2.6279,-2.6386,-2.6386,-2.6386,-2.6386,-2.6386,-2.6386,-2.6386,-2.6386,-2.6386,-2.6386,-2.6386,-2.6386,-2.6386,-2.6386,-2.6386,-2.6386,-2.6386,-2.6386,-2.6373,-2.6279,-2.6012,-2.601,-2.5916,-2.5711,-2.5401,-2.5222,-2.5375,-2.5451,-2.5272,-2.4672,-2.4616,-2.4622,-2.4622,-2.4634,-2.4636,-2.4636,-2.4636,-2.4636,-2.4636,-2.4636,-2.4636,-2.4636,-2.4636,-2.4636,-2.4636,-2.4636,-2.4608,-2.456,-2.4709,-2.4695,-2.4573,-2.4608,-2.4636,-2.4636,-2.4636,-2.4621,-1.3414,-1.3881,-1.4653,-1.5795,-1.6224,-1.676,-1.8212,-1.8105,-1.7849,-1.8544,-1.8664,0.0,0.0,0.0,0.0,0.0,0.0,0.0,0.0,0.0,0.0,0.0,0.0,0.0,0.0,0.0,0.0,0.0,0.0,0.0,0.0,0.0,0.0,-2.4102,-2.4102,-2.4102,-2.4102,-2.4275,-2.4369,-2.4369,-2.4556,-2.4636,-2.4636,-2.4636,-2.4636,-2.4636,-2.4636,-2.4636,-2.4649,-2.4756,-2.4796,-2.4836,-2.513,-2.5531,-2.605,-2.6079,-2.6239,-2.6386,-2.6386,-2.6386,-2.6386,-2.6386,-2.6386,-2.6386,-2.6386,-2.6386,-2.6386,-2.6386,-2.6386,-2.6386,-2.6386,-2.6386,-2.6386,-2.6386,-2.6386,-2.636,-2.6253,-2.6226,-2.6224,-2.6189,-2.6044,-2.5732,-2.5032,-2.5594,-2.5954,-2.5774,-2.568,-2.5434,-2.467,-2.4908,-2.5028,-2.4679,-2.4581,-2.4636,-2.4636,-2.4636,-2.4636,-2.4636,-2.4636,-2.4636,-2.4636,-2.4636,-2.4602,-2.4634,-2.4616,-2.4616,-2.4634,-2.4616,-2.4636,-2.4562,-2.4573,-2.4631,-1.3293,-1.3828,-1.4683,-1.5364,-1.6353,0.0,-1.941,-1.9416,-1.9292,-2.0147,-2.0267,-2.0241,-2.0347,0.0,0.0,0.0,0.0,0.0,0.0,0.0,0.0,0.0,0.0,0.0,0.0,0.0,0.0,0.0,0.0,0.0,0.0,0.0,0.0,0.0,-2.3768,-2.3768,-2.3768,-2.3968,-2.4062,-2.4075,-2.4369,-2.4543,-2.4636,-2.4636,-2.4636,-2.4636,-2.4636,-2.4636,-2.4636,-2.4636,-2.4636,-2.4663,-2.497,-2.5331,-2.5769,-2.5785,-2.5999,-2.6253,-2.6253,-2.6319,-2.6386,-2.6386,-2.6386,-2.6386,-2.6386,-2.6386,-2.6386,-2.6386,-2.6386,-2.6386,-2.6386,-2.6386,-2.6386,-2.6386,-2.6386,-2.6386,-2.6386,-2.6386,-2.6412,-2.6394,-2.6445,-2.6117,-2.5295,-2.5876,-2.6407,-2.6407,-2.6416,-2.609,-2.5304,-2.5571,-2.5487,-2.4688,-2.4565,-2.4581,-2.4562,-2.4636,-2.4636,-2.4636,-2.4636,-2.4636,-2.4636,-2.4636,-2.4636,-2.4636,-2.4636,-2.4636,-2.4636,-2.4636,-2.4602,-2.4608,-2.4569,-2.4829,-1.4162,-1.4295,-1.4736,0.0,0.0,0.0,-2.0147,-2.0468,-2.0668,-2.2138,-2.1737,-2.1042,-2.0748,0.0,0.0,0.0,0.0,0.0,0.0,0.0,0.0,0.0,0.0,0.0,0.0,0.0,0.0,0.0,0.0,0.0,0.0,0.0,0.0,0.0,-2.3768,-2.3768,-2.3768,-2.3768,-2.3768,-2.3768,-2.4062,-2.4356,-2.4636,-2.4636,-2.4636,-2.4636,-2.4636,-2.4636,-2.4636,-2.4636,-2.4636,-2.4663,-2.4957,-2.5077,-2.5117,-2.5398,-2.5692,-2.6037,-2.6037,-2.6146,-2.6386,-2.6386,-2.6386,-2.6386,-2.6386,-2.6386,-2.6386,-2.6386,-2.6386,-2.6386,-2.6386,-2.6386,-2.6386,-2.6386,-2.6386,-2.6386,-2.6386,-2.6386,-2.6386,-2.6386,-2.6386,-2.6386,-2.6386,-2.6386,-2.6386,-2.6386,-2.6408,-2.6402,-2.6402,-2.6402,-2.5935,-2.4776,-2.4573,-2.4618,-2.4589,-2.4562,-2.4562,-2.4562,-2.4636,-2.4636,-2.4636,-2.4636,-2.4636,-2.4636,-2.4636,-2.4636,-2.4636,-2.4636,-2.4621,-2.4573,-2.4573,-2.5232,-1.3601,-1.4282,0.0,-1.6233,0.0,0.0,0.0,-2.1537,0.0,0.0,-2.2966,-2.2231,-2.1713,0.0,0.0,0.0,0.0,0.0,0.0,0.0,0.0,0.0,0.0,0.0,0.0,0.0,0.0,0.0,0.0,0.0,0.0,0.0,0.0,0.0,-2.3196,-2.3196,-2.3196,-2.3354,-2.346,-2.346,-2.3754,-2.4048,-2.4342,-2.4543,-2.4636,-2.4636,-2.4636,-2.4636,-2.4636,-2.4636,-2.4636,-2.4649,-2.473,-2.489,-2.509,-2.5184,-2.5398,-2.5651,-2.5651,-2.5705,-2.5772,-2.5772,-2.5772,-2.5772,-2.5772,-2.5919,-2.6092,-2.6092,-2.6226,-2.6386,-2.6386,-2.6386,-2.6386,-2.6386,-2.6386,-2.6386,-2.6386,-2.6386,-2.6386,-2.6386,-2.6386,-2.6386,-2.6386,-2.6386,-2.6386,-2.6386,-2.6398,-2.6437,-2.6437,-2.6442,-2.6225,-2.5872,-2.5082,-2.4581,-2.4579,-2.4635,-2.4605,-2.4605,-2.4581,-2.4636,-2.4636,-2.4636,-2.4636,-2.4636,-2.4636,-2.4636,-2.4636,-2.4636,-2.4621,-2.4648,-2.5456,-2.6022,-1.4229,-1.515,0.0,0.0,0.0,-2.0601,-2.2311,0.0,0.0,0.0,0.0,0.0,0.0,0.0,0.0,0.0,0.0,0.0,0.0,0.0,0.0,0.0,0.0,0.0,0.0,0.0,0.0,0.0,0.0,0.0,0.0,0.0,0.0,0.0,-2.2928,-2.2928,-2.2928,-2.3046,-2.314,-2.314,-2.3447,-2.3688,-2.3875,-2.4275,-2.4462,-2.4476,-2.4583,-2.4636,-2.4636,-2.4636,-2.4636,-2.4636,-2.4636,-2.4743,-2.4903,-2.4903,-2.509,-2.5344,-2.5344,-2.5411,-2.5518,-2.5518,-2.5518,-2.5518,-2.5518,-2.5638,-2.5785,-2.5862,-2.6077,-2.6213,-2.6383,-2.6385,-2.6386,-2.6386,-2.6386,-2.6386,-2.6386,-2.6386,-2.6386,-2.6386,-2.6386,-2.6386,-2.6386,-2.6386,-2.6386,-2.6386,-2.6386,-2.6386,-2.6386,-2.641,-2.6432,-2.6402,-2.5708,-2.5291,-2.5352,-2.5344,-2.5086,-2.4655,-2.4573,-2.4569,-2.4569,-2.4595,-2.4636,-2.4636,-2.4636,-2.4636,-2.4636,-2.4595,-2.4618,-2.4655,-2.5815,-2.6371,-1.5444,0.0,0.0,0.0,0.0,0.0,0.0,0.0,0.0,0.0,0.0,0.0,0.0,0.0,0.0,0.0,0.0,0.0,0.0,0.0,0.0,0.0,0.0,0.0,0.0,0.0,0.0,0.0,0.0,0.0,0.0,0.0,0.0,-2.2968,-2.2873,-2.2928,-2.2928,-2.2928,-2.2928,0.0,-2.3153,-2.3287,-2.33,-2.3888,-2.4168,-2.4182,-2.4476,-2.4596,-2.4596,-2.4623,-2.4636,-2.4636,-2.4636,-2.4636,-2.4636,-2.4636,-2.481,-2.5037,-2.5037,-2.5211,-2.5438,-2.5438,-2.5438,-2.5438,-2.5438,-2.5451,-2.5478,-2.5657,-2.5782,-2.5919,-2.6347,-2.6394,-2.6439,-2.6439,-2.6373,-2.6386,-2.6386,-2.6386,-2.6386,-2.6386,-2.6386,-2.6386,-2.6386,-2.6386,-2.6386,-2.6386,-2.6386,-2.6386,-2.6386,-2.6386,-2.6372,-2.6378,-2.6429,-2.6411,-2.6397,-2.6432,-2.5905,-2.4853,-2.475,-2.4737,-2.4737,-2.4671,-2.4629,-2.4629,-2.4629,-2.4629,-2.4629,-2.4569,-2.4668,-2.4789,-2.5916,-2.6381,0.0,-1.6348,0.0,0.0,0.0,0.0,0.0,0.0,0.0,0.0,0.0,0.0,0.0,0.0,0.0,0.0,0.0,0.0,0.0,0.0,0.0,0.0,0.0,0.0,0.0,0.0,0.0,0.0,0.0,0.0,0.0,0.0,0.0,-2.322,-2.2993,-2.2928,-2.2928,-2.2928,-2.2928,0.0,-2.2926,-2.2966,-2.2979,-2.3594,-2.3861,-2.3875,-2.4168,-2.4302,-2.4315,-2.4543,-2.4636,-2.4636,-2.4636,-2.4636,-2.4636,-2.4636,-2.4676,-2.473,-2.473,-2.477,-2.4823,-2.4823,-2.4823,-2.4823,-2.4823,-2.4997,-2.5259,-2.5335,-2.5805,-2.6307,-2.6397,-2.6434,-2.6405,-2.6405,-2.6397,-2.6386,-2.6386,-2.6386,-2.6386,-2.6386,-2.6386,-2.6386,-2.6386,-2.6386,-2.6386,-2.6386,-2.6386,-2.6386,-2.6386,-2.6386,-2.6373,-2.6385,-2.6385,-2.6358,-2.6383,-2.6429,-2.6293,-2.6034,-2.5999,-2.6031,-2.6031,-2.5129,-2.4631,-2.4631,-2.4631,-2.4631,-2.4631,-2.462,-2.5058,-2.6034,-2.627,-2.6381,0.0,0.0,0.0,0.0,0.0,0.0,0.0,0.0,0.0,0.0,0.0,0.0,0.0,0.0,0.0,0.0,0.0,0.0,0.0,0.0,0.0,0.0,0.0,0.0,0.0,0.0,0.0,0.0,0.0,0.0,0.0,-2.2873,-2.2873,-2.2886,-2.2873,-2.2928,-2.2928,-2.2928,-2.2928,-2.2928,-2.2928,-2.2928,-2.2941,-2.334,-2.3634,-2.3781,-2.3928,-2.4075,-2.4209,-2.4369,-2.4516,-2.4636,-2.4636,-2.4636,-2.4636,-2.4636,-2.4636,-2.4636,-2.4636,-2.4636,-2.4636,-2.4636,-2.4636,-2.4636,-2.4636,-2.4743,-2.4877,-2.4877,-2.5241,-2.5558,-2.5558,-2.5518,-2.5654,-2.6262,-2.6418,-2.6386,-2.6386,-2.6386,-2.6386,-2.6386,-2.6386,-2.6386,-2.6386,-2.6386,-2.6386,-2.6386,-2.6386,-2.6386,-2.6386,-2.6386,-2.6386,-2.6386,-2.6386,-2.6386,-2.6386,-2.6423,-2.6421,-2.6421,-2.6378,-2.6374,-2.6374,-2.5763,-2.5449,-2.5441,-2.5428,-2.5428,-2.5428,-2.5484,-2.5798,-2.6402,-2.6367,-2.6423,0.0,0.0,0.0,0.0,0.0,0.0,0.0,0.0,0.0,0.0,0.0,0.0,0.0,0.0,0.0,0.0,0.0,0.0,0.0,0.0,0.0,0.0,0.0,0.0,0.0,0.0,0.0,0.0,0.0,0.0,-2.2432,-2.2645,-2.2672,-2.2432,-2.2659,-2.2766,-2.278,-2.2712,-2.2739,-2.2779,-2.2832,-2.2928,-2.2941,-2.3126,-2.338,-2.3621,-2.3674,-2.3834,-2.4062,-2.4115,-2.4302,-2.4556,-2.4556,-2.4596,-2.4636,-2.4636,-2.4636,-2.4636,-2.4636,-2.4636,-2.4636,-2.4636,-2.4636,-2.4636,-2.4636,-2.4636,-2.4636,-2.4636,-2.4573,-2.4582,-2.4582,-2.4616,-2.4838,-2.5873,-2.6061,-2.6135,-2.6398,-2.6398,-2.6412,-2.6373,-2.6386,-2.6386,-2.6386,-2.6386,-2.6386,-2.6386,-2.6386,-2.6386,-2.6386,-2.6386,-2.6386,-2.6386,-2.6386,-2.6386,-2.6386,-2.6386,-2.6386,-2.6386,-2.6386,-2.6386,-2.6386,-2.6386,-2.6421,-2.6375,-2.6361,-2.6361,-2.6375,-2.6439,-2.6378,-2.6391,-2.6372,-2.6386,0.0,0.0,0.0,0.0,0.0,0.0,0.0,0.0,0.0,0.0,0.0,0.0,0.0,0.0,0.0,0.0,0.0,0.0,0.0,0.0,0.0,0.0,0.0,0.0,0.0,0.0,0.0,0.0,0.0,0.0,-2.2418,-2.2458,-2.2458,-2.2418,-2.2458,-2.2365,-2.2111,-2.2098,-2.2231,-2.2485,-2.2739,-2.2928,-2.2928,-2.2968,-2.3008,-2.3006,-2.3273,-2.3407,-2.346,-2.3728,-2.3995,-2.4262,-2.4262,-2.4422,-2.4636,-2.4636,-2.4636,-2.4636,-2.4636,-2.4636,-2.4636,-2.4636,-2.4636,-2.4636,-2.4636,-2.4636,-2.4636,-2.4636,-2.4589,-2.4616,-2.4616,-2.4578,-2.4625,-2.4789,-2.4802,-2.5127,-2.6181,-2.6364,-2.6432,-2.6425,-2.6386,-2.6386,-2.6386,-2.6386,-2.6386,-2.6386,-2.6386,-2.6386,-2.6386,-2.6386,-2.6386,-2.6386,-2.6386,-2.6386,-2.6386,-2.6386,-2.6386,-2.6386,-2.6386,-2.6386,-2.6386,-2.6386,-2.6439,-2.6372,-2.6372,-2.6372,-2.6372,-2.6398,-2.6412,-2.6412,-2.6373,-2.6386,-1.5196,-1.7515,0.0,0.0,0.0,0.0,0.0,0.0,0.0,0.0,0.0,0.0,0.0,0.0,0.0,0.0,0.0,0.0,0.0,0.0,0.0,0.0,0.0,0.0,0.0,0.0,0.0,0.0,0.0,-2.2418,-2.2418,-2.2579,-2.2512,-2.2191,-2.2338,-2.2271,-2.1991,-2.1991,-2.2124,-2.2418,-2.2552,-2.2699,-2.2928,-2.2928,-2.2928,-2.2941,-2.3006,-2.3166,-2.334,-2.3474,-2.3794,-2.4209,-2.4209,-2.4382,-2.4636,-2.4636,-2.4636,-2.4636,-2.4636,-2.4636,-2.4636,-2.4636,-2.4636,-2.4636,-2.4636,-2.4636,-2.4636,-2.4636,-2.4636,-2.4636,-2.4636,-2.4568,-2.4587,-2.4587,-2.4563,-2.4903,-2.6117,-2.6402,-2.641,-2.6373,-2.6386,-2.6386,-2.6386,-2.6386,-2.6386,-2.6386,-2.6386,-2.6386,-2.6386,-2.6386,-2.6386,-2.6386,-2.6386,-2.6386,-2.6386,-2.6386,-2.6386,-2.6386,-2.6386,-2.6386,-2.6386,-2.6386,-2.6386,-2.6386,-2.6386,-2.6386,-2.6386,-2.6386,-2.6386,-2.6386,-2.6386,-2.6386,-1.5418,-1.7128,-1.8504,0.0,0.0,0.0,0.0,0.0,0.0,0.0,0.0,0.0,0.0,0.0,0.0,0.0,0.0,0.0,0.0,0.0,0.0,0.0,0.0,0.0,0.0,0.0,0.0,0.0,0.0,-2.2392,-2.2311,-2.2592,-2.2512,-2.2004,-2.2191,-2.2164,-2.1884,-2.1884,-2.1991,-2.2205,-2.2271,-2.2458,-2.2752,-2.2752,-2.2792,-2.2928,-2.2928,-2.2993,-2.3207,-2.3207,-2.3514,-2.3995,-2.4062,-2.4275,-2.4529,-2.4609,-2.4636,-2.4636,-2.4636,-2.4636,-2.4636,-2.4636,-2.4636,-2.4636,-2.4636,-2.4636,-2.4636,-2.4636,-2.4636,-2.4636,-2.4636,-2.4616,-2.4581,-2.4581,-2.4609,-2.4925,-2.6112,-2.6378,-2.6386,-2.6386,-2.6386,-2.6386,-2.6386,-2.6386,-2.6386,-2.6386,-2.6386,-2.6386,-2.6386,-2.6386,-2.6386,-2.6386,-2.6386,-2.6386,-2.6386,-2.6386,-2.6386,-2.6386,-2.6386,-2.6386,-2.6386,-2.6386,-2.6386,-2.6386,-2.6386,-2.6386,-2.6386,-2.6386,-2.6386,-2.6386,-2.6386,-2.6386,-1.328,-1.4683,0.0,0.0,0.0,0.0,0.0,0.0,0.0,0.0,0.0,0.0,0.0,0.0,0.0,0.0,0.0,0.0,0.0,0.0,0.0,0.0,0.0,0.0,0.0,0.0,0.0,0.0,0.0,-2.2298,-2.2017,-2.2285,-2.2298,-2.1991,-2.2004,-2.1871,-2.1641,-2.1641,-2.1641,-2.1668,-2.1884,-2.2164,-2.2445,-2.2445,-2.2592,-2.2928,-2.2928,-2.2941,-2.2886,-2.2886,-2.3073,-2.3407,-2.3688,-2.3968,-2.4262,-2.4529,-2.4636,-2.4636,-2.4636,-2.4636,-2.4636,-2.4636,-2.4636,-2.4636,-2.4636,-2.4636,-2.4636,-2.4636,-2.4636,-2.4636,-2.4636,-2.46,-2.4622,-2.4622,-2.4622,-2.4946,-2.6101,-2.6435,-2.6386,-2.6386,-2.6386,-2.6386,-2.6386,-2.6386,-2.6386,-2.6386,-2.6386,-2.6386,-2.6386,-2.6386,-2.6386,-2.6386,-2.6386,-2.6386,-2.6386,-2.6386,-2.6386,-2.6386,-2.6386,-2.6386,-2.6386,-2.6386,-2.6386,-2.6386,-2.6386,-2.6386,-2.6386,-2.6386,-2.6386,-2.6386,-2.6386,-2.6386,-1.2947,-1.4082,0.0,0.0,0.0,0.0,0.0,0.0,0.0,0.0,0.0,0.0,0.0,0.0,0.0,0.0,0.0,0.0,0.0,0.0,0.0,0.0,0.0,0.0,0.0,0.0,0.0,0.0,0.0,0.0,-2.2539,-2.2645,-2.2565,-2.2271,-2.2258,-2.2031,-2.1614,-2.1363,-2.1363,-2.1614,-2.1722,-2.1951,-2.2418,-2.2418,-2.2579,-2.2928,-2.2928,-2.2928,-2.2928,-2.2928,-2.3046,-2.3354,-2.3661,-2.3941,-2.4235,-2.4529,-2.4636,-2.4636,-2.4636,-2.4636,-2.4636,-2.4636,-2.4636,-2.4636,-2.4636,-2.4636,-2.4636,-2.4636,-2.4636,-2.4602,-2.4613,-2.4582,-2.4829,-2.5545,-2.5798,-2.5908,-2.6278,-2.6398,-2.6386,-2.6386,-2.6386,-2.6386,-2.6386,-2.6386,-2.6386,-2.6386,-2.6386,-2.6386,-2.6386,-2.6386,-2.6386,-2.6386,-2.6386,-2.6386,-2.6386,-2.6386,-2.6386,-2.6386,-2.6386,-2.6386,-2.6386,-2.6386,-2.6386,-2.6386,-2.6386,-2.6386,-2.6386,-2.6386,-2.6386,-2.6386,-2.6386,-2.6386,-1.2225,0.0,0.0,0.0,0.0,0.0,0.0,0.0,0.0,0.0,0.0,0.0,0.0,0.0,0.0,0.0,0.0,0.0,0.0,0.0,0.0,0.0,0.0,0.0,0.0,0.0,0.0,0.0,0.0,0.0,-2.2914,-2.2928,-2.2726,-2.2432,-2.2418,-2.2138,-2.1628,-2.1363,-2.1309,-2.1403,-2.1403,-2.171,-2.2271,-2.2271,-2.2485,-2.2928,-2.2928,-2.2928,-2.2928,-2.2928,-2.2979,-2.3207,-2.3607,-2.3888,-2.4102,-2.4489,-2.4636,-2.4636,-2.4636,-2.4636,-2.4636,-2.4636,-2.4636,-2.4636,-2.4636,-2.4636,-2.4636,-2.4636,-2.4629,-2.4587,-2.4609,-2.4882,-2.5401,-2.6246,-2.6367,-2.6421,-2.6425,-2.6386,-2.6386,-2.6386,-2.6386,-2.6386,-2.6386,-2.6386,-2.6386,-2.6386,-2.6386,-2.6386,-2.6386,-2.6386,-2.6386,-2.6386,-2.6386,-2.6386,-2.6386,-2.6386,-2.6386,-2.6386,-2.6386,-2.6386,-2.6386,-2.6386,-2.6386,-2.6386,-2.6386,-2.6386,-2.6386,-2.6386,-2.6386,-2.6386,-2.6386,-2.6386,0.0,0.0,0.0,0.0,0.0,0.0,0.0,0.0,0.0,0.0,0.0,0.0,0.0,0.0,0.0,0.0,0.0,0.0,0.0,0.0,0.0,0.0,0.0,0.0,0.0,0.0,0.0,0.0,0.0,-2.2928,-2.2928,-2.2928,-2.2726,-2.2445,-2.2418,-2.2151,-2.1655,-2.1628,-2.1403,-2.1122,-2.1109,-2.1416,-2.1991,-2.1991,-2.2311,-2.2928,-2.2928,-2.2928,-2.2928,-2.2928,-2.2928,-2.2995,-2.3541,-2.3768,-2.3834,-2.4422,-2.4636,-2.4636,-2.4636,-2.4636,-2.4636,-2.4636,-2.4636,-2.4636,-2.4636,-2.4636,-2.4636,-2.4636,-2.46,-2.4573,-2.4674,-2.5531,-2.6391,-2.6412,-2.6386,-2.6386,-2.6386,-2.6386,-2.6386,-2.6386,-2.6386,-2.6386,-2.6386,-2.6386,-2.6386,-2.6386,-2.6386,-2.6386,-2.6386,-2.6386,-2.6386,-2.6386,-2.6386,-2.6386,-2.6386,-2.6386,-2.6386,-2.6386,-2.6386,-2.6386,-2.6386,-2.6386,-2.6386,-2.6386,-2.6386,-2.6386,-2.6386,-2.6386,-2.6386,-2.6386,-2.6386,-2.6386,-1.0969,0.0,0.0,0.0,0.0,0.0,0.0,0.0,0.0,0.0,0.0,0.0,0.0,0.0,0.0,0.0,0.0,0.0,0.0,0.0,0.0,0.0,0.0,0.0,0.0,0.0,0.0,0.0,-2.2928,-2.2928,-2.2928,-2.2928,-2.2887,-2.2739,-2.2525,-2.2338,-2.2178,-2.1764,-2.1574,-2.1494,-2.1216,-2.1416,-2.1991,-2.1991,-2.2311,-2.2928,-2.2928,-2.2928,-2.2928,-2.2928,-2.2928,-2.2995,-2.3541,-2.3768,-2.3834,-2.4422,-2.4636,-2.4636,-2.4636,-2.4636,-2.4636,-2.4636,-2.4636,-2.4636,-2.4636,-2.4636,-2.4636,-2.4636,-2.46,-2.4829,-2.5688,-2.6168,-2.6372,-2.6373,-2.6386,-2.6386,-2.6386,-2.6386,-2.6386,-2.6386,-2.6386,-2.6386,-2.6386,-2.6386,-2.6386,-2.6386,-2.6386,-2.6386,-2.6386,-2.6386,-2.6386,-2.6386,-2.6386,-2.6386,-2.6386,-2.6386,-2.6386,-2.6386,-2.6386,-2.6386,-2.6386,-2.6386,-2.6386,-2.6386,-2.6386,-2.6386,-2.6386,-2.6386,-2.6386,-2.6386,-2.6386,-2.6386,-1.1423,-1.1819,0.0,0.0,0.0,0.0,0.0,0.0,0.0,0.0,0.0,0.0,0.0,0.0,0.0,0.0,0.0,0.0,0.0,0.0,0.0,0.0,0.0,0.0,0.0,0.0,0.0,-2.2672,-2.2672,-2.2726,-2.2928,-2.2928,-2.2928,-2.2928,-2.2699,-2.2539,-2.2418,-2.2084,-2.179,-2.1614,-2.1376,-2.1537,-2.1991,-2.1991,-2.2311,-2.2928,-2.2928,-2.2928,-2.2928,-2.2928,-2.2928,-2.2995,-2.3541,-2.3768,-2.3834,-2.4422,-2.4636,-2.4636,-2.4636,-2.4636,-2.4636,-2.4636,-2.4636,-2.4636,-2.4636,-2.4636,-2.4636,-2.4636,-2.4943,-2.5487,-2.6246,-2.6437,-2.6386,-2.6386,-2.6386,-2.6386,-2.6386,-2.6386,-2.6386,-2.6386,-2.6386,-2.6386,-2.6386,-2.6386,-2.6386,-2.6386,-2.6386,-2.6386,-2.6386,-2.6386,-2.6386,-2.6386,-2.6386,-2.6386,-2.6386,-2.6386,-2.6386,-2.6386,-2.6386,-2.6386,-2.6386,-2.6386,-2.6386,-2.6386,-2.6386,-2.6386,-2.6386,-2.6386,-2.6386,-2.6386,-2.6386,-2.6386,-1.2248,-1.2486,-1.3039,-1.3779,0.0,0.0,-1.5521,-1.5658,0.0,0.0,0.0,0.0,0.0,0.0,0.0,0.0,0.0,0.0,0.0,0.0,0.0,0.0,0.0,0.0,0.0,-2.1964,-2.2098,-2.2352,-2.2405,-2.2539,-2.2806,-2.2914,-2.2928,-2.2928,-2.2928,-2.2739,-2.2472,-2.2432,-2.2164,-2.1722,-2.1681,-2.175,-2.2031,-2.2031,-2.2338,-2.2928,-2.2928,-2.2928,-2.2928,-2.2928,-2.2928,-2.2995,-2.3541,-2.3768,-2.3834,-2.4422,-2.4636,-2.4636,-2.4636,-2.4636,-2.4636,-2.4636,-2.4636,-2.4636,-2.4636,-2.4636,-2.4576,-2.4629,-2.5458,-2.6424,-2.641,-2.6386,-2.6386,-2.6386,-2.6386,-2.6386,-2.6386,-2.6386,-2.6386,-2.6386,-2.6386,-2.6386,-2.6386,-2.6386,-2.6386,-2.6386,-2.6386,-2.6386,-2.6386,-2.6386,-2.6386,-2.6386,-2.6386,-2.6386,-2.6386,-2.6386,-2.6386,-2.6386,-2.6386,-2.6386,-2.6386,-2.6386,-2.6386,-2.6386,-2.6386,-2.6386,-2.6386,-2.6386,-2.6386,-2.6386,-2.6386,-2.6386,-1.336,-1.3369,-1.3377,-1.312,0.0,0.0,0.0,-1.3423,0.0,0.0,0.0,0.0,0.0,0.0,0.0,0.0,0.0,0.0,0.0,0.0,0.0,0.0,0.0,0.0,0.0,-2.1844,-2.2004,-2.2071,-2.2285,-2.2445,-2.2498,-2.2726,-2.2928,-2.2928,-2.2928,-2.2901,-2.2779,-2.2539,-2.2365,-2.2245,-2.2017,-2.2058,-2.2338,-2.2338,-2.2525,-2.2928,-2.2928,-2.2928,-2.2928,-2.2928,-2.2928,-2.2995,-2.3541,-2.3768,-2.3834,-2.4422,-2.4636,-2.4636,-2.4636,-2.4636,-2.4636,-2.4636,-2.4636,-2.4636,-2.4636,-2.4636,-2.4568,-2.4616,-2.5438,-2.6424,-2.641,-2.6386,-2.6386,-2.6386,-2.6386,-2.6386,-2.6386,-2.6386,-2.6386,-2.6386,-2.6386,-2.6386,-2.6386,-2.6386,-2.6386,-2.6386,-2.6386,-2.6386,-2.6386,-2.6386,-2.6386,-2.6386,-2.6386,-2.6386,-2.6386,-2.6386,-2.6386,-2.6386,-2.6386,-2.6386,-2.6386,-2.6386,-2.6386,-2.6386,-2.6386,-2.6386,-2.6386,-2.6386,-2.6386,-2.6386,-2.6386,-2.6386,-1.4249,-1.4158,-1.4241,-1.3954,0.0,0.0,0.0,0.0,0.0,0.0,0.0,0.0,0.0,0.0,0.0,0.0,0.0,0.0,0.0,0.0,0.0,0.0,0.0,0.0,0.0,-2.1243,-2.1456,-2.175,-2.2044,-2.2205,-2.2205,-2.2485,-2.2645,-2.2645,-2.2779,-2.2928,-2.2928,-2.2712,-2.2565,-2.2418,-2.2271,-2.2271,-2.2418,-2.2418,-2.2579,-2.2928,-2.2928,-2.2928,-2.2928,-2.2928,-2.2928,-2.2995,-2.3541,-2.3768,-2.375,-2.4349,-2.4636,-2.4636,-2.4636,-2.4636,-2.4636,-2.4636,-2.4636,-2.4636,-2.4636,-2.4636,-2.4595,-2.4581,-2.5428,-2.6424,-2.641,-2.6386,-2.6386,-2.6386,-2.6386,-2.6386,-2.6386,-2.6386,-2.6386,-2.6386,-2.6386,-2.6386,-2.6386,-2.6386,-2.6386,-2.6386,-2.6386,-2.6386,-2.6386,-2.6386,-2.6386,-2.6386,-2.6386,-2.6386,-2.6386,-2.6386,-2.6386,-2.6386,-2.6386,-2.6386,-2.6386,-2.6386,-2.6386,-2.6386,-2.6386,-2.6386,-2.6386,-2.6386,-2.6386,-2.6386,-2.6386,-2.6386,0.0,0.0,0.0,0.0,0.0,-1.4275,0.0,0.0,0.0,-1.5366,0.0,0.0,0.0,0.0,0.0,0.0,0.0,0.0,0.0,0.0,0.0,0.0,0.0,0.0,0.0,-2.0374,-2.0628,-2.14,-2.1496,-2.167,-2.1897,-2.2178,-2.2365,-2.2418,-2.2645,-2.2806,-2.2928,-2.2928,-2.2739,-2.2498,-2.2498,-2.2498,-2.2512,-2.2565,-2.2726,-2.2953,-2.2953,-2.2953,-2.2953,-2.2886,-2.2928,-2.2981,-2.3544,-2.363,-2.3594,-2.4356,-2.4596,-2.4636,-2.4636,-2.4636,-2.4636,-2.4636,-2.4636,-2.4636,-2.4636,-2.4636,-2.4595,-2.4581,-2.5428,-2.6424,-2.641,-2.6386,-2.6386,-2.6386,-2.6386,-2.6386,-2.6386,-2.6386,-2.6386,-2.6386,-2.6386,-2.6386,-2.6386,-2.6386,-2.6386,-2.6386,-2.6386,-2.6386,-2.6386,-2.6386,-2.6386,-2.6386,-2.6386,-2.6386,-2.6386,-2.6386,-2.6386,-2.6386,-2.6386,-2.6386,-2.6386,-2.6386,-2.6386,-2.6386,-2.6386,-2.6386,-2.6386,-2.6386,-2.6386,-2.6386,-2.6386,-2.6386,0.0,0.0,0.0,0.0,-1.5688,0.0,0.0,0.0,-1.3884,-1.3289,0.0,0.0,0.0,0.0,0.0,0.0,0.0,0.0,0.0,0.0,0.0,0.0,0.0,0.0,0.0,0.0,-1.9586,-2.0695,-2.0321,-2.0508,-2.1614,-2.1884,-2.2151,-2.2405,-2.2458,-2.2592,-2.2928,-2.2928,-2.2914,-2.2806,-2.2806,-2.2806,-2.2819,-2.31,-2.3247,-2.3273,-2.3273,-2.3273,-2.3247,-2.2979,-2.2928,-2.2968,-2.3399,-2.3541,-2.3567,-2.43,-2.4582,-2.4636,-2.4636,-2.4636,-2.4636,-2.4636,-2.4636,-2.4636,-2.4636,-2.4636,-2.4595,-2.4581,-2.5428,-2.6424,-2.641,-2.6386,-2.6386,-2.6386,-2.6386,-2.6386,-2.6386,-2.6386,-2.6386,-2.6386,-2.6386,-2.6386,-2.6386,-2.6386,-2.6386,-2.6386,-2.6386,-2.6386,-2.6386,-2.6386,-2.6386,-2.6386,-2.6386,-2.6386,-2.6386,-2.6386,-2.6386,-2.6386,-2.6386,-2.6386,-2.6386,-2.6386,-2.6386,-2.6386,-2.6386,-2.6386,-2.6386,-2.6386,-2.6386,-2.6386,-2.6386,-2.6386,0.0,0.0,0.0,0.0,0.0,0.0,-1.4451,0.0,-1.3807,0.0,0.0,0.0,0.0,0.0,0.0,0.0,0.0,0.0,0.0,0.0,0.0,0.0,0.0,0.0,0.0,0.0,0.0,0.0,0.0,-1.9907,-2.0748,-2.139,-2.1871,-2.2164,-2.2338,-2.2565,-2.2928,-2.2928,-2.2928,-2.2928,-2.2928,-2.2953,-2.314,-2.326,-2.342,-2.3581,-2.3581,-2.3487,-2.3327,-2.3284,-2.3121,-2.2932,-2.3069,-2.3169,-2.3255,-2.4216,-2.4616,-2.4636,-2.4636,-2.4636,-2.4636,-2.4636,-2.4636,-2.4636,-2.4636,-2.4636,-2.4595,-2.4581,-2.5428,-2.6424,-2.641,-2.6386,-2.6386,-2.6386,-2.6386,-2.6386,-2.6386,-2.6386,-2.6386,-2.6386,-2.6386,-2.6386,-2.6386,-2.6386,-2.6386,-2.6386,-2.6386,-2.6386,-2.6386,-2.6386,-2.6386,-2.6386,-2.6386,-2.6386,-2.6386,-2.6386,-2.6386,-2.6386,-2.6386,-2.6386,-2.6386,-2.6386,-2.6386,-2.6386,-2.6386,-2.6386,-2.6386,-2.6386,-2.6386,-2.6386,-2.6386,-2.6386,-1.7531,0.0,0.0,0.0,0.0,0.0,0.0,0.0,0.0,0.0,0.0,0.0,0.0,0.0,0.0,0.0,0.0,0.0,0.0,0.0,0.0,0.0,0.0,0.0,0.0,0.0,0.0,0.0,0.0,0.0,-2.0113,-2.0842,-2.1443,-2.1964,-2.2191,-2.2485,-2.2928,-2.2928,-2.2928,-2.2928,-2.2928,-2.3033,-2.3327,-2.3407,-2.3607,-2.3888,-2.3888,-2.3768,-2.3497,-2.3474,-2.3324,-2.3153,-2.2963,-2.2911,-2.3047,-2.4196,-2.4569,-2.4636,-2.4636,-2.4636,-2.4636,-2.4636,-2.4636,-2.4636,-2.4636,-2.4616,-2.4613,-2.4594,-2.5481,-2.6366,-2.6437,-2.6386,-2.6386,-2.6386,-2.6386,-2.6386,-2.6386,-2.6386,-2.6386,-2.6386,-2.6386,-2.6386,-2.6386,-2.6386,-2.6386,-2.6386,-2.6386,-2.6386,-2.6386,-2.6386,-2.6386,-2.6386,-2.6386,-2.6386,-2.6386,-2.6386,-2.6386,-2.6386,-2.6386,-2.6386,-2.6386,-2.6386,-2.6386,-2.6386,-2.6386,-2.6386,-2.6386,-2.6386,-2.6386,-2.6386,-2.6386,-2.6386,0.0,0.0,0.0,-1.6786,0.0,0.0,0.0,0.0,-1.4889,0.0,0.0,0.0,0.0,0.0,-1.4239,-1.3693,0.0,0.0,0.0,0.0,0.0,0.0,0.0,0.0,0.0,0.0,0.0,0.0,0.0,0.0,-2.0107,-2.0254,-2.0802,-2.1951,-2.1991,-2.2271,-2.2928,-2.2928,-2.2928,-2.2928,-2.2928,-2.3033,-2.334,-2.3621,-2.3915,-2.4195,-2.4195,-2.4109,-2.3984,-2.3633,-2.3599,-2.3696,-2.3104,-2.2891,-2.3049,-2.4209,-2.4569,-2.4636,-2.4636,-2.4636,-2.4636,-2.4636,-2.4636,-2.4636,-2.4636,-2.4587,-2.4612,-2.457,-2.546,-2.6364,-2.6398,-2.6386,-2.6386,-2.6386,-2.6386,-2.6386,-2.6386,-2.6386,-2.6386,-2.6386,-2.6386,-2.6386,-2.6386,-2.6386,-2.6386,-2.6386,-2.6386,-2.6386,-2.6386,-2.6386,-2.6386,-2.6386,-2.6386,-2.6386,-2.6386,-2.6386,-2.6386,-2.6386,-2.6386,-2.6386,-2.6386,-2.6386,-2.6386,-2.6386,-2.6386,-2.6386,-2.6386,-2.6386,-2.6386,-2.6386,-2.6386,-2.6386,0.0,0.0,-1.9794,-1.7879,0.0,0.0,0.0,0.0,0.0,0.0,0.0,0.0,0.0,0.0,-1.4389,-1.4001,-1.3614,0.0,0.0,0.0,0.0,0.0,0.0,0.0,0.0,0.0,0.0,0.0,0.0,0.0,0.0,-1.9813,-2.0681,-2.167,-2.1884,-2.2271,-2.2928,-2.2928,-2.2928,-2.2928,-2.2928,-2.3126,-2.3621,-2.3728,-2.4035,-2.4489,-2.4489,-2.4296,-2.4037,-2.4143,-2.3819,-2.3287,-2.384,-2.4022,-2.4084,-2.4482,-2.463,-2.4636,-2.4636,-2.4636,-2.4636,-2.4636,-2.4636,-2.4636,-2.4636,-2.4587,-2.4789,-2.5604,-2.608,-2.6378,-2.6398,-2.6386,-2.6386,-2.6386,-2.6386,-2.6386,-2.6386,-2.6386,-2.6386,-2.6386,-2.6386,-2.6386,-2.6386,-2.6386,-2.6386,-2.6386,-2.6386,-2.6386,-2.6386,-2.6386,-2.6386,-2.6386,-2.6386,-2.6386,-2.6386,-2.6386,-2.6386,-2.6386,-2.6386,-2.6386,-2.6386,-2.6386,-2.6386,-2.6386,-2.6386,-2.6386,-2.6386,-2.6386,-2.6386,-2.6386,-2.6386,-2.6386,-2.0802,-2.0847,0.0,-1.9061,-1.8417,0.0,-1.6169,0.0,0.0,0.0,0.0,0.0,0.0,0.0,-1.4763,-1.4576,-1.3881,-1.2973,0.0,0.0,0.0,0.0,0.0,0.0,0.0,0.0,-1.4643,-1.5484,0.0,0.0,0.0,0.0,-2.0267,-2.1363,-2.1777,-2.2271,-2.2928,-2.2928,-2.2928,-2.2928,-2.2928,-2.3249,-2.3768,-2.3768,-2.4088,-2.4636,-2.4636,-2.4456,-2.4209,-2.4482,-2.4195,-2.3585,-2.4302,-2.4825,-2.5152,-2.4732,-2.4626,-2.4608,-2.4589,-2.4636,-2.4636,-2.4636,-2.4636,-2.4576,-2.4595,-2.4582,-2.4859,-2.6022,-2.6411,-2.6421,-2.6425,-2.6386,-2.6386,-2.6386,-2.6386,-2.6386,-2.6386,-2.6386,-2.6386,-2.6386,-2.6386,-2.6386,-2.6386,-2.6386,-2.6386,-2.6386,-2.6386,-2.6386,-2.6386,-2.6386,-2.6386,-2.6386,-2.6374,-2.6414,-2.6414,-2.6414,-2.6387,-2.6386,-2.6386,-2.6386,-2.6386,-2.6386,-2.6386,-2.6386,-2.566,-2.5251,-2.5251,-2.4442,-2.4111,-2.4111,-2.4111,-2.4111]}]]